[[{"header":{"parameterUnit":"m.s-1","parameterCategory":1,"la1":31.0,"la2":29.5877,"lo1":-88.7671,"lo2":-86.6584,"dy":0.0162,"dx":0.0185,"nx":115,"ny":88,"refTime":"2023-05-03T06:00:00:Z","depth":0,"parameterNumber":2,"parameterNumberName":"U-component_of_WINDS"},"data":[0.0,0.0,0.0,0.0,0.0,0.0,0.0,0.0,0.0,0.0,0.0,0.0,0.0,0.0,0.0,0.0,0.0,0.0,0.0,0.0,0.0,0.0,0.0,0.0,0.0,0.0,0.0,0.0,0.0,0.0,0.0,0.0,0.0,0.0,0.0,0.0,0.0,0.0,0.0,0.0,0.0,0.0,0.0,0.0,0.0,0.0,0.0,0.0,0.0,0.0,0.0,0.0,0.0,0.0,0.0,0.0,0.0,0.0,0.0,0.0,0.0,0.0,0.0,0.0,0.0,0.0,0.0,0.0,0.0,0.0,0.0,0.0,0.0,0.0,0.0,0.0,0.0,0.0,0.0,0.0,0.0,0.0,0.0,0.0,0.0,0.0,0.0,0.0,0.0,0.0,0.0,0.0,0.0,0.0,0.0,0.0,0.0,0.0,0.0,0.0,0.0,0.0,0.0,0.0,0.0,0.0,0.0,0.0,0.0,0.0,0.0,0.0,0.0,0.0,0.0,0.0,0.0,0.0,0.0,0.0,0.0,0.0,0.0,0.0,0.0,0.0,0.0,0.0,0.0,0.0,0.0,0.0,0.0,0.0,0.0,0.0,0.0,0.0,0.0,0.0,0.0,0.0,0.0,0.0,0.0,0.0,0.0,0.0,0.0,0.0,0.0,0.0,0.0,0.0,0.0,0.0,0.0,0.0,0.0,0.0,0.0,0.0,0.0,0.0,0.0,0.0,0.0,0.0,0.0,0.0,0.0,0.0,0.0,0.0,0.0,0.0,0.0,0.0,0.0,0.0,0.0,0.0,0.0,0.0,0.0,0.0,0.0,0.0,0.0,0.0,0.0,0.0,0.0,0.0,0.0,0.0,0.0,0.0,0.0,0.0,0.0,0.0,0.0,0.0,0.0,0.0,0.0,0.0,0.0,0.0,0.0,0.0,0.0,0.0,0.0,0.0,0.0,0.0,0.0,0.0,0.0,0.0,0.0,0.0,0.0,0.0,0.0,0.0,0.0,0.0,0.0,0.0,0.0,0.0,0.0,0.0,0.0,0.0,0.0,0.0,0.0,0.0,0.0,0.0,0.0,0.0,0.0,0.0,0.0,0.0,0.0,0.0,0.0,0.0,0.0,0.0,0.0,0.0,0.0,0.0,0.0,0.0,0.0,0.0,0.0,0.0,0.0,0.0,0.0,0.0,0.0,0.0,0.0,0.0,0.0,0.0,0.0,0.0,0.0,0.0,0.0,0.0,0.0,0.0,0.0,0.0,0.0,0.0,0.0,0.0,0.0,0.0,0.0,0.0,0.0,0.0,0.0,0.0,0.0,0.0,0.0,0.0,0.0,0.0,0.0,0.0,0.0,0.0,0.0,0.0,0.0,0.0,0.0,0.0,0.0,0.0,0.0,0.0,0.0,0.0,0.0,0.0,0.0,0.0,0.0,0.0,0.0,0.0,0.0,0.0,0.0,0.0,0.0,0.0,0.0,0.0,0.0,0.0,0.0,0.0,0.0,0.0,0.0,0.0,0.0,0.0,0.0,0.0,0.0,0.0,0.0,0.0,0.0,0.0,0.0,0.0,0.0,0.0,0.0,0.0,0.0,0.0,0.0,0.0,0.0,0.0,0.0,0.0,0.0,0.0,0.0,0.0,0.0,0.0,0.0,0.0,0.0,0.0,0.0,0.0,0.0,0.0,0.0,0.0,0.0,0.0,0.0,0.0,0.0,0.0,0.0,0.0,0.0,0.0,0.0,0.0,0.0,0.0,0.0,0.0,0.0,0.0,0.0,0.0,0.0,0.0,0.0,0.0,0.0,0.0,0.0,0.0,0.0,0.0,0.0,0.0,0.0,0.0,0.0,0.0,0.0,0.0,0.0,0.0,0.0,0.0,0.0,0.0,0.0,0.0,0.0,0.0,0.0,0.0,0.0,0.0,0.0,0.0,0.0,0.0,0.0,0.0,0.0,0.0,0.0,0.0,0.0,0.0,0.0,0.0,0.0,0.0,0.0,0.0,0.0,0.0,0.0,0.0,0.0,0.0,0.0,0.0,0.0,0.0,0.0,0.0,0.0,0.0,0.0,0.0,0.0,0.0,0.0,0.0,0.0,0.0,0.0,0.0,0.0,0.0,0.0,0.0,0.0,0.0,0.0,0.0,0.0,0.0,0.0,0.0,0.0,0.0,0.0,0.0,0.0,0.0,0.0,0.0,0.0,0.0,0.0,0.0,0.0,0.0,0.0,0.0,0.0,0.0,0.0,0.0,0.0,0.0,0.0,0.0,0.0,0.0,0.0,0.0,0.0,0.0,0.0,0.0,0.0,0.0,0.0,0.0,0.0,0.0,0.0,0.0,0.0,0.0,0.0,0.0,0.0,0.0,0.0,0.0,0.0,0.0,0.0,0.0,0.0,0.0,0.0,0.0,0.0,0.0,0.0,0.0,0.0,0.0,0.0,0.0,0.0,0.0,0.0,0.0,0.0,0.0,0.0,0.0,0.0,0.0,0.0,0.0,0.0,0.0,0.0,0.0,0.0,0.0,0.0,0.0,0.0,0.0,0.0,0.0,0.0,0.0,0.0,0.0,0.0,0.0,0.0,0.0,0.0,0.0,0.0,0.0,0.0,0.0,0.0,0.0,0.0,0.0,0.0,0.0,0.0,0.0,0.0,0.0,0.0,0.0,0.0,0.0,0.0,0.0,0.0,0.0,0.0,0.0,0.0,0.0,0.0,0.0,0.0,0.0,0.0,0.0,0.0,0.0,0.0,0.0,0.0,0.0,0.0,0.0,0.0,0.0,0.0,0.0,0.0,0.0,0.0,0.0,0.0,0.0,0.0,0.0,0.0,0.0,0.0,0.0,0.0,0.0,0.0,0.0,0.0,0.0,0.0,0.0,0.0,0.0,0.0,0.0,0.0,0.0,0.0,0.0,0.0,0.0,0.0,0.0,0.0,0.0,0.0,0.0,0.0,0.0,0.0,0.0,0.0,0.0,0.0,0.0,0.0,0.0,0.0,0.0,0.0,0.0,0.0,0.0,0.0,0.0,0.0,0.0,0.0,0.0,0.0,0.0,0.0,0.0,0.0,0.0,0.0,0.0,0.0,0.0,0.0,0.0,0.0,0.0,0.0,0.0,0.0,0.0,0.0,0.0,0.0,0.0,0.0,0.0,0.0,0.0,0.0,0.0,0.0,0.0,0.0,0.0,0.0,0.0,0.0,0.0,0.0,0.0,0.0,0.0,0.0,0.0,0.0,0.0,0.0,0.0,0.0,0.0,0.0,0.0,0.0,0.0,0.0,0.0,0.0,0.0,0.0,0.0,0.0,0.0,0.0,0.0,0.0,0.0,0.0,0.0,0.0,0.0,0.0,0.0,0.0,0.0,0.0,0.0,0.0,0.0,0.0,0.0,0.0,0.0,0.0,0.0,0.0,0.0,0.0,0.0,0.0,0.0,0.0,0.0,0.0,0.0,0.0,0.0,0.0,0.0,0.0,0.0,0.0,0.0,0.0,0.0,0.0,0.0,0.0,0.0,0.0,0.0,0.0,0.0,0.0,0.0,0.0,0.0,0.0,0.0,0.0,0.0,0.0,0.0,0.0,0.0,0.0,0.0,0.0,0.0,0.0,0.0,0.0,0.0,0.0,0.0,0.0,0.0,0.0,0.0,0.0,0.0,0.0,0.0,0.0,0.0,0.0,0.0,0.0,0.0,0.0,0.0,0.0,0.0,0.0,0.0,0.0,0.0,0.0,0.0,0.0,0.0,0.0,0.0,0.0,0.0,0.0,0.0,0.0,0.0,0.0,0.0,0.0,0.0,0.0,0.0,0.0,0.0,0.0,0.0,0.0,0.0,0.0,0.0,0.0,0.0,0.0,0.0,0.0,0.0,0.0,0.0,0.0,0.0,0.0,0.0,0.0,0.0,0.0,0.0,0.0,0.0,0.0,0.0,0.0,0.0,0.0,0.0,0.0,0.0,0.0,0.0,0.0,0.0,0.0,0.0,0.0,0.0,0.0,0.0,0.0,0.0,0.0,0.0,0.0,0.0,0.0,0.0,0.0,0.0,0.0,0.0,0.0,0.0,0.0,0.0,0.0,0.0,0.0,0.0,0.0,0.0,0.0,0.0,0.0,0.0,0.0,0.0,0.0,0.0,0.0,0.0,0.0,0.0,0.0,0.0,0.0,0.0,0.0,0.0,0.0,0.0,0.0,0.0,0.0,0.0,0.0,0.0,0.0,0.0,0.0,0.0,0.0,0.0,0.0,0.0,0.0,0.0,0.0,0.0,-2.5683,0.0,0.0,0.0,0.0,0.0,0.0,0.0,0.0,0.0,0.0,0.0,0.0,0.0,0.0,0.0,0.0,0.0,0.0,0.0,0.0,0.0,0.0,0.0,0.0,0.0,0.0,0.0,0.0,0.0,0.0,0.0,0.0,0.0,0.0,0.0,0.0,0.0,0.0,0.0,0.0,0.0,0.0,0.0,0.0,0.0,0.0,0.0,0.0,0.0,0.0,0.0,0.0,0.0,0.0,0.0,0.0,0.0,0.0,0.0,0.0,0.0,0.0,0.0,0.0,0.0,0.0,0.0,0.0,0.0,0.0,0.0,0.0,0.0,0.0,0.0,0.0,0.0,0.0,0.0,0.0,0.0,0.0,0.0,0.0,0.0,0.0,0.0,0.0,0.0,0.0,0.0,0.0,0.0,0.0,0.0,0.0,0.0,0.0,0.0,0.0,0.0,0.0,0.0,0.0,0.0,0.0,0.0,0.0,0.0,0.0,-2.8594,-2.7734,-2.6855,-2.6191,-2.5723,0.0,0.0,0.0,0.0,0.0,0.0,0.0,0.0,0.0,0.0,0.0,0.0,0.0,0.0,0.0,0.0,0.0,0.0,0.0,0.0,0.0,0.0,0.0,0.0,0.0,0.0,0.0,0.0,0.0,0.0,0.0,0.0,0.0,0.0,0.0,0.0,0.0,0.0,0.0,0.0,0.0,0.0,0.0,0.0,0.0,0.0,0.0,0.0,0.0,0.0,0.0,0.0,0.0,0.0,0.0,0.0,0.0,0.0,0.0,0.0,0.0,0.0,0.0,0.0,0.0,0.0,0.0,0.0,0.0,0.0,0.0,0.0,0.0,0.0,0.0,0.0,0.0,0.0,0.0,0.0,0.0,0.0,0.0,0.0,0.0,0.0,0.0,0.0,0.0,0.0,0.0,0.0,0.0,0.0,0.0,0.0,0.0,0.0,0.0,0.0,0.0,0.0,0.0,0.0,0.0,0.0,0.0,0.0,0.0,0.0,0.0,0.0,-2.7461,-2.6582,-2.5742,0.0,0.0,0.0,0.0,0.0,0.0,0.0,0.0,0.0,0.0,0.0,0.0,0.0,0.0,0.0,0.0,0.0,0.0,0.0,0.0,0.0,0.0,0.0,0.0,0.0,0.0,0.0,0.0,0.0,0.0,0.0,0.0,0.0,0.0,0.0,0.0,0.0,0.0,0.0,0.0,0.0,0.0,0.0,0.0,0.0,0.0,0.0,0.0,0.0,0.0,0.0,0.0,0.0,0.0,0.0,0.0,0.0,0.0,0.0,0.0,0.0,0.0,0.0,0.0,0.0,0.0,0.0,0.0,0.0,0.0,0.0,0.0,0.0,0.0,0.0,0.0,0.0,0.0,0.0,0.0,0.0,0.0,0.0,0.0,0.0,0.0,0.0,0.0,0.0,0.0,0.0,0.0,0.0,0.0,0.0,0.0,0.0,0.0,0.0,0.0,0.0,0.0,0.0,0.0,0.0,0.0,0.0,0.0,0.0,0.0,-2.918,-2.832,-2.7461,0.0,-2.5781,0.0,0.0,0.0,0.0,0.0,0.0,0.0,0.0,0.0,0.0,0.0,0.0,0.0,0.0,0.0,0.0,0.0,0.0,0.0,0.0,0.0,0.0,0.0,0.0,0.0,0.0,0.0,0.0,0.0,0.0,0.0,0.0,0.0,0.0,0.0,0.0,0.0,0.0,0.0,0.0,0.0,0.0,0.0,0.0,0.0,0.0,0.0,0.0,0.0,0.0,0.0,0.0,0.0,0.0,0.0,0.0,0.0,0.0,0.0,0.0,0.0,0.0,0.0,0.0,0.0,0.0,0.0,0.0,0.0,0.0,0.0,0.0,0.0,0.0,0.0,0.0,0.0,0.0,0.0,0.0,0.0,0.0,0.0,0.0,0.0,0.0,0.0,0.0,0.0,0.0,0.0,0.0,0.0,0.0,0.0,0.0,0.0,0.0,0.0,0.0,0.0,0.0,0.0,0.0,0.0,0.0,0.0,0.0,0.0,0.0,-2.9707,-2.834,-2.6953,-2.6055,0.0,0.0,0.0,0.0,0.0,0.0,0.0,0.0,0.0,0.0,0.0,0.0,0.0,0.0,0.0,0.0,0.0,0.0,0.0,0.0,0.0,0.0,0.0,0.0,0.0,0.0,0.0,0.0,0.0,0.0,0.0,0.0,0.0,0.0,0.0,0.0,0.0,0.0,0.0,0.0,0.0,0.0,0.0,0.0,0.0,0.0,0.0,0.0,0.0,0.0,0.0,0.0,0.0,0.0,0.0,0.0,0.0,0.0,0.0,0.0,0.0,0.0,0.0,0.0,0.0,0.0,0.0,0.0,0.0,0.0,0.0,0.0,0.0,0.0,0.0,0.0,0.0,0.0,0.0,0.0,0.0,0.0,0.0,0.0,0.0,0.0,0.0,0.0,0.0,0.0,0.0,0.0,0.0,0.0,0.0,0.0,0.0,0.0,0.0,0.0,0.0,0.0,0.0,0.0,0.0,0.0,0.0,0.0,0.0,0.0,-3.0918,-3.0059,-2.8359,-2.6855,-2.5937,-2.5703,0.0,0.0,0.0,0.0,0.0,0.0,0.0,0.0,0.0,0.0,0.0,0.0,0.0,0.0,0.0,0.0,0.0,0.0,0.0,0.0,0.0,0.0,0.0,0.0,0.0,0.0,0.0,0.0,0.0,0.0,0.0,0.0,0.0,0.0,0.0,0.0,0.0,0.0,0.0,0.0,0.0,0.0,0.0,0.0,0.0,0.0,0.0,0.0,0.0,0.0,0.0,0.0,0.0,0.0,0.0,0.0,0.0,0.0,0.0,0.0,0.0,0.0,0.0,0.0,0.0,0.0,0.0,0.0,0.0,0.0,0.0,0.0,0.0,0.0,0.0,0.0,0.0,0.0,0.0,0.0,0.0,0.0,0.0,0.0,0.0,0.0,0.0,0.0,0.0,0.0,0.0,0.0,0.0,0.0,0.0,0.0,0.0,0.0,0.0,0.0,0.0,0.0,0.0,0.0,0.0,0.0,0.0,0.0,-3.0898,-3.0898,-3.0059,-2.8359,-2.7422,-2.6562,0.0,0.0,0.0,0.0,0.0,0.0,0.0,0.0,0.0,0.0,0.0,0.0,0.0,0.0,0.0,0.0,0.0,0.0,0.0,0.0,0.0,0.0,0.0,0.0,0.0,0.0,0.0,0.0,0.0,0.0,0.0,0.0,0.0,0.0,0.0,0.0,0.0,0.0,0.0,0.0,0.0,0.0,0.0,0.0,0.0,0.0,0.0,0.0,0.0,0.0,0.0,0.0,0.0,0.0,0.0,0.0,0.0,0.0,0.0,0.0,0.0,0.0,0.0,0.0,0.0,0.0,0.0,0.0,0.0,0.0,0.0,0.0,0.0,0.0,0.0,0.0,0.0,0.0,0.0,0.0,0.0,0.0,0.0,0.0,0.0,0.0,0.0,0.0,0.0,0.0,0.0,0.0,0.0,0.0,0.0,0.0,0.0,0.0,0.0,0.0,0.0,0.0,0.0,0.0,0.0,0.0,0.0,0.0,0.0,-3.0879,-3.0351,-2.9512,-2.834,-2.7461,-2.6602,0.0,0.0,0.0,0.0,0.0,0.0,0.0,0.0,0.0,0.0,0.0,0.0,0.0,0.0,0.0,0.0,0.0,0.0,0.0,0.0,0.0,0.0,0.0,0.0,0.0,0.0,0.0,0.0,0.0,0.0,0.0,0.0,0.0,0.0,0.0,0.0,0.0,0.0,0.0,0.0,0.0,0.0,0.0,0.0,0.0,0.0,0.0,0.0,0.0,0.0,0.0,0.0,0.0,0.0,0.0,0.0,0.0,0.0,0.0,0.0,0.0,0.0,0.0,0.0,0.0,0.0,0.0,0.0,0.0,0.0,0.0,0.0,0.0,0.0,0.0,0.0,0.0,0.0,0.0,0.0,0.0,0.0,0.0,0.0,0.0,0.0,0.0,0.0,0.0,0.0,0.0,0.0,0.0,0.0,0.0,0.0,0.0,0.0,0.0,0.0,0.0,0.0,0.0,0.0,0.0,0.0,0.0,0.0,0.0,-3.0898,0.0,-2.9473,0.0,-2.7734,-2.6875,0.0,0.0,0.0,0.0,0.0,0.0,0.0,0.0,0.0,0.0,0.0,0.0,0.0,0.0,0.0,0.0,0.0,0.0,0.0,0.0,0.0,0.0,0.0,0.0,0.0,0.0,0.0,0.0,0.0,0.0,0.0,0.0,0.0,0.0,0.0,0.0,0.0,0.0,0.0,0.0,0.0,0.0,0.0,0.0,0.0,0.0,0.0,0.0,0.0,0.0,0.0,0.0,0.0,0.0,0.0,0.0,0.0,0.0,0.0,0.0,0.0,0.0,0.0,0.0,0.0,0.0,0.0,0.0,0.0,0.0,0.0,0.0,0.0,0.0,0.0,0.0,0.0,0.0,0.0,0.0,0.0,0.0,0.0,0.0,0.0,0.0,0.0,0.0,0.0,0.0,0.0,0.0,0.0,0.0,0.0,0.0,0.0,0.0,0.0,0.0,0.0,0.0,0.0,0.0,0.0,0.0,0.0,0.0,-3.0918,-3.0918,-3.0898,-3.0039,-2.8379,-2.8262,-2.7461,0.0,0.0,0.0,0.0,0.0,0.0,0.0,0.0,0.0,0.0,0.0,0.0,0.0,0.0,0.0,0.0,0.0,0.0,0.0,0.0,0.0,0.0,0.0,0.0,0.0,0.0,0.0,0.0,0.0,0.0,0.0,0.0,0.0,0.0,0.0,0.0,0.0,0.0,0.0,0.0,0.0,0.0,0.0,0.0,0.0,0.0,0.0,0.0,0.0,0.0,0.0,0.0,0.0,0.0,0.0,0.0,0.0,0.0,0.0,0.0,0.0,0.0,0.0,0.0,0.0,0.0,0.0,0.0,0.0,0.0,0.0,0.0,0.0,0.0,0.0,0.0,0.0,0.0,0.0,0.0,0.0,0.0,0.0,0.0,0.0,0.0,0.0,0.0,0.0,0.0,0.0,0.0,0.0,0.0,0.0,0.0,0.0,0.0,0.0,0.0,0.0,0.0,0.0,0.0,0.0,0.0,0.0,0.0,0.0,-3.0918,-3.0918,-3.0078,-2.8379,-2.8281,-2.748,0.0,0.0,0.0,0.0,0.0,0.0,0.0,0.0,0.0,0.0,0.0,0.0,0.0,0.0,0.0,0.0,0.0,0.0,0.0,0.0,0.0,0.0,0.0,0.0,0.0,0.0,0.0,0.0,0.0,0.0,0.0,0.0,0.0,0.0,0.0,0.0,0.0,0.0,0.0,0.0,0.0,0.0,0.0,0.0,0.0,0.0,0.0,0.0,0.0,0.0,0.0,0.0,0.0,0.0,0.0,0.0,0.0,0.0,0.0,0.0,0.0,0.0,0.0,0.0,0.0,0.0,0.0,0.0,0.0,0.0,0.0,0.0,0.0,0.0,0.0,0.0,0.0,0.0,0.0,0.0,0.0,0.0,0.0,0.0,0.0,0.0,0.0,0.0,0.0,0.0,0.0,0.0,0.0,0.0,0.0,0.0,0.0,0.0,0.0,0.0,0.0,0.0,0.0,0.0,0.0,0.0,0.0,0.0,0.0,-3.1387,-3.1387,-3.0703,-2.9297,-2.8945,-2.7969,-2.6269,0.0,0.0,0.0,0.0,0.0,0.0,0.0,0.0,0.0,0.0,0.0,0.0,0.0,0.0,0.0,0.0,0.0,0.0,0.0,0.0,0.0,0.0,0.0,0.0,0.0,0.0,0.0,0.0,0.0,0.0,0.0,0.0,0.0,0.0,0.0,0.0,0.0,0.0,0.0,0.0,0.0,0.0,0.0,0.0,0.0,0.0,0.0,0.0,0.0,0.0,0.0,0.0,0.0,0.0,0.0,0.0,0.0,0.0,0.0,0.0,0.0,0.0,0.0,0.0,0.0,0.0,0.0,0.0,0.0,0.0,0.0,0.0,0.0,0.0,0.0,0.0,0.0,0.0,0.0,0.0,0.0,0.0,0.0,0.0,0.0,0.0,0.0,0.0,0.0,0.0,0.0,0.0,0.0,0.0,0.0,0.0,0.0,0.0,0.0,0.0,0.0,0.0,0.0,0.0,0.0,0.0,0.0,0.0,-3.2266,-3.2305,-3.1894,-3.0996,-3.0117,-2.8848,0.0,0.0,0.0,0.0,0.0,0.0,0.0,0.0,0.0,0.0,0.0,0.0,0.0,0.0,0.0,0.0,0.0,0.0,0.0,0.0,0.0,0.0,0.0,0.0,0.0,0.0,0.0,0.0,0.0,0.0,0.0,0.0,0.0,0.0,0.0,0.0,0.0,0.0,0.0,0.0,0.0,0.0,0.0,0.0,0.0,0.0,0.0,0.0,0.0,0.0,0.0,0.0,0.0,0.0,0.0,0.0,0.0,0.0,0.0,0.0,0.0,0.0,0.0,0.0,0.0,0.0,0.0,0.0,0.0,0.0,0.0,0.0,0.0,0.0,0.0,0.0,0.0,0.0,0.0,0.0,0.0,0.0,0.0,0.0,0.0,0.0,0.0,0.0,0.0,0.0,0.0,0.0,0.0,0.0,0.0,0.0,0.0,0.0,0.0,0.0,0.0,0.0,0.0,0.0,0.0,0.0,0.0,0.0,0.0,-3.3066,-3.3711,-3.3359,-3.1914,-3.1016,-2.9746,0.0,0.0,0.0,0.0,0.0,0.0,0.0,0.0,0.0,0.0,0.0,0.0,0.0,0.0,0.0,0.0,0.0,0.0,0.0,0.0,0.0,0.0,0.0,0.0,0.0,0.0,0.0,0.0,0.0,0.0,0.0,0.0,0.0,0.0,0.0,0.0,0.0,0.0,0.0,0.0,0.0,0.0,0.0,0.0,0.0,0.0,0.0,0.0,0.0,0.0,0.0,0.0,0.0,0.0,0.0,0.0,0.0,0.0,0.0,0.0,0.0,0.0,0.0,0.0,0.0,0.0,0.0,0.0,0.0,0.0,0.0,0.0,0.0,0.0,0.0,0.0,0.0,0.0,0.0,0.0,0.0,0.0,0.0,0.0,0.0,0.0,0.0,0.0,0.0,0.0,0.0,0.0,0.0,0.0,0.0,0.0,0.0,0.0,0.0,0.0,0.0,0.0,0.0,0.0,0.0,0.0,0.0,0.0,-3.293,-3.3418,-3.4609,-3.4785,-3.3809,-3.1914,-3.0254,0.0,0.0,0.0,0.0,0.0,0.0,0.0,0.0,0.0,0.0,0.0,0.0,0.0,0.0,0.0,0.0,0.0,0.0,0.0,0.0,0.0,0.0,0.0,0.0,0.0,0.0,0.0,0.0,0.0,0.0,0.0,0.0,0.0,0.0,0.0,0.0,0.0,0.0,0.0,0.0,0.0,0.0,0.0,0.0,0.0,0.0,0.0,0.0,0.0,0.0,0.0,0.0,0.0,0.0,0.0,0.0,0.0,0.0,0.0,0.0,0.0,0.0,0.0,0.0,0.0,0.0,0.0,0.0,0.0,0.0,0.0,0.0,0.0,0.0,0.0,0.0,0.0,0.0,0.0,0.0,0.0,0.0,0.0,0.0,0.0,0.0,0.0,0.0,0.0,0.0,0.0,0.0,0.0,0.0,0.0,0.0,0.0,0.0,0.0,0.0,0.0,0.0,0.0,0.0,0.0,0.0,0.0,0.0,-3.3437,-3.3555,-3.5137,-3.6016,-3.5918,-3.2851,-3.0723,0.0,0.0,0.0,0.0,0.0,0.0,0.0,0.0,0.0,0.0,0.0,0.0,0.0,0.0,0.0,0.0,0.0,0.0,0.0,0.0,0.0,0.0,0.0,0.0,0.0,0.0,0.0,0.0,0.0,0.0,0.0,0.0,0.0,0.0,0.0,0.0,0.0,0.0,0.0,0.0,0.0,0.0,0.0,0.0,0.0,0.0,0.0,0.0,0.0,0.0,0.0,0.0,0.0,0.0,0.0,0.0,0.0,0.0,0.0,0.0,0.0,0.0,0.0,0.0,0.0,0.0,0.0,0.0,0.0,0.0,0.0,0.0,0.0,0.0,0.0,0.0,0.0,0.0,0.0,0.0,0.0,0.0,0.0,0.0,0.0,0.0,0.0,0.0,0.0,0.0,0.0,0.0,0.0,0.0,0.0,0.0,0.0,0.0,0.0,0.0,0.0,0.0,0.0,0.0,0.0,0.0,0.0,0.0,-3.373,-3.4414,-3.5469,-3.6016,-3.5996,-3.3965,-3.2168,0.0,0.0,0.0,0.0,0.0,0.0,0.0,0.0,0.0,0.0,0.0,0.0,0.0,0.0,0.0,0.0,0.0,0.0,0.0,0.0,0.0,0.0,0.0,0.0,0.0,0.0,0.0,0.0,0.0,0.0,0.0,0.0,0.0,0.0,0.0,0.0,0.0,0.0,0.0,0.0,0.0,0.0,0.0,0.0,0.0,0.0,0.0,0.0,-3.1816,0.0,0.0,0.0,0.0,0.0,0.0,0.0,0.0,0.0,0.0,0.0,0.0,0.0,0.0,0.0,0.0,0.0,0.0,0.0,0.0,0.0,0.0,0.0,0.0,0.0,0.0,0.0,0.0,0.0,0.0,0.0,0.0,0.0,0.0,0.0,0.0,0.0,0.0,0.0,0.0,0.0,0.0,0.0,0.0,0.0,0.0,0.0,0.0,0.0,0.0,0.0,0.0,0.0,0.0,0.0,0.0,0.0,0.0,0.0,-3.3809,-3.4687,-3.5547,-3.6016,-3.5957,-3.4707,-3.3223,0.0,0.0,0.0,0.0,0.0,0.0,0.0,0.0,0.0,0.0,0.0,0.0,0.0,0.0,0.0,0.0,0.0,0.0,0.0,0.0,0.0,0.0,0.0,0.0,0.0,0.0,0.0,0.0,0.0,0.0,0.0,0.0,0.0,0.0,0.0,0.0,0.0,0.0,0.0,0.0,0.0,0.0,0.0,0.0,0.0,0.0,0.0,0.0,0.0,0.0,0.0,0.0,0.0,0.0,0.0,0.0,0.0,0.0,0.0,0.0,0.0,0.0,0.0,0.0,0.0,0.0,0.0,0.0,0.0,0.0,0.0,0.0,0.0,0.0,0.0,0.0,0.0,0.0,0.0,0.0,0.0,0.0,0.0,0.0,0.0,0.0,0.0,0.0,0.0,0.0,0.0,0.0,0.0,0.0,0.0,0.0,0.0,0.0,0.0,0.0,0.0,0.0,0.0,0.0,0.0,0.0,0.0,-3.3066,-3.3887,-3.4883,-3.5625,-3.6016,-3.5976,-3.5156,-3.3984,-3.2422,0.0,0.0,0.0,0.0,0.0,0.0,0.0,0.0,0.0,0.0,0.0,0.0,0.0,0.0,0.0,0.0,0.0,0.0,0.0,0.0,0.0,0.0,0.0,0.0,0.0,0.0,0.0,0.0,0.0,0.0,0.0,0.0,0.0,0.0,0.0,0.0,0.0,0.0,-2.5792,-2.6361,0.0,0.0,0.0,0.0,0.0,0.0,0.0,0.0,-3.0879,0.0,0.0,0.0,0.0,0.0,0.0,0.0,0.0,0.0,0.0,0.0,0.0,0.0,0.0,0.0,0.0,0.0,0.0,0.0,0.0,0.0,0.0,0.0,0.0,0.0,0.0,0.0,0.0,0.0,0.0,0.0,0.0,0.0,0.0,0.0,0.0,0.0,0.0,0.0,0.0,0.0,0.0,0.0,0.0,0.0,0.0,0.0,0.0,0.0,0.0,0.0,0.0,0.0,0.0,0.0,0.0,-3.3164,-3.334,-3.416,-3.5742,-3.5918,-3.6016,-3.5996,-3.5156,-3.4219,-3.3184,0.0,0.0,0.0,0.0,0.0,0.0,0.0,0.0,0.0,0.0,0.0,0.0,0.0,0.0,0.0,0.0,0.0,0.0,0.0,0.0,0.0,0.0,0.0,0.0,0.0,0.0,0.0,0.0,0.0,0.0,0.0,0.0,0.0,0.0,0.0,0.0,0.0,0.0,0.0,-2.6172,-2.6436,0.0,0.0,0.0,0.0,0.0,0.0,0.0,0.0,-3.0098,0.0,0.0,0.0,0.0,0.0,0.0,0.0,0.0,0.0,0.0,0.0,0.0,0.0,0.0,0.0,0.0,0.0,0.0,0.0,0.0,0.0,0.0,0.0,0.0,0.0,0.0,0.0,0.0,0.0,0.0,0.0,0.0,0.0,0.0,0.0,0.0,0.0,0.0,0.0,0.0,0.0,0.0,0.0,0.0,0.0,0.0,0.0,0.0,0.0,0.0,0.0,0.0,0.0,0.0,0.0,-3.3359,-3.3828,-3.4687,-3.5957,-3.6016,-3.6016,-3.5996,-3.5156,-3.4297,0.0,0.0,0.0,0.0,0.0,0.0,0.0,0.0,0.0,0.0,0.0,0.0,0.0,0.0,0.0,0.0,0.0,0.0,0.0,0.0,0.0,0.0,0.0,0.0,0.0,0.0,0.0,0.0,0.0,0.0,0.0,0.0,0.0,0.0,0.0,0.0,0.0,0.0,0.0,0.0,-2.657,-2.6813,-2.8105,0.0,0.0,0.0,0.0,0.0,0.0,-3.0449,-2.957,0.0,0.0,0.0,0.0,0.0,0.0,0.0,0.0,0.0,0.0,0.0,0.0,0.0,0.0,0.0,0.0,0.0,0.0,0.0,0.0,0.0,0.0,0.0,0.0,0.0,0.0,0.0,0.0,0.0,0.0,0.0,0.0,0.0,0.0,0.0,0.0,0.0,0.0,0.0,0.0,0.0,0.0,0.0,0.0,0.0,0.0,0.0,0.0,0.0,0.0,0.0,0.0,0.0,0.0,0.0,-3.3398,-3.4238,-3.5117,-3.5957,-3.6016,-3.6016,-3.5996,-3.5,-3.4101,0.0,0.0,0.0,0.0,0.0,0.0,0.0,0.0,0.0,0.0,0.0,0.0,0.0,0.0,0.0,0.0,0.0,0.0,0.0,0.0,0.0,0.0,0.0,0.0,0.0,0.0,0.0,0.0,0.0,0.0,0.0,0.0,0.0,0.0,0.0,0.0,0.0,0.0,0.0,0.0,0.0,-2.7283,-2.8184,-2.8164,0.0,0.0,0.0,0.0,-3.0488,-3.0039,0.0,0.0,0.0,0.0,0.0,0.0,0.0,0.0,0.0,0.0,0.0,0.0,0.0,0.0,0.0,0.0,0.0,0.0,0.0,0.0,0.0,0.0,0.0,0.0,0.0,0.0,0.0,0.0,0.0,0.0,0.0,0.0,0.0,0.0,0.0,0.0,0.0,0.0,0.0,0.0,0.0,0.0,0.0,0.0,0.0,0.0,0.0,0.0,0.0,0.0,0.0,0.0,0.0,0.0,0.0,0.0,-3.3398,-3.4258,-3.5117,-3.5957,-3.6016,-3.6016,-3.5996,-3.4414,-3.3496,0.0,0.0,0.0,0.0,0.0,0.0,0.0,0.0,0.0,0.0,0.0,0.0,0.0,0.0,0.0,0.0,0.0,0.0,0.0,0.0,0.0,0.0,0.0,0.0,0.0,0.0,0.0,0.0,0.0,0.0,0.0,0.0,0.0,0.0,0.0,0.0,0.0,0.0,0.0,0.0,0.0,-2.7167,-2.8163,-2.7656,-2.7461,0.0,0.0,0.0,-2.9609,-2.9648,0.0,0.0,0.0,0.0,0.0,0.0,0.0,0.0,0.0,0.0,0.0,0.0,0.0,0.0,0.0,0.0,0.0,0.0,0.0,0.0,0.0,0.0,0.0,0.0,0.0,0.0,0.0,0.0,0.0,0.0,0.0,0.0,0.0,0.0,0.0,0.0,0.0,0.0,0.0,0.0,0.0,0.0,0.0,0.0,0.0,0.0,0.0,0.0,0.0,0.0,0.0,0.0,0.0,0.0,0.0,-3.3047,-3.3437,-3.4726,-3.5625,-3.5996,-3.6016,-3.6016,-3.6016,-3.4316,-3.3379,0.0,0.0,0.0,0.0,0.0,0.0,0.0,0.0,0.0,0.0,0.0,0.0,0.0,0.0,0.0,0.0,0.0,0.0,0.0,0.0,0.0,0.0,0.0,0.0,0.0,0.0,0.0,0.0,0.0,0.0,0.0,0.0,0.0,0.0,0.0,0.0,0.0,0.0,0.0,0.0,0.0,0.0,-2.8222,-2.7946,0.0,0.0,0.0,-2.8594,-2.9473,0.0,0.0,0.0,0.0,0.0,0.0,0.0,0.0,0.0,0.0,0.0,0.0,0.0,0.0,0.0,0.0,0.0,0.0,0.0,0.0,0.0,0.0,0.0,0.0,0.0,0.0,0.0,0.0,0.0,0.0,0.0,0.0,0.0,0.0,0.0,0.0,0.0,0.0,0.0,0.0,0.0,0.0,0.0,0.0,0.0,0.0,0.0,0.0,0.0,0.0,0.0,0.0,0.0,0.0,0.0,0.0,0.0,-3.3418,-3.5117,-3.6016,-3.6016,-3.6016,-3.6016,-3.5976,-3.4512,0.0,0.0,0.0,0.0,0.0,0.0,0.0,0.0,0.0,0.0,0.0,0.0,0.0,0.0,0.0,0.0,0.0,0.0,0.0,0.0,0.0,0.0,0.0,0.0,0.0,0.0,0.0,-2.5577,0.0,0.0,0.0,0.0,0.0,0.0,0.0,0.0,0.0,0.0,0.0,0.0,0.0,0.0,-2.8121,-2.8257,-2.8229,-2.8537,0.0,0.0,-2.8594,-2.9473,-2.9785,-2.957,0.0,0.0,0.0,0.0,0.0,0.0,0.0,0.0,0.0,0.0,0.0,0.0,0.0,0.0,0.0,0.0,0.0,0.0,0.0,0.0,0.0,0.0,0.0,0.0,0.0,0.0,0.0,0.0,0.0,0.0,0.0,0.0,0.0,0.0,0.0,0.0,0.0,0.0,0.0,0.0,0.0,0.0,0.0,0.0,0.0,0.0,0.0,0.0,0.0,0.0,0.0,0.0,0.0,0.0,0.0,-3.3457,-3.5117,-3.6016,-3.6016,-3.6016,-3.6016,-3.5996,-3.5098,-3.4238,0.0,0.0,0.0,0.0,0.0,0.0,0.0,0.0,0.0,0.0,0.0,0.0,0.0,0.0,0.0,0.0,0.0,0.0,0.0,0.0,0.0,0.0,0.0,0.0,0.0,0.0,0.0,0.0,0.0,0.0,0.0,0.0,0.0,0.0,0.0,0.0,0.0,0.0,0.0,0.0,0.0,-2.8052,-2.8175,-2.8198,-2.8537,0.0,0.0,-2.8594,-2.9453,-3.0273,-3.0234,-2.8574,0.0,0.0,0.0,0.0,0.0,0.0,0.0,0.0,0.0,0.0,0.0,0.0,0.0,0.0,0.0,0.0,0.0,0.0,0.0,0.0,0.0,0.0,0.0,0.0,0.0,0.0,0.0,0.0,0.0,0.0,0.0,0.0,0.0,0.0,0.0,0.0,0.0,0.0,0.0,0.0,0.0,0.0,0.0,0.0,0.0,0.0,0.0,0.0,0.0,0.0,0.0,0.0,0.0,-3.3379,-3.3418,-3.5098,-3.6016,-3.6016,-3.6016,-3.6016,-3.6016,-3.5137,-3.4277,0.0,0.0,0.0,0.0,0.0,0.0,0.0,0.0,0.0,0.0,0.0,0.0,0.0,0.0,0.0,0.0,0.0,0.0,0.0,0.0,0.0,0.0,0.0,0.0,0.0,0.0,0.0,0.0,-2.7217,-2.7796,-2.8819,0.0,0.0,0.0,0.0,0.0,0.0,0.0,0.0,0.0,0.0,-2.8206,-2.8904,-2.8932,0.0,0.0,-2.9219,-2.8906,-2.832,-2.9297,-2.9512,-2.7793,-2.75,0.0,0.0,0.0,0.0,0.0,0.0,0.0,0.0,0.0,0.0,0.0,0.0,0.0,0.0,0.0,0.0,0.0,0.0,0.0,0.0,0.0,0.0,0.0,0.0,0.0,0.0,0.0,0.0,0.0,0.0,0.0,0.0,0.0,0.0,0.0,0.0,0.0,0.0,0.0,0.0,0.0,0.0,0.0,0.0,0.0,0.0,0.0,0.0,0.0,0.0,0.0,0.0,-3.3379,-3.3398,-3.5117,-3.6016,-3.6016,-3.6016,-3.6016,-3.5996,-3.541,-3.4668,0.0,0.0,0.0,0.0,0.0,0.0,0.0,0.0,0.0,0.0,0.0,0.0,0.0,0.0,0.0,0.0,0.0,0.0,0.0,0.0,0.0,0.0,0.0,0.0,0.0,0.0,0.0,0.0,-2.7351,-2.807,-2.949,0.0,0.0,0.0,0.0,0.0,0.0,0.0,0.0,0.0,0.0,-2.8467,-2.9015,-2.8995,-2.9009,-2.9159,-2.8984,-2.8613,-2.8027,-2.8652,-2.8767,-2.7556,0.0,0.0,0.0,0.0,0.0,0.0,0.0,0.0,0.0,0.0,0.0,0.0,0.0,0.0,0.0,0.0,0.0,0.0,0.0,0.0,0.0,0.0,0.0,0.0,0.0,0.0,0.0,0.0,0.0,0.0,0.0,0.0,0.0,0.0,0.0,0.0,0.0,0.0,0.0,0.0,0.0,0.0,0.0,0.0,0.0,0.0,0.0,0.0,0.0,0.0,0.0,0.0,0.0,0.0,-3.3418,-3.5098,-3.6016,-3.6016,-3.6016,-3.6016,-3.6016,-3.5976,-3.5566,-3.4687,0.0,0.0,0.0,0.0,0.0,0.0,0.0,0.0,0.0,0.0,0.0,0.0,0.0,0.0,0.0,0.0,0.0,0.0,0.0,0.0,0.0,0.0,0.0,0.0,0.0,0.0,-2.5519,-2.6115,-2.6996,0.0,0.0,0.0,0.0,0.0,0.0,0.0,0.0,0.0,0.0,-2.803,-2.8835,-2.8229,-2.814,-2.84,-2.91,-2.8008,-2.7578,-2.8887,-2.8627,-2.8219,0.0,0.0,0.0,0.0,0.0,0.0,0.0,0.0,0.0,0.0,0.0,0.0,0.0,0.0,0.0,0.0,0.0,0.0,0.0,0.0,0.0,0.0,0.0,0.0,0.0,0.0,0.0,0.0,0.0,0.0,0.0,0.0,0.0,0.0,0.0,0.0,0.0,0.0,0.0,0.0,-3.4603,-3.4067,0.0,0.0,0.0,0.0,0.0,0.0,0.0,0.0,0.0,0.0,0.0,0.0,-3.3354,-3.3476,-3.5117,-3.6016,-3.6016,-3.6016,-3.6016,-3.6016,-3.6016,-3.5586,-3.4726,0.0,0.0,0.0,0.0,0.0,0.0,0.0,0.0,0.0,0.0,0.0,0.0,0.0,0.0,0.0,0.0,0.0,0.0,0.0,0.0,0.0,0.0,0.0,0.0,0.0,-2.6486,0.0,0.0,0.0,0.0,0.0,0.0,0.0,0.0,0.0,0.0,0.0,-2.6813,-2.7395,-2.7448,-2.7571,-2.7981,-2.8081,-2.832,0.0,0.0,0.0,0.0,0.0,0.0,0.0,0.0,0.0,0.0,0.0,0.0,0.0,0.0,-2.689,-2.6491,-2.6755,-2.6973,-2.6783,0.0,0.0,0.0,0.0,0.0,0.0,0.0,0.0,0.0,0.0,0.0,0.0,0.0,0.0,0.0,0.0,-3.7019,0.0,0.0,0.0,0.0,0.0,0.0,0.0,0.0,-3.6434,-3.6428,-3.6353,-3.5836,-3.5417,0.0,-3.3947,-3.289,0.0,0.0,0.0,0.0,0.0,0.0,0.0,0.0,-3.3328,-3.3476,-3.5117,-3.6016,-3.6016,-3.6016,-3.6016,-3.6016,-3.6016,-3.5723,-3.5156,-3.3516,-3.1953,0.0,0.0,0.0,0.0,0.0,0.0,0.0,0.0,0.0,0.0,0.0,0.0,0.0,0.0,0.0,0.0,0.0,0.0,0.0,0.0,0.0,0.0,0.0,-2.6736,0.0,0.0,0.0,0.0,0.0,0.0,0.0,0.0,0.0,-2.6621,-2.6871,-2.7255,-2.7838,-2.7664,-2.7494,-2.7566,0.0,0.0,0.0,0.0,0.0,0.0,0.0,-2.682,-2.6426,-2.6634,-2.7028,-2.7503,-2.7802,-2.7832,-2.7395,0.0,0.0,-2.7675,-2.7766,-2.7808,-2.7529,-2.7447,-2.7282,-2.6962,-2.6831,-2.676,0.0,0.0,0.0,0.0,0.0,0.0,0.0,0.0,-3.8046,-3.7584,0.0,-3.768,0.0,0.0,0.0,0.0,0.0,0.0,0.0,0.0,-3.9611,-3.9611,-3.8142,-3.8034,-3.7622,-3.6806,-3.5245,-3.4413,-3.4307,-3.3582,0.0,0.0,0.0,0.0,0.0,0.0,-3.3347,-3.3496,-3.5137,-3.6016,-3.6016,-3.6016,-3.6016,-3.6016,-3.6016,-3.5996,-3.5937,-3.4297,-3.3008,-3.2207,-2.9726,0.0,0.0,0.0,0.0,0.0,0.0,0.0,0.0,0.0,0.0,0.0,0.0,0.0,0.0,0.0,0.0,0.0,0.0,0.0,0.0,-2.6621,0.0,0.0,0.0,0.0,0.0,0.0,0.0,0.0,0.0,0.0,-2.6678,-2.7332,-2.7852,-2.789,0.0,0.0,0.0,0.0,-2.7554,-2.6073,-2.5853,-2.5892,-2.5812,-2.6511,-2.7289,-2.7978,0.0,0.0,-2.9135,-2.8492,-2.803,-2.7986,-2.864,-2.9055,-2.8797,-2.8382,-2.7969,-2.7687,-2.7536,-2.7244,-2.7019,-2.698,-2.6806,-3.8319,0.0,0.0,0.0,0.0,-3.7623,-3.8123,-3.8931,-3.8938,-3.8777,-3.8565,-3.8823,0.0,0.0,0.0,0.0,0.0,0.0,-3.8334,-3.8931,-3.9419,-3.9688,-3.9758,-3.9188,-3.8806,-3.8541,-3.7455,-3.6626,-3.6036,-3.5886,-3.4441,-3.1769,0.0,0.0,0.0,0.0,-3.3578,-3.4336,-3.543,-3.6016,-3.6016,-3.6016,-3.6016,-3.6016,-3.6016,-3.6016,-3.5996,-3.4316,-3.3027,-3.2207,-3.0293,0.0,0.0,0.0,0.0,0.0,0.0,0.0,0.0,0.0,0.0,0.0,0.0,0.0,0.0,0.0,0.0,0.0,0.0,0.0,-2.6621,-2.7159,-2.714,0.0,0.0,0.0,0.0,0.0,0.0,0.0,0.0,0.0,-2.7525,-2.7198,-2.7198,0.0,0.0,-2.6684,-2.7465,-2.7849,-2.8264,-2.893,0.0,0.0,0.0,-2.9748,-2.962,-2.9714,-2.9908,-3.0051,-3.0031,-2.9827,-2.9673,-2.9673,-2.9885,-3.0006,-2.9929,-2.9794,-2.9538,-2.9186,-2.9022,-2.8848,-2.8482,-2.8353,-2.8308,-4.0582,-3.9539,-3.8524,-3.8239,-3.8507,-3.8527,-3.9015,-3.9785,-3.9785,-3.9611,-3.9323,-3.9631,-3.9123,-3.8007,-3.8007,0.0,0.0,0.0,-3.895,-3.9785,-3.9785,-4.0054,-4.0439,-3.9996,-3.9765,-3.9719,-3.8911,-3.8238,-3.7719,-3.7109,-3.5784,-3.3705,0.0,0.0,-3.2338,-3.3204,-3.3954,-3.4625,-3.5498,-3.5971,-3.5951,-3.5976,-3.6016,-3.6016,-3.6016,-3.6016,-3.5976,-3.4648,-3.3535,-3.2695,-3.1055,-2.9473,0.0,0.0,0.0,0.0,0.0,0.0,0.0,0.0,0.0,0.0,0.0,-2.6511,-2.5885,0.0,0.0,0.0,-2.7414,-2.7101,-2.7101,-2.7274,0.0,0.0,0.0,0.0,0.0,0.0,0.0,-2.73,-2.767,-2.8025,-2.8319,-2.7915,-2.7909,-2.8775,-2.8,-2.7713,-2.8791,0.0,-2.9573,-2.9745,-3.0261,-3.097,-3.1799,-3.1507,-3.1216,-3.1404,-3.142,-3.141,-3.1385,-3.1385,-3.1385,-3.1385,-3.1404,-3.1404,-3.1385,-3.1404,-3.0995,-2.9939,-2.9705,-2.9542,-2.9082,-2.8987,-2.8987,-4.3061,-4.2,-3.9646,-3.8953,-3.9384,-3.9422,-3.9819,-4.0477,-4.0496,-4.0092,-3.9477,-4.0189,-3.965,-3.8219,-3.82,0.0,0.0,-3.9373,-3.9785,-4.0496,-4.0496,-4.0496,-4.0496,-4.0496,-4.0496,-4.0496,-3.9746,-3.9361,-3.9207,-3.768,-3.6827,-3.6661,-3.5214,-3.41,-3.3384,-3.4037,-3.451,-3.4704,-3.5502,-3.5884,-3.5908,-3.5973,-3.6016,-3.6016,-3.6016,-3.6016,-3.5976,-3.5156,-3.4297,-3.3418,-3.1855,-3.0586,-2.9609,0.0,0.0,0.0,0.0,0.0,0.0,0.0,0.0,0.0,0.0,0.0,0.0,0.0,0.0,0.0,-2.7928,0.0,-2.8011,-2.7274,0.0,0.0,0.0,-2.6388,-2.5592,-2.6979,-2.8662,-3.0406,0.0,0.0,0.0,0.0,-2.966,-3.0577,-3.0519,-3.0469,-3.0661,-3.1318,-3.1216,-2.968,-3.028,-3.1394,-3.2551,-3.2484,-3.2535,-3.3073,-3.3091,-3.2955,-3.2929,-3.2814,-3.2891,-3.2795,-3.2891,-3.2852,-3.2872,-3.2776,-3.2286,-3.0328,-2.9969,-2.9805,-2.9411,-2.9317,-2.9335,-4.3501,-4.3185,-4.2585,-4.1567,-4.0378,-4.0372,-4.0416,-4.0496,-4.0496,-4.04,-4.0227,-4.0419,-4.0265,-3.9919,-3.99,-4.0015,-4.0227,-4.0208,-4.0304,-4.0496,-4.0496,-4.0496,-4.0496,-4.0496,-4.0496,-4.0477,-4.0304,-3.99,-3.9304,-3.888,-3.8007,-3.6738,-3.6311,-3.6067,-3.5949,-3.5528,-3.5674,-3.6397,-3.6087,-3.5917,-3.5974,-3.5976,-3.6016,-3.6016,-3.6016,-3.6016,-3.5996,-3.5156,-3.4297,-3.3437,-3.2422,-3.1211,-2.9668,-2.8594,0.0,0.0,0.0,0.0,0.0,0.0,0.0,0.0,0.0,-2.6883,-2.7041,0.0,-2.6776,0.0,-2.8184,-2.8819,-2.88,-2.8626,0.0,0.0,-2.7722,-2.7505,-2.7322,-2.8198,-2.9726,-3.2047,-3.0835,-3.0135,-3.0987,-3.1083,-3.1621,-3.3026,-3.1615,-3.0858,-3.2087,-3.2472,-3.2665,-3.2671,-3.3517,-3.4476,-3.4597,-3.4693,-3.4634,-3.4867,-3.4353,-3.3898,-3.3898,-3.3333,-3.2891,-3.2891,-3.2891,-3.2891,-3.2949,-3.2891,-3.2649,-3.182,-3.16,-3.1447,-3.0941,-3.0815,-3.0815,-4.5193,-4.4774,-4.4384,-4.3348,-4.1952,-4.151,-4.1269,-4.1137,-4.0763,-4.0559,-4.0496,-4.0496,-4.0496,-4.0496,-4.0496,-4.0496,-4.0496,-4.0496,-4.0496,-4.0496,-4.0496,-4.0496,-4.0496,-4.0496,-4.0496,-4.0496,-4.0496,-4.0285,-3.9861,-3.9842,-3.9335,-3.8411,-3.8392,-3.8443,-3.8415,-3.6548,-3.5822,-3.6328,-3.6002,-3.5855,-3.5949,-3.5976,-3.582,-3.543,-3.541,-3.5234,-3.4844,-3.4375,-3.3555,-3.2363,-3.1855,-3.082,-2.9121,-2.8203,-2.75,0.0,0.0,0.0,0.0,0.0,0.0,0.0,0.0,0.0,0.0,0.0,-2.7303,0.0,-2.8434,0.0,-2.8602,-2.8549,-2.853,-2.8434,-2.8434,-2.8582,-2.8969,-2.975,-3.0927,-3.2682,-3.2088,-3.1827,-3.2699,-3.2814,-3.3295,-3.4603,-3.3558,-3.3,-3.3827,-3.4058,-3.4173,-3.4526,-3.5123,-3.554,-3.5488,-3.55,-3.55,-3.5462,-3.5096,-3.4776,-3.4757,-3.4391,-3.4064,-3.4058,-3.4064,-3.4045,-3.4064,-3.4058,-3.3901,-3.3477,-3.3298,-3.2843,-3.1679,-3.1403,-3.1403,-4.7324,-4.6562,-4.5703,-4.4859,-4.4013,-4.2944,-4.2361,-4.2125,-4.1354,-4.0881,-4.0669,-4.0669,-4.0612,-4.0496,-4.0496,-4.0496,-4.0496,-4.0496,-4.0496,-4.0496,-4.0496,-4.0496,-4.0496,-4.0496,-4.0496,-4.0496,-4.0496,-4.0496,-4.0496,-4.0496,-4.0458,-4.0342,-4.0342,-4.0285,-4.0073,-3.7276,-3.5821,-3.5849,-3.5853,-3.588,-3.588,-3.5855,-3.541,-3.459,-3.4531,-3.418,-3.3437,-3.3379,-3.2617,-3.1016,-3.0918,-3.0156,-2.8555,-2.7637,-2.7207,0.0,-2.6523,0.0,0.0,0.0,0.0,0.0,0.0,0.0,0.0,-2.8041,-2.8078,-2.8065,-2.8703,-2.8876,-2.8275,-2.8217,-2.8549,-2.9338,-2.9434,-2.9687,-3.0349,-3.1276,-3.2218,-3.3128,-3.3141,-3.3391,-3.4199,-3.4379,-3.468,-3.5288,-3.5327,-3.5212,-3.5442,-3.5385,-3.5385,-3.55,-3.55,-3.552,-3.5488,-3.55,-3.55,-3.55,-3.5462,-3.55,-3.5442,-3.5423,-3.5442,-3.5442,-3.5365,-3.5404,-3.55,-3.5442,-3.5255,-3.469,-3.4543,-3.3953,-3.2354,-3.1861,-3.1709,-4.8555,-4.832,-4.7461,-4.6992,-4.6717,-4.5133,-4.3962,-4.3115,-4.2845,-4.2298,-4.1566,-4.1546,-4.1181,-4.0516,-4.0496,-4.0496,-4.0496,-4.0496,-4.0496,-4.0496,-4.0496,-4.0496,-4.0496,-4.0496,-4.0496,-4.0496,-4.0496,-4.0496,-4.0496,-4.0496,-4.0169,-3.9534,-3.9534,-3.9169,0.0,0.0,0.0,0.0,-3.7048,-3.6472,-3.5914,-3.5288,-3.4531,-3.3672,-3.3652,0.0,-3.3398,-3.3379,-3.2637,-3.1016,-3.0918,0.0,0.0,0.0,0.0,0.0,0.0,0.0,0.0,0.0,0.0,0.0,-2.8125,-2.8048,-2.8,-2.796,-2.8198,-2.8824,-2.9011,-2.9313,-2.9885,-2.9923,-3.0269,-3.1102,-3.1198,-3.1007,-3.0541,-3.1751,-3.3244,-3.4809,-3.4392,-3.4276,-3.5058,-3.525,-3.5288,-3.5442,-3.55,-3.55,-3.55,-3.55,-3.55,-3.55,-3.55,-3.55,-3.55,-3.55,-3.55,-3.55,-3.55,-3.55,-3.55,-3.55,-3.55,-3.55,-3.55,-3.55,-3.55,-3.55,-3.5346,-3.4793,-3.4694,-3.4433,-3.3522,-3.333,-3.3348,-4.9551,0.0,-4.8613,-4.8242,0.0,-4.7305,-4.6362,-4.5371,-4.4007,-4.3038,-4.2507,-4.246,-4.22,-4.1766,-4.1335,-4.1143,-4.1123,-4.0708,-4.0496,-4.0496,-4.0496,-4.0496,-4.0496,-4.0496,-4.0496,-4.0496,-4.0496,-4.0496,-4.0496,-4.0496,-4.0285,-3.99,-3.99,-3.9669,-3.9238,-3.9238,-3.884,-3.8061,-3.7723,-3.7179,-3.6473,-3.6084,-3.5288,-3.4101,0.0,0.0,0.0,0.0,0.0,0.0,0.0,0.0,0.0,0.0,0.0,-2.8906,-2.8555,-2.8476,-2.8906,-2.8926,-2.9121,-2.9551,-2.9509,-2.9247,-2.8686,-2.8971,-2.9336,-2.9709,-3.0121,-3.0564,-3.0981,-3.1385,-3.1808,-3.2237,-3.2295,-3.2205,-3.2206,-3.2955,-3.4052,-3.5193,-3.5129,-3.5026,-3.5423,-3.55,-3.55,-3.55,-3.55,-3.55,-3.55,-3.55,-3.55,-3.55,-3.55,-3.55,-3.55,-3.55,-3.55,-3.55,-3.55,-3.55,-3.55,-3.55,-3.55,-3.55,-3.55,-3.55,-3.55,-3.55,-3.5395,-3.499,-3.4784,-3.4551,-3.4111,-3.3889,-3.3721,-5.041,-5.0332,-4.9492,-4.9141,-4.9101,-4.8965,-4.8496,-4.7656,0.0,0.0,0.0,-4.3335,-4.3239,-4.3047,-4.2354,-4.2019,-4.1981,-4.1277,-4.0881,-4.0746,-4.0727,-4.065,-4.0496,-4.0496,-4.0496,-4.0496,-4.0496,-4.0496,-4.0496,-4.0496,-4.0496,-4.0496,-4.0496,-4.0496,-4.0496,-4.0496,-3.9823,-3.8496,-3.8369,-3.7957,-3.7222,-3.6988,-3.6186,-3.4725,-3.4551,-3.4121,-3.3437,-3.3379,-3.2715,-3.123,-3.1133,-3.041,-2.8887,-2.8769,-2.8769,-2.875,-2.875,-2.9062,-2.9785,-2.9844,-3.0215,-3.1074,-3.1028,-3.0547,-2.9611,-3.0265,-3.0699,-3.0646,-3.141,-3.191,-3.1929,-3.2487,-3.2968,-3.3103,-3.3122,-3.3391,-3.3981,-3.4295,-3.4718,-3.5346,-3.5462,-3.5481,-3.5481,-3.55,-3.55,-3.55,-3.55,-3.55,-3.55,-3.55,-3.55,-3.55,-3.55,-3.55,-3.55,-3.55,-3.55,-3.55,-3.55,-3.55,-3.55,-3.55,-3.55,-3.55,-3.55,-3.55,-3.55,-3.55,-3.5383,-3.5107,-3.4851,-3.4591,-3.4206,-3.3948,-3.3707,-5.1211,-5.1152,-5.0351,-5.0019,-4.9961,-4.9219,-4.8828,-4.8535,-4.649,-4.5109,-4.4324,-4.4183,-4.3739,-4.3085,-4.297,-4.2931,-4.2912,-4.2777,-4.2354,0.0,-4.1615,-4.1219,-4.0516,-4.0496,-4.0496,-4.0496,-4.0496,-4.0496,-4.0496,-4.0496,-4.0496,-4.0496,-4.0496,-4.0496,-4.0496,-4.0496,-4.0381,-4.0131,-3.9535,-3.8802,-3.7943,-3.6719,-3.5621,-3.4654,-3.398,-3.3535,-3.3398,-3.3418,-3.2988,-3.207,-3.2031,-3.1562,-3.0605,-3.0547,-3.0527,-3.0527,-3.0527,-3.0605,-3.0703,-3.0723,-3.1094,-3.1914,-3.1992,-3.153,-3.0559,-3.1158,-3.1589,-3.1543,-3.2256,-3.2737,-3.2737,-3.2872,-3.3295,-3.391,-3.4013,-3.4353,-3.5096,-3.525,-3.5308,-3.5462,-3.55,-3.55,-3.55,-3.55,-3.55,-3.55,-3.55,-3.55,-3.55,-3.55,-3.55,-3.55,-3.55,-3.55,-3.55,-3.55,-3.55,-3.55,-3.55,-3.55,-3.55,-3.55,-3.55,-3.55,-3.55,-3.55,-3.55,-3.55,-3.5297,-3.4917,-3.4734,-3.4516,-3.4024,-3.3837,-3.3766,-5.1387,-5.1367,-5.1016,-5.0859,-5.0781,-4.9961,-4.959,-4.9473,-4.806,-4.6871,-4.5952,-4.5376,-4.4874,-4.444,-4.3951,-4.3739,-4.3739,-4.3297,-4.2874,-4.2489,-4.2,-4.1577,-4.1181,-4.0727,-4.0496,-4.0496,-4.0496,-4.0496,-4.0496,-4.0496,-4.0496,-4.0496,-4.0496,-4.0496,-4.0496,-4.0496,-4.0496,-4.0496,-4.0167,-3.965,-3.8928,-3.8272,-3.732,-3.6122,-3.5682,-3.5293,-3.4824,-3.4805,-3.4434,-3.3594,-3.3555,-3.3164,-3.2324,-3.2246,-3.2246,-3.2246,-3.2246,-3.2266,-3.2246,-3.2246,-3.2422,-3.2812,-3.2871,-3.2632,-3.2114,-3.237,-3.2492,-3.2402,-3.3103,-3.359,-3.3628,-3.4026,-3.4481,-3.4853,-3.4891,-3.5064,-3.5404,-3.55,-3.55,-3.55,-3.55,-3.55,-3.55,-3.55,-3.55,-3.55,-3.55,-3.55,-3.55,-3.55,-3.55,-3.55,-3.55,-3.55,-3.5481,-3.55,-3.55,-3.55,-3.55,-3.55,-3.55,-3.55,-3.55,-3.55,-3.55,-3.55,-3.55,-3.5369,-3.5182,-3.5008,-3.4614,-3.4311,-3.4056,-3.3747,-3.3404,-5.1562,-5.1387,-5.1387,-5.1387,-5.1348,-5.0723,-5.0469,-5.0371,-4.9441,-4.8577,-4.7751,-4.6618,-4.6037,-4.5852,-4.5004,-4.4586,-4.4509,-4.3951,-4.3566,-4.3316,-4.2681,-4.2269,-4.2008,-4.1181,-4.0777,-4.0766,-4.0612,-4.0496,-4.0496,-4.0496,-4.0496,-4.0496,-4.0496,-4.0496,-4.0496,-4.0496,-4.0496,-4.0496,-4.0496,-4.0268,-3.983,-3.9675,-3.9029,-3.7918,-3.746,-3.6973,-3.6328,-3.6113,-3.5684,-3.5039,-3.5,-3.459,-3.3789,-3.3711,-3.3613,-3.3437,-3.3379,-3.3379,-3.3379,-3.3379,-3.3496,-3.3691,-3.3691,-3.3728,-3.3861,-3.3807,-3.3592,-3.3384,-3.3994,-3.4494,-3.4545,-3.5045,-3.55,-3.55,-3.55,-3.5462,-3.55,-3.55,-3.55,-3.55,-3.55,-3.55,-3.55,-3.55,-3.55,-3.55,-3.55,-3.55,-3.55,-3.55,-3.55,-3.55,-3.55,-3.5508,-3.5502,-3.552,-3.5508,-3.5521,-3.5527,-3.5507,-3.55,-3.55,-3.55,-3.55,-3.55,-3.55,-3.5467,-3.5361,-3.5174,-3.499,-3.4645,-3.4311,-3.4074,-3.362,-3.3075,-5.2129,-5.1445,-5.1406,-5.1387,-5.1387,-5.1308,-5.125,-5.1172,-5.043,-4.9952,-4.9513,-4.78,-4.6978,-4.6841,-4.5899,-4.5479,-4.5441,-4.5402,-4.4913,-4.4239,-4.4124,-4.3701,-4.2931,-4.2104,-4.1673,-4.1566,-4.0912,-4.0554,-4.0496,-4.0496,-4.0496,-4.0496,-4.0496,-4.0496,-4.0496,-4.0496,-4.0496,-4.0496,-4.0496,-4.0473,-4.0391,-3.9878,-3.9533,-3.9376,-3.803,-3.7266,-3.7129,-3.6406,-3.5957,-3.5898,-3.5859,-3.5488,-3.4707,-3.457,-3.4238,-3.3516,-3.3418,-3.3379,-3.3418,-3.3379,-3.3789,-3.4473,-3.457,-3.4861,-3.5498,-3.5499,-3.5084,-3.4507,-3.4904,-3.5276,-3.5365,-3.5442,-3.55,-3.55,-3.55,-3.55,-3.55,-3.55,-3.55,-3.55,-3.55,-3.55,-3.5558,-3.5596,-3.5538,-3.55,-3.55,-3.55,-3.55,-3.5596,-3.5558,-3.5538,-3.5526,-3.5599,-3.5606,-3.554,-3.5534,-3.5579,-3.5547,-3.5515,-3.5514,-3.55,-3.55,-3.55,-3.55,-3.55,-3.55,-3.5446,-3.5273,-3.4889,-3.4632,-3.4453,-3.3961,-3.3522,-3.3045,-5.25,-5.2129,-5.1601,-5.1387,-5.1387,-5.1387,-5.1387,-5.1348,-5.1055,-5.0897,-5.0674,-4.9393,-4.819,-4.7088,-4.6582,-4.6105,-4.5614,-4.5594,-4.5421,-4.5017,-4.4547,-4.4124,-4.3739,-4.2951,-4.2335,-4.1808,-4.1431,-4.0997,-4.0573,-4.0496,-4.0496,-4.0496,-4.0496,-4.0496,-4.0496,-4.0496,-4.0496,-4.0496,-4.0496,-4.0496,-4.0488,-4.0351,-4.006,-3.9661,-3.905,-3.8236,-3.7383,-3.6934,-3.6543,-3.6074,-3.6016,-3.584,-3.5508,-3.5469,-3.5312,-3.4961,-3.4941,-3.4922,-3.4941,-3.4941,-3.5098,-3.5449,-3.5469,-3.5644,-3.5912,-3.5882,-3.5608,-3.5278,-3.5355,-3.55,-3.55,-3.55,-3.55,-3.55,-3.55,-3.55,-3.55,-3.55,-3.55,-3.55,-3.55,-3.5731,-3.6096,-3.6212,-3.6,-3.5654,-3.55,-3.5577,-3.5538,-3.5904,-3.5974,-3.5757,-3.6338,-3.6545,-3.591,-3.5588,-3.5596,-3.5599,-3.5582,-3.5564,-3.5515,-3.5488,-3.55,-3.55,-3.55,-3.55,-3.55,-3.5327,-3.5122,-3.4773,-3.4337,-3.4062,-3.3847,-3.348,-3.306,-5.3105,-5.2598,-5.1758,-5.1387,-5.1387,-5.1387,-5.1387,-5.1387,-5.1387,-5.1387,-5.1328,-5.0624,-4.9455,-4.7944,-4.726,-4.6593,-4.6034,-4.5744,-4.5594,-4.5518,-4.4913,-4.4671,-4.4566,-4.3816,-4.3104,-4.2508,-4.2,-4.1335,-4.0593,-4.0496,-4.0496,-4.0496,-4.0496,-4.0496,-4.0496,-4.0496,-4.0496,-4.0496,-4.0496,-4.0496,-4.0519,-4.0636,-4.0485,-4.004,-3.9796,-3.916,-3.8086,-3.7539,-3.7012,-3.6387,-3.6133,-3.6016,-3.6016,-3.6016,-3.6016,-3.6016,-3.6016,-3.6016,-3.6016,-3.6016,-3.6016,-3.6016,-3.6016,-3.6016,-3.5996,-3.5944,-3.5958,-3.6054,-3.5943,-3.5836,-3.5526,-3.55,-3.5577,-3.575,-3.5827,-3.5885,-3.6173,-3.6192,-3.625,-3.6192,-3.6346,-3.6385,-3.6904,-3.7046,-3.6865,-3.6404,-3.625,-3.6173,-3.6231,-3.6712,-3.6885,-3.6493,-3.7507,-3.7485,-3.6392,-3.6391,-3.626,-3.603,-3.6093,-3.5936,-3.5636,-3.5528,-3.5508,-3.5515,-3.5501,-3.55,-3.55,-3.5304,-3.5051,-3.4704,-3.4255,-3.3842,-3.382,-3.3536,-3.3211,-5.4219,-5.2656,-5.1758,-5.1426,-5.1387,-5.1387,-5.1387,-5.1387,-5.1387,-5.1387,-5.1387,-5.121,-5.0657,-4.9706,-4.8033,-4.7107,-4.6886,-4.6078,-4.5642,-4.5614,-4.5518,-4.5518,-4.5498,-4.4662,-4.4201,-4.3874,-4.2643,-4.1508,-4.0612,-4.0516,-4.0496,-4.0496,-4.0496,-4.0496,-4.0496,-4.0496,-4.0496,-4.0496,-4.0496,-4.0496,-4.0512,-4.063,-4.0707,-4.0614,-4.0084,-3.9727,-3.9531,-3.8184,-3.7305,-3.7266,-3.6484,-3.6055,-3.6035,-3.6016,-3.6016,-3.6016,-3.6016,-3.6016,-3.6016,-3.6016,-3.6016,-3.6016,-3.6074,-3.6055,-3.6152,-3.6181,-3.6395,-3.6897,-3.6886,-3.6518,-3.5836,-3.5802,-3.6,-3.6577,-3.6654,-3.7007,-3.7719,-3.7623,-3.7853,-3.7796,-3.7757,-3.7738,-3.7892,-3.793,-3.7873,-3.7757,-3.7796,-3.7719,-3.7661,-3.7815,-3.8027,-3.8269,-3.8337,-3.803,-3.7541,-3.7435,-3.7553,-3.7331,-3.6911,-3.6639,-3.6018,-3.5585,-3.5602,-3.5522,-3.5501,-3.55,-3.55,-3.5369,-3.5122,-3.4735,-3.4208,-3.3881,-3.382,-3.3807,-3.3536,-5.4277,-5.2695,-5.2363,-5.1914,-5.1406,-5.1387,-5.1387,-5.1387,-5.1387,-5.1387,-5.1387,-5.1348,-5.1166,-5.0813,-4.9541,-4.8258,-4.7127,-4.6716,-4.6206,-4.567,-4.5594,-4.5594,-4.5575,-4.5267,-4.4797,-4.4259,-4.3662,-4.2681,-4.1373,-4.0796,-4.0496,-4.0496,-4.0496,-4.0496,-4.0496,-4.0496,-4.0496,-4.0496,-4.0496,-4.0496,-4.0496,-4.0545,-4.0654,-4.0774,-4.0649,-4.0333,-3.9902,-3.9277,-3.8711,-3.8164,-3.7305,-3.6836,-3.6797,-3.6309,-3.6016,-3.6016,-3.6016,-3.6016,-3.6016,-3.6016,-3.6016,-3.6055,-3.6523,-3.6836,-3.6934,-3.7303,-3.7701,-3.7849,-3.7824,-3.7565,-3.7342,-3.7141,-3.7219,-3.745,-3.7546,-3.7661,-3.7911,-3.8007,-3.8007,-3.8084,-3.843,-3.8642,-3.8315,-3.8469,-3.8604,-3.8123,-3.8007,-3.8065,-3.8123,-3.845,-3.8854,-3.895,-3.9414,-3.9807,-3.9715,-3.8736,-3.8248,-3.8096,-3.783,-3.7371,-3.6828,-3.6508,-3.6475,-3.5798,-3.5649,-3.5558,-3.557,-3.5215,-3.5008,-3.4774,-3.422,-3.3902,-3.3807,-3.3807,-3.3625,-5.4609,-5.3555,-5.293,-5.2383,-5.1816,-5.1523,-5.1387,-5.1387,-5.1387,-5.1387,-5.1387,-5.1387,-5.1387,-5.1289,-5.0733,-4.9603,-4.8029,-4.7409,-4.6735,-4.6097,-4.5764,-4.5594,-4.5594,-4.5594,-4.5325,-4.4739,-4.4412,-4.3431,-4.1923,-4.1219,-4.0785,-4.0516,-4.0496,-4.0496,-4.0496,-4.0496,-4.0496,-4.0496,-4.0496,-4.0496,-4.0504,-4.0537,-4.0617,-4.0757,-4.0911,-4.0801,-4.0332,-4.0059,-3.9648,-3.9004,-3.8203,-3.7715,-3.7656,-3.7168,-3.6836,-3.6836,-3.6855,-3.6836,-3.6836,-3.6836,-3.6855,-3.6855,-3.7363,-3.7734,-3.7773,-3.8262,-3.8594,-3.8736,-3.8769,-3.8754,-3.8938,-3.8871,-3.87,-3.8488,-3.8411,-3.8546,-3.8784,-3.8834,-3.8854,-3.895,-3.9335,-3.9361,-3.9015,-3.9381,-3.9381,-3.8873,-3.8796,-3.8803,-3.8919,-3.9246,-3.9631,-3.948,-4.0117,-4.055,-4.0555,-3.988,-3.9258,-3.9082,-3.8887,-3.8356,-3.7753,-3.7478,-3.6997,-3.6265,-3.5843,-3.5732,-3.5476,-3.5098,-3.487,-3.4714,-3.4364,-3.4012,-3.3921,-3.3807,-3.3652,-5.5293,-5.4941,-5.3437,-5.2715,-5.248,-5.1719,-5.1387,-5.1387,-5.1387,-5.1387,-5.1387,-5.1387,-5.1387,-5.1387,-5.1269,-5.0793,-4.9728,-4.8166,-4.7243,-4.6886,-4.6028,-4.5631,-4.5594,-4.5594,-4.5575,-4.5421,-4.4682,-4.3489,-4.2104,-4.1769,-4.1316,-4.0681,-4.0554,-4.0496,-4.0496,-4.0496,-4.0496,-4.0496,-4.0496,-4.0496,-4.0512,-4.0603,-4.0674,-4.0718,-4.087,-4.1008,-4.1094,-4.0391,-4.0,-3.9844,-3.9082,-3.8613,-3.8516,-3.8398,-3.8496,-3.8379,-3.8476,-3.8516,-3.8476,-3.8398,-3.832,-3.8359,-3.8535,-3.8594,-3.8555,-3.875,-3.9099,-3.9582,-3.9675,-3.9846,-4.0383,-4.0345,-4.0011,-3.9457,-3.9304,-3.9573,-4.0131,-4.0419,-4.0458,-4.0342,-4.0362,-4.0458,-4.0458,-4.0342,-4.0227,-4.0208,-4.0189,-4.015,-4.0092,-4.0208,-4.0419,-4.0448,-4.0566,-4.077,-4.0905,-4.0918,-4.0488,-4.0137,-3.9941,-3.9561,-3.8758,-3.8296,-3.7657,-3.6919,-3.6087,-3.5905,-3.5549,-3.5198,-3.499,-3.4793,-3.4423,-3.4129,-3.3999,-3.3902,-3.3834,-5.5859,-5.5195,-5.4082,-5.3242,-5.2637,-5.1777,-5.1387,-5.1387,-5.1387,-5.1387,-5.1387,-5.1387,-5.1387,-5.1387,-5.1387,-5.123,-5.0853,-4.9625,-4.8394,-4.7165,-4.6174,-4.5696,-4.561,-4.5594,-4.5594,-4.546,-4.4701,-4.4066,-4.3393,-4.2365,-4.1643,-4.1354,-4.0766,-4.0516,-4.0496,-4.0496,-4.0496,-4.0496,-4.0496,-4.0496,-4.0496,-4.0537,-4.0603,-4.0697,-4.0752,-4.0878,-4.1031,-4.0876,-4.0801,-4.0762,-3.9961,-3.9238,-3.875,-3.8613,-3.8613,-3.8613,-3.8613,-3.8613,-3.8613,-3.8633,-3.8672,-3.873,-3.9141,-3.9336,-3.9297,-3.9902,-4.0391,-4.0664,-4.0631,-4.0662,-4.0716,-4.0682,-4.0448,-4.0165,-4.0131,-4.0169,-4.0419,-4.0496,-4.0496,-4.0496,-4.0496,-4.0496,-4.0496,-4.0496,-4.0496,-4.0496,-4.0496,-4.0496,-4.0496,-4.0496,-4.0496,-4.0508,-4.0679,-4.0809,-4.0889,-4.0996,-4.0898,-4.0664,-4.0566,-4.0391,-3.9671,-3.9165,-3.8471,-3.7482,-3.6645,-3.5975,-3.5626,-3.5339,-3.5122,-3.486,-3.4553,-3.4323,-3.4129,-3.3974,-3.3855,-5.6289,-5.5703,-5.4844,-5.3984,-5.3125,-5.2246,-5.168,-5.1426,-5.1387,-5.1387,-5.1387,-5.1387,-5.1387,-5.1387,-5.1387,-5.1387,-5.1308,-5.048,-4.9393,-4.8088,-4.6803,-4.6105,-4.5764,-4.5665,-4.5643,-4.5526,-4.5056,-4.4624,-4.422,-4.2989,-4.2124,-4.172,-4.0931,-4.0496,-4.0496,-4.0496,-4.0496,-4.0496,-4.0496,-4.0496,-4.0496,-4.0496,-4.053,-4.0623,-4.0667,-4.0752,-4.0896,-4.1044,-4.115,-4.1113,-4.0664,-4.0117,-3.9609,-3.9609,-3.9551,-3.957,-3.957,-3.9609,-3.957,-3.9668,-3.957,-3.9668,-4.0078,-4.0312,-4.0254,-4.0898,-4.1172,-4.1191,-4.1059,-4.0962,-4.087,-4.0767,-4.0661,-4.0595,-4.0496,-4.0504,-4.0496,-4.0496,-4.0496,-4.0496,-4.0496,-4.0496,-4.0496,-4.0496,-4.0496,-4.0496,-4.0496,-4.0496,-4.0496,-4.0496,-4.05,-4.0537,-4.0673,-4.0782,-4.0841,-4.0996,-4.1172,-4.1133,-4.1055,-4.084,-4.0384,-4.0185,-3.9689,-3.8079,-3.6986,-3.615,-3.5729,-3.5475,-3.5239,-3.4962,-3.4706,-3.4456,-3.4218,-3.3948,-3.3815,-5.6601,-5.6484,-5.5644,-5.4726,-5.3867,-5.3008,-5.2148,-5.1465,-5.1387,-5.1387,-5.1387,-5.1387,-5.1387,-5.1387,-5.1387,-5.1387,-5.1269,-5.0722,-5.0169,-4.9393,-4.8063,-4.679,-4.5942,-4.5803,-4.5715,-4.5601,-4.5537,-4.5152,-4.4489,-4.3605,-4.272,-4.195,-4.1162,-4.0535,-4.0516,-4.0496,-4.0496,-4.0496,-4.0496,-4.0496,-4.0496,-4.0496,-4.0504,-4.0519,-4.0616,-4.0692,-4.0751,-4.0916,-4.1078,-4.1172,-4.1113,-4.1035,-4.1113,-4.1172,-4.1016,-4.0957,-4.1152,-4.1035,-4.1113,-4.0898,-4.0937,-4.0937,-4.0976,-4.1191,-4.1094,-4.1094,-4.1191,-4.1191,-4.1083,-4.1002,-4.0955,-4.0856,-4.0735,-4.068,-4.0581,-4.0504,-4.0496,-4.0496,-4.0496,-4.0496,-4.0496,-4.0496,-4.0496,-4.0496,-4.0496,-4.0496,-4.0496,-4.0496,-4.0496,-4.05,-4.0496,-4.0577,-4.0675,-4.0777,-4.0861,-4.1035,-4.1191,-4.1191,-4.1191,-4.1094,-4.0801,-4.0602,-4.0096,-3.8542,-3.7243,-3.6434,-3.5839,-3.5547,-3.5369,-3.5179,-3.4916,-3.4595,-3.4334,-3.4093,-3.385,-5.6621,-5.6504,-5.5664,-5.4805,-5.3945,-5.3066,-5.2207,-5.1465,-5.1406,-5.1387,-5.1387,-5.1387,-5.1387,-5.1387,-5.1387,-5.1387,-5.1328,-5.1172,-5.0703,-5.0014,-4.8916,-4.7343,-4.6114,-4.5828,-4.5733,-4.5618,-4.5593,-4.5498,-4.521,-4.4335,-4.3528,-4.2739,-4.1835,-4.1104,-4.0631,-4.0535,-4.0496,-4.0496,-4.0496,-4.0496,-4.0496,-4.0496,-4.0496,-4.0496,-4.053,-4.0603,-4.0709,-4.0899,-4.1055,-4.1191,-4.1191,-4.1191,-4.1191,-4.1191,-4.1191,-4.1191,-4.1191,-4.1191,-4.1191,-4.1191,-4.1191,-4.1191,-4.1191,-4.1191,-4.1191,-4.1191,-4.1191,-4.1191,-4.1151,-4.1104,-4.1021,-4.0942,-4.0863,-4.0721,-4.0568,-4.0496,-4.0496,-4.0496,-4.0496,-4.0496,-4.0496,-4.0496,-4.0496,-4.0496,-4.0496,-4.0496,-4.0496,-4.0496,-4.0496,-4.0515,-4.053,-4.0569,-4.0665,-4.0795,-4.0905,-4.1065,-4.1172,-4.1191,-4.1191,-4.1191,-4.0801,-4.0397,-3.9591,-3.8405,-3.7348,-3.6472,-3.5912,-3.5486,-3.5398,-3.5346,-3.5122,-3.4813,-3.4574,-3.4334,-3.4049,-5.6621,-5.6562,-5.6055,-5.5351,-5.4473,-5.3613,-5.2734,-5.1973,-5.1543,-5.1387,-5.1387,-5.1387,-5.1387,-5.1387,-5.1387,-5.1387,-5.1387,-5.1387,-5.1152,-5.0586,-4.9367,-4.7702,-4.6275,-4.589,-4.585,-4.5692,-4.5688,-4.564,-4.5439,-4.472,-4.4066,-4.3451,-4.2385,-4.1566,-4.1104,-4.065,-4.0496,-4.0496,-4.0496,-4.0496,-4.0496,-4.0496,-4.0496,-4.0496,-4.0496,-4.0566,-4.069,-4.084,-4.0986,-4.1094,-4.1172,-4.1191,-4.1191,-4.1191,-4.1191,-4.1191,-4.1191,-4.1191,-4.1191,-4.1191,-4.1191,-4.1191,-4.1191,-4.1191,-4.1191,-4.1191,-4.1191,-4.1191,-4.1191,-4.1172,-4.1101,-4.0992,-4.0855,-4.0713,-4.0568,-4.0496,-4.0496,-4.0496,-4.0496,-4.0496,-4.0496,-4.0496,-4.0496,-4.0496,-4.0496,-4.0496,-4.0496,-4.0496,-4.0496,-4.0537,-4.0565,-4.0599,-4.0719,-4.0878,-4.0996,-4.1133,-4.1191,-4.1191,-4.1016,-4.1055,-4.0762,-4.0242,-3.9421,-3.8489,-3.7466,-3.6563,-3.5926,-3.5501,-3.5467,-3.5376,-3.5223,-3.506,-3.4832,-3.4553,-3.4265,-5.6621,-5.6601,-5.6601,-5.6094,-5.5195,-5.4375,-5.3418,-5.2617,-5.1758,-5.1387,-5.1387,-5.1387,-5.1387,-5.1387,-5.1387,-5.1387,-5.1387,-5.1387,-5.1269,-5.0664,-4.9551,-4.7909,-4.6443,-4.6059,-4.5925,-4.5782,-4.5763,-4.5703,-4.5505,-4.484,-4.4419,-4.3935,-4.2714,-4.1942,-4.1527,-4.0931,-4.0535,-4.0496,-4.0496,-4.0496,-4.0496,-4.0496,-4.0496,-4.0496,-4.0496,-4.0545,-4.0642,-4.0757,-4.0863,-4.0955,-4.1102,-4.1172,-4.1172,-4.1191,-4.1191,-4.1191,-4.1191,-4.1191,-4.1191,-4.1191,-4.1191,-4.1191,-4.1191,-4.1191,-4.1191,-4.1191,-4.1191,-4.1191,-4.1191,-4.1191,-4.117,-4.0966,-4.0836,-4.0752,-4.063,-4.0523,-4.05,-4.0504,-4.0496,-4.0496,-4.0496,-4.0496,-4.0496,-4.0496,-4.0496,-4.0496,-4.0496,-4.0496,-4.0512,-4.0537,-4.0571,-4.061,-4.0792,-4.1017,-4.1094,-4.1191,-4.1191,-4.1172,-4.084,-4.0723,-4.0625,-4.0122,-3.9403,-3.8553,-3.7623,-3.6634,-3.5727,-3.5483,-3.5508,-3.5453,-3.5327,-3.5207,-3.5062,-3.4774,-3.4489,-5.6621,-5.6621,-5.6621,-5.6094,-5.5234,-5.4355,-5.3516,-5.2676,-5.1797,-5.1387,-5.1387,-5.1387,-5.1387,-5.1387,-5.1387,-5.1387,-5.1387,-5.1348,-5.1094,-5.0312,-4.9433,-4.8359,-4.7167,-4.6476,-4.5889,-4.5718,-4.564,-4.5669,-4.5599,-4.5398,-4.5012,-4.4373,-4.3447,-4.2462,-4.1788,-4.1085,-4.0496,-4.0496,-4.0496,-4.0496,-4.0496,-4.0496,-4.0496,-4.0496,-4.0496,-4.0512,-4.0559,-4.0667,-4.074,-4.08,-4.0947,-4.1056,-4.113,-4.1103,-4.1104,-4.1191,-4.1191,-4.1191,-4.1191,-4.1191,-4.1191,-4.1191,-4.1191,-4.1191,-4.1191,-4.1191,-4.1191,-4.1191,-4.1191,-4.1191,-4.1191,-4.1073,-4.095,-4.0873,-4.0762,-4.061,-4.0533,-4.0509,-4.0504,-4.0496,-4.0496,-4.0496,-4.0496,-4.0496,-4.0496,-4.0496,-4.0496,-4.0496,-4.0527,-4.0552,-4.0612,-4.0657,-4.0842,-4.1055,-4.1133,-4.1152,-4.1055,-4.0918,-4.0605,-4.0195,-4.0098,-3.9761,-3.8956,-3.8372,-3.7825,-3.6799,-3.5629,-3.5502,-3.5502,-3.5462,-3.5439,-3.5339,-3.5182,-3.4935,-3.4736,-5.6621,-5.6621,-5.6621,-5.6328,-5.5742,-5.457,-5.375,-5.3105,-5.1914,-5.1387,-5.1387,-5.1387,-5.1387,-5.1387,-5.1387,-5.1387,-5.1387,-5.1387,-5.1191,-5.0644,-4.9922,-4.9043,-4.8074,-4.7111,-4.6376,-4.5867,-4.5751,-4.577,-4.5756,-4.5665,-4.5414,-4.5073,-4.4122,-4.3247,-4.2412,-4.1508,-4.0931,-4.0554,-4.0496,-4.0496,-4.0496,-4.0496,-4.0496,-4.0496,-4.0496,-4.0496,-4.0512,-4.0636,-4.0705,-4.0738,-4.0805,-4.0931,-4.1056,-4.1031,-4.1058,-4.1172,-4.1191,-4.1191,-4.1191,-4.1191,-4.1191,-4.1191,-4.1191,-4.1191,-4.1191,-4.1191,-4.1191,-4.1191,-4.1191,-4.1191,-4.1191,-4.108,-4.1002,-4.0962,-4.0851,-4.0733,-4.0634,-4.0552,-4.0496,-4.0496,-4.0496,-4.0496,-4.0496,-4.0496,-4.0496,-4.0496,-4.0496,-4.0504,-4.0542,-4.0584,-4.0662,-4.0731,-4.0911,-4.1055,-4.1152,-4.1094,-4.0879,-4.0625,-4.0234,-3.9726,-3.9355,-3.8926,-3.8424,-3.7936,-3.7449,-3.6565,-3.5621,-3.5585,-3.5515,-3.5494,-3.5453,-3.5391,-3.5304,-3.5122,-3.4971,-5.6621,-5.6621,-5.6621,-5.6601,-5.6328,-5.4746,-5.3984,-5.3711,-5.2148,-5.1387,-5.1387,-5.1387,-5.1387,-5.1387,-5.1387,-5.1387,-5.1387,-5.1387,-5.1289,-5.1152,-5.043,-4.9531,-4.8617,-4.7725,-4.6833,-4.6033,-4.5881,-4.5846,-4.5802,-4.5725,-4.5662,-4.5576,-4.4785,-4.3932,-4.3198,-4.2258,-4.145,-4.0912,-4.0612,-4.0496,-4.0496,-4.0496,-4.0496,-4.0496,-4.0496,-4.0496,-4.0519,-4.0589,-4.0655,-4.0681,-4.0661,-4.0772,-4.0887,-4.0964,-4.1016,-4.1152,-4.1172,-4.1191,-4.1191,-4.1191,-4.1191,-4.1191,-4.1191,-4.1191,-4.1191,-4.1191,-4.1191,-4.1191,-4.1191,-4.1191,-4.1191,-4.1126,-4.1054,-4.1021,-4.0917,-4.0831,-4.0789,-4.0657,-4.059,-4.0557,-4.0559,-4.0566,-4.0527,-4.0496,-4.0496,-4.0496,-4.0496,-4.0515,-4.0577,-4.0622,-4.0694,-4.0785,-4.0942,-4.1058,-4.1172,-4.0703,-4.0547,-4.0137,-3.9746,-3.9043,-3.8476,-3.7871,-3.7441,-3.7461,-3.6926,-3.6144,-3.5686,-3.5621,-3.5566,-3.5522,-3.5481,-3.5446,-3.5376,-3.5289,-3.5182,-5.6621,-5.6621,-5.6621,-5.6621,-5.6328,-5.4746,-5.3984,-5.3711,-5.2148,-5.1406,-5.1387,-5.1387,-5.1387,-5.1387,-5.1387,-5.1387,-5.1387,-5.1387,-5.1387,-5.1269,-5.0625,-4.9805,-4.8828,-4.8086,-4.7109,-4.6289,-4.5978,-4.5899,-4.59,-4.5867,-4.5807,-4.5615,-4.4989,-4.4351,-4.3704,-4.2681,-4.1816,-4.1354,-4.0862,-4.0516,-4.0496,-4.0496,-4.0496,-4.0496,-4.0496,-4.0496,-4.0496,-4.0519,-4.0523,-4.0542,-4.0523,-4.061,-4.0731,-4.08,-4.0905,-4.1048,-4.1129,-4.1172,-4.1191,-4.1191,-4.1191,-4.1191,-4.1191,-4.1191,-4.1191,-4.1191,-4.1191,-4.1191,-4.1191,-4.1191,-4.1191,-4.1172,-4.1172,-4.1133,-4.1054,-4.0944,-4.0889,-4.0827,-4.0742,-4.0721,-4.068,-4.061,-4.0561,-4.0527,-4.0496,-4.0496,-4.0496,-4.0559,-4.0636,-4.0693,-4.0752,-4.0838,-4.0951,-4.106,-4.1172,-4.0508,-4.0019,-3.9551,-3.9004,-3.8047,-3.7422,-3.6738,-3.6426,-3.6719,-3.6641,-3.605,-3.5758,-3.5655,-3.5602,-3.5571,-3.5527,-3.5494,-3.5446,-3.5376,-3.5304,-5.6621,-5.6621,-5.6621,-5.6621,-5.6289,-5.4746,-5.3984,-5.373,-5.2187,-5.1387,-5.1387,-5.1387,-5.1387,-5.1387,-5.1387,-5.1387,-5.1387,-5.1387,-5.1387,-5.125,-5.0937,-5.0078,-4.9043,-4.8437,-4.7441,-4.6548,-4.6077,-4.5988,-4.5985,-4.5891,-4.585,-4.5761,-4.5349,-4.4914,-4.4193,-4.3124,-4.2297,-4.1797,-4.1008,-4.0516,-4.0496,-4.0496,-4.0496,-4.0496,-4.0496,-4.0496,-4.0496,-4.0496,-4.0496,-4.0496,-4.0496,-4.0549,-4.0597,-4.0693,-4.0828,-4.0979,-4.1055,-4.1148,-4.1191,-4.1191,-4.1191,-4.1191,-4.1191,-4.1191,-4.1191,-4.1191,-4.1191,-4.1191,-4.1191,-4.1191,-4.1191,-4.1191,-4.1191,-4.1191,-4.1133,-4.1074,-4.1055,-4.1035,-4.0983,-4.089,-4.0761,-4.0672,-4.061,-4.0561,-4.0519,-4.0496,-4.0496,-4.0582,-4.0697,-4.0767,-4.0809,-4.0917,-4.1016,-4.1094,-4.0996,-4.0273,-3.9629,-3.9121,-3.8301,-3.7344,-3.6777,-3.6289,-3.623,-3.6426,-3.6152,-3.5937,-3.5859,-3.5766,-3.569,-3.5631,-3.5588,-3.5546,-3.5502,-3.546,-3.5391,-5.6621,-5.6621,-5.6621,-5.6621,-5.6328,-5.4726,-5.3984,-5.3652,-5.2148,-5.1387,-5.1387,-5.1387,-5.1387,-5.1387,-5.1387,-5.1387,-5.1387,-5.1387,-5.1387,-5.1387,-5.1328,-5.0527,-4.9531,-4.8769,-4.8044,-4.6834,-4.612,-4.6059,-4.5998,-4.5946,-4.5876,-4.5792,-4.5764,-4.5445,-4.4556,-4.3778,-4.2912,-4.2066,-4.1219,-4.0746,-4.0535,-4.0496,-4.0496,-4.0496,-4.0496,-4.0496,-4.0496,-4.0496,-4.0496,-4.0496,-4.0496,-4.0496,-4.0519,-4.0596,-4.0742,-4.0912,-4.0979,-4.1055,-4.1133,-4.1191,-4.1191,-4.1191,-4.1191,-4.1191,-4.1191,-4.1191,-4.1191,-4.1191,-4.1191,-4.1191,-4.1191,-4.1191,-4.1191,-4.1191,-4.1191,-4.1191,-4.1172,-4.1152,-4.1152,-4.1037,-4.0859,-4.074,-4.0672,-4.0561,-4.0504,-4.0523,-4.053,-4.0636,-4.0742,-4.0832,-4.0886,-4.1002,-4.1094,-4.1152,-4.082,-4.0019,-3.9394,-3.8848,-3.7832,-3.6738,-3.6367,-3.6055,-3.6133,-3.623,-3.6133,-3.5957,-3.5918,-3.5864,-3.5797,-3.5744,-3.5654,-3.5604,-3.557,-3.5515,-3.5453,-5.6621,-5.6621,-5.6621,-5.6621,-5.6308,-5.4707,-5.3984,-5.3711,-5.2129,-5.1406,-5.1387,-5.1387,-5.1387,-5.1387,-5.1387,-5.1387,-5.1387,-5.1387,-5.1387,-5.1387,-5.1367,-5.0898,-4.9941,-4.9082,-4.8315,-4.7222,-4.6302,-4.5925,-4.5939,-4.6011,-4.5896,-4.5744,-4.5805,-4.571,-4.5225,-4.4374,-4.3778,-4.2912,-4.2027,-4.12,-4.0612,-4.0496,-4.0496,-4.0496,-4.0496,-4.0496,-4.0496,-4.0496,-4.0496,-4.0496,-4.0496,-4.0496,-4.0496,-4.0512,-4.0596,-4.0736,-4.0889,-4.1017,-4.1051,-4.1133,-4.1191,-4.1191,-4.1191,-4.1191,-4.1191,-4.1191,-4.1191,-4.1191,-4.1191,-4.1191,-4.1191,-4.1191,-4.1191,-4.1191,-4.1191,-4.1191,-4.1191,-4.1191,-4.1191,-4.1123,-4.095,-4.0822,-4.0745,-4.0597,-4.0504,-4.0537,-4.0584,-4.0699,-4.0803,-4.0902,-4.097,-4.1083,-4.1113,-4.1172,-4.0742,-3.9922,-3.9219,-3.8633,-3.7441,-3.6328,-3.6152,-3.6016,-3.6016,-3.6055,-3.6016,-3.5996,-3.5957,-3.5924,-3.5903,-3.5816,-3.5714,-3.5659,-3.56,-3.5564,-3.5488,-5.6621,-5.6621,-5.6621,-5.6308,-5.5742,-5.4512,-5.3711,-5.3066,-5.1973,-5.1387,-5.1387,-5.1387,-5.1387,-5.1387,-5.1387,-5.1387,-5.1387,-5.1387,-5.1387,-5.1387,-5.1328,-5.0976,-5.0137,-4.9255,-4.8416,-4.757,-4.6609,-4.605,-4.6014,-4.5946,-4.5836,-4.5805,-4.5807,-4.5751,-4.5541,-4.4729,-4.3893,-4.2931,-4.1835,-4.092,-4.0593,-4.0496,-4.0496,-4.0496,-4.0496,-4.0496,-4.0496,-4.0496,-4.0496,-4.0496,-4.0496,-4.0496,-4.0496,-4.0496,-4.053,-4.0575,-4.0731,-4.0882,-4.1009,-4.1107,-4.1172,-4.1191,-4.1191,-4.1191,-4.1191,-4.1191,-4.1191,-4.1191,-4.1191,-4.1191,-4.1191,-4.1191,-4.1191,-4.1191,-4.1191,-4.1191,-4.1191,-4.1191,-4.1191,-4.1113,-4.103,-4.0922,-4.0822,-4.0735,-4.0629,-4.0623,-4.0704,-4.0812,-4.0925,-4.1044,-4.1104,-4.1171,-4.1191,-4.1191,-4.0605,-3.9883,-3.9141,-3.8398,-3.7187,-3.6309,-3.6113,-3.6016,-3.6016,-3.6016,-3.6016,-3.5996,-3.5976,-3.5975,-3.5946,-3.5853,-3.5771,-3.5706,-3.5636,-3.5546,-3.5481,-5.6621,-5.6621,-5.6621,-5.6094,-5.5234,-5.4375,-5.3516,-5.2656,-5.1797,-5.1387,-5.1387,-5.1387,-5.1387,-5.1387,-5.1387,-5.1387,-5.1387,-5.1387,-5.1387,-5.1387,-5.1328,-5.1074,-5.0371,-4.9511,-4.8533,-4.7871,-4.6592,-4.6153,-4.6064,-4.5971,-4.5881,-4.5894,-4.5855,-4.5777,-4.5495,-4.4994,-4.4248,-4.3047,-4.172,-4.092,-4.0573,-4.0496,-4.0496,-4.0496,-4.0496,-4.0496,-4.0496,-4.0496,-4.0496,-4.0496,-4.0496,-4.0496,-4.0496,-4.0496,-4.0496,-4.0545,-4.0661,-4.0786,-4.0926,-4.1041,-4.1149,-4.1191,-4.1191,-4.1191,-4.1191,-4.1191,-4.1191,-4.1191,-4.1191,-4.1191,-4.1191,-4.1191,-4.1191,-4.1191,-4.1191,-4.1191,-4.1191,-4.1191,-4.1191,-4.1152,-4.1081,-4.1002,-4.0922,-4.0852,-4.0791,-4.0752,-4.0807,-4.0905,-4.1016,-4.1133,-4.1172,-4.1191,-4.1191,-4.1191,-4.0801,-4.0059,-3.9238,-3.832,-3.7129,-3.6328,-3.6172,-3.6055,-3.6016,-3.6016,-3.6016,-3.6016,-3.5996,-3.5996,-3.5976,-3.5923,-3.5849,-3.5756,-3.5672,-3.5562,-3.5488,-5.6621,-5.6621,-5.6582,-5.6015,-5.5176,-5.4355,-5.3476,-5.2539,-5.1738,-5.1406,-5.1387,-5.1387,-5.1387,-5.1387,-5.1387,-5.1387,-5.1387,-5.1387,-5.1387,-5.1387,-5.1367,-5.1308,-5.0644,-4.9702,-4.8699,-4.8375,-4.6928,-4.6169,-4.6149,-4.5978,-4.5899,-4.589,-4.5881,-4.5822,-4.5653,-4.5263,-4.4372,-4.322,-4.2008,-4.1162,-4.0727,-4.0496,-4.0496,-4.0496,-4.0496,-4.0496,-4.0496,-4.0496,-4.0496,-4.0496,-4.0496,-4.0496,-4.0496,-4.0496,-4.0496,-4.0534,-4.0615,-4.0709,-4.0786,-4.0953,-4.1077,-4.1152,-4.1191,-4.1191,-4.1191,-4.1191,-4.1191,-4.1191,-4.1191,-4.1191,-4.1191,-4.1191,-4.1191,-4.1191,-4.1191,-4.1191,-4.1191,-4.1191,-4.1191,-4.1172,-4.1127,-4.1058,-4.1031,-4.0974,-4.0903,-4.0851,-4.0925,-4.1035,-4.1094,-4.1172,-4.1191,-4.1191,-4.1191,-4.1172,-4.1094,-4.041,-3.9531,-3.8691,-3.7676,-3.6855,-3.6289,-3.6172,-3.6016,-3.6016,-3.6016,-3.6016,-3.6016,-3.5996,-3.5996,-3.5976,-3.5922,-3.5794,-3.5682,-3.5588,-3.5522,-5.5801,-5.5742,-5.5234,-5.4805,-5.4433,-5.3574,-5.2695,-5.1933,-5.1543,-5.1387,-5.1387,-5.1387,-5.1387,-5.1387,-5.1387,-5.1387,-5.1387,-5.1387,-5.1387,-5.1387,-5.1387,-5.1387,-5.0781,-4.9902,-4.8826,-4.8474,-4.7034,-4.6045,-4.6119,-4.5995,-4.5924,-4.5885,-4.5876,-4.5832,-4.5671,-4.5237,-4.4245,-4.3297,-4.2277,-4.1393,-4.07,-4.0496,-4.0496,-4.0496,-4.0496,-4.0496,-4.0496,-4.0496,-4.0496,-4.0496,-4.0496,-4.0496,-4.0496,-4.0496,-4.0496,-4.0496,-4.0566,-4.0616,-4.0707,-4.0886,-4.1052,-4.1152,-4.1191,-4.1191,-4.1191,-4.1191,-4.1191,-4.1191,-4.1191,-4.1191,-4.1191,-4.1191,-4.1191,-4.1191,-4.1191,-4.1191,-4.1191,-4.1191,-4.1191,-4.1191,-4.1172,-4.1149,-4.1129,-4.1126,-4.1046,-4.0979,-4.1073,-4.1152,-4.1172,-4.1191,-4.1191,-4.1191,-4.1191,-4.1191,-4.1133,-4.0508,-3.9805,-3.9043,-3.8262,-3.748,-3.6738,-3.6152,-3.6035,-3.6016,-3.6016,-3.6016,-3.6016,-3.6016,-3.6016,-3.5996,-3.5937,-3.5844,-3.5725,-3.5611,-3.5544,-5.4902,-5.4805,-5.3965,-5.3613,-5.3535,-5.2949,-5.2207,-5.1484,-5.1406,-5.1387,-5.1387,-5.1387,-5.1387,-5.1387,-5.1387,-5.1387,-5.1387,-5.1387,-5.1387,-5.1387,-5.1387,-5.1387,-5.082,-4.9941,-4.8848,-4.8457,-4.7221,-4.6174,-4.6175,-4.6033,-4.5985,-4.5939,-4.5853,-4.5828,-4.5646,-4.5102,-4.4286,-4.347,-4.2624,-4.1758,-4.1027,-4.0631,-4.0496,-4.0496,-4.0496,-4.0496,-4.0496,-4.0496,-4.0496,-4.0496,-4.0496,-4.0496,-4.0496,-4.0496,-4.0496,-4.0496,-4.0512,-4.0552,-4.0674,-4.082,-4.0992,-4.1094,-4.1113,-4.1133,-4.1172,-4.1191,-4.1191,-4.1191,-4.1191,-4.1191,-4.1191,-4.1191,-4.1191,-4.1191,-4.1191,-4.1191,-4.1191,-4.1191,-4.1191,-4.1191,-4.1191,-4.1172,-4.1172,-4.1172,-4.1133,-4.1074,-4.1113,-4.1172,-4.1191,-4.1191,-4.1191,-4.1191,-4.1191,-4.1191,-4.1152,-4.0742,-4.0332,-3.9687,-3.8906,-3.8105,-3.7363,-3.6719,-3.6133,-3.6016,-3.6016,-3.6016,-3.6016,-3.6016,-3.6016,-3.6016,-3.5937,-3.586,-3.5735,-3.5636,-3.5548,-5.4023,-5.3926,-5.3086,-5.2734,-5.2715,-5.2715,-5.2187,-5.1445,-5.1387,-5.1387,-5.1387,-5.1387,-5.1387,-5.1387,-5.1387,-5.1387,-5.1387,-5.1387,-5.1387,-5.1387,-5.1387,-5.1387,-5.0801,-4.9902,-4.8867,-4.8457,-4.7201,-4.6177,-4.6222,-4.6027,-4.6014,-4.5979,-4.5838,-4.5775,-4.5776,-4.5645,-4.5094,-4.4259,-4.3393,-4.2508,-4.1643,-4.0893,-4.0554,-4.0496,-4.0496,-4.0496,-4.0496,-4.0496,-4.0496,-4.0496,-4.0496,-4.0496,-4.0496,-4.0496,-4.0496,-4.0496,-4.0496,-4.0504,-4.0523,-4.0698,-4.0847,-4.0988,-4.1003,-4.1078,-4.117,-4.1191,-4.1191,-4.1191,-4.1191,-4.1191,-4.1191,-4.1191,-4.1191,-4.1191,-4.1191,-4.1191,-4.1191,-4.1191,-4.1191,-4.1191,-4.1191,-4.1191,-4.1191,-4.1191,-4.1191,-4.1191,-4.1191,-4.1191,-4.1191,-4.1191,-4.1191,-4.1191,-4.1191,-4.1191,-4.1191,-4.1191,-4.0859,-4.0234,-3.957,-3.8769,-3.8008,-3.7305,-3.6758,-3.625,-3.6016,-3.6016,-3.6016,-3.6016,-3.6016,-3.6016,-3.5957,-3.5877,-3.5762,-3.5666,-3.5595,-5.3144,-5.3047,-5.2187,-5.1836,-5.1836,-5.1836,-5.1641,-5.1445,-5.1387,-5.1387,-5.1387,-5.1387,-5.1387,-5.1387,-5.1387,-5.1387,-5.1387,-5.1387,-5.1387,-5.1387,-5.1387,-5.1387,-5.0879,-4.9844,-4.8883,-4.828,-4.7064,-4.6018,-4.5959,-4.5885,-4.5802,-4.5742,-4.5749,-4.5661,-4.5657,-4.5554,-4.5152,-4.4316,-4.3489,-4.2681,-4.1827,-4.1027,-4.0535,-4.0535,-4.0496,-4.0496,-4.0496,-4.0496,-4.0496,-4.0496,-4.0496,-4.0496,-4.0496,-4.0496,-4.0496,-4.0496,-4.0496,-4.0496,-4.0504,-4.0591,-4.069,-4.0817,-4.0928,-4.0992,-4.1056,-4.1151,-4.1191,-4.1191,-4.1191,-4.1191,-4.1191,-4.1191,-4.1191,-4.1191,-4.1191,-4.1191,-4.1191,-4.1191,-4.1191,-4.1191,-4.1191,-4.1191,-4.1191,-4.1191,-4.1191,-4.1191,-4.1191,-4.1191,-4.1191,-4.1191,-4.1191,-4.1191,-4.1191,-4.1191,-4.1191,-4.1191,-4.1191,-4.0762,-4.0156,-3.9492,-3.8711,-3.7975,-3.7383,-3.6894,-3.6426,-3.6016,-3.6133,-3.6191,-3.6055,-3.5996,-3.5957,-3.5898,-3.5783,-3.5687,-3.563,-5.2205,-5.2187,-5.166,-5.1387,-5.1387,-5.1387,-5.1387,-5.1387,-5.1387,-5.1387,-5.1387,-5.1387,-5.1387,-5.1387,-5.1387,-5.1387,-5.1387,-5.1387,-5.1387,-5.1387,-5.1348,-5.1328,-5.0781,-4.9691,-4.884,-4.8116,-4.698,-4.5901,-4.588,-4.5735,-4.5669,-4.564,-4.5594,-4.562,-4.5603,-4.5498,-4.5383,-4.469,-4.4047,-4.3201,-4.2335,-4.1527,-4.0843,-4.0612,-4.0496,-4.0496,-4.0496,-4.0496,-4.0496,-4.0496,-4.0496,-4.0496,-4.0496,-4.0496,-4.0496,-4.0496,-4.0496,-4.0496,-4.0504,-4.0504,-4.0591,-4.0679,-4.0828,-4.0908,-4.0986,-4.1078,-4.115,-4.1172,-4.1191,-4.1191,-4.1191,-4.1191,-4.1191,-4.1191,-4.1191,-4.1191,-4.1191,-4.1191,-4.1191,-4.1191,-4.1191,-4.1191,-4.1191,-4.1191,-4.1191,-4.1191,-4.1191,-4.1191,-4.1191,-4.1191,-4.1191,-4.1191,-4.1191,-4.1191,-4.1191,-4.1191,-4.1191,-4.1191,-4.0677,-4.0061,-3.9511,-3.8801,-3.8167,-3.7617,-3.7344,-3.7012,-3.6543,-3.6387,-3.625,-3.6113,-3.5996,-3.5918,-3.5801,-3.5726,-3.5671,-5.127,-5.1386,-5.1387,-5.1387,-5.1387,-5.1387,-5.1387,-5.1387,-5.1387,-5.1387,-5.1387,-5.1387,-5.1387,-5.1387,-5.1387,-5.1387,-5.1387,-5.1387,-5.1367,-5.1328,-5.125,-5.123,-5.0614,-4.9464,-4.8729,-4.7936,-4.6902,-4.5866,-4.5877,-4.577,-4.5673,-4.5618,-4.5594,-4.5594,-4.5594,-4.5575,-4.5518,-4.5133,-4.4489,-4.3643,-4.2816,-4.2085,-4.1239,-4.0777,-4.0496,-4.0496,-4.0496,-4.0496,-4.0496,-4.0496,-4.0496,-4.0496,-4.0496,-4.0496,-4.0496,-4.0496,-4.0496,-4.0496,-4.0496,-4.0496,-4.0504,-4.0582,-4.0642,-4.08,-4.0928,-4.1019,-4.1102,-4.1172,-4.1191,-4.1191,-4.1191,-4.1191,-4.1191,-4.1191,-4.1191,-4.1191,-4.1191,-4.1191,-4.1191,-4.1191,-4.1191,-4.1191,-4.1191,-4.1191,-4.1191,-4.1191,-4.1191,-4.1191,-4.1191,-4.1191,-4.1191,-4.1191,-4.1191,-4.1191,-4.1191,-4.1191,-4.1191,-4.1191,-4.1074,-4.0553,-4.0061,-3.9546,-3.8903,-3.8429,-3.838,-3.8027,-3.7422,-3.6875,-3.6445,-3.6328,-3.6387,-3.6055,-3.5986,-3.5794,-3.5723,-5.1184,-5.1263,-5.1246,-5.1319,-5.1387,-5.1387,-5.1387,-5.1387,-5.1387,-5.1387,-5.1387,-5.1387,-5.1387,-5.1387,-5.1387,-5.1387,-5.1367,-5.1328,-5.1269,-5.1225,-5.1158,-5.1121,-5.0488,-4.942,-4.8665,-4.7808,-4.6848,-4.5783,-4.5706,-4.5665,-4.5657,-4.5603,-4.5594,-4.5594,-4.5594,-4.5594,-4.5594,-4.5421,-4.4778,-4.4028,-4.3201,-4.2346,-4.1489,-4.0873,-4.0535,-4.0516,-4.0496,-4.0496,-4.0496,-4.0496,-4.0496,-4.0496,-4.0496,-4.0496,-4.0496,-4.0496,-4.0496,-4.0496,-4.0496,-4.0496,-4.0496,-4.0496,-4.0545,-4.0659,-4.0809,-4.095,-4.1049,-4.1133,-4.1191,-4.1191,-4.1191,-4.1191,-4.1191,-4.1191,-4.1191,-4.1191,-4.1191,-4.1191,-4.1191,-4.1191,-4.1191,-4.1191,-4.1191,-4.1191,-4.1191,-4.1191,-4.1191,-4.1191,-4.1191,-4.1191,-4.1191,-4.1191,-4.1191,-4.1191,-4.1191,-4.1191,-4.1191,-4.1172,-4.1055,-4.091,-4.049,-3.9995,-3.9503,-3.9155,-3.8948,-3.8597,-3.8164,-3.7656,-3.7226,-3.7031,-3.6992,-3.6543,-3.6148,-3.5966,-3.5797,-5.1074,-5.1151,-5.1154,-5.1221,-5.1296,-5.1286,-5.1286,-5.132,-5.1386,-5.1387,-5.1387,-5.1387,-5.1366,-5.1328,-5.1367,-5.1348,-5.125,-5.1252,-5.1216,-5.1152,-5.1059,-5.1031,-5.0419,-4.9317,-4.8454,-4.7646,-4.6766,-4.5685,-4.5612,-4.5594,-4.5594,-4.5594,-4.5594,-4.5594,-4.5594,-4.5594,-4.5594,-4.5441,-4.5028,-4.4355,-4.3547,-4.272,-4.1893,-4.1104,-4.0785,-4.0554,-4.0496,-4.0496,-4.0496,-4.0496,-4.0496,-4.0496,-4.0496,-4.0496,-4.0496,-4.0496,-4.0496,-4.0496,-4.0496,-4.0496,-4.0496,-4.0496,-4.0496,-4.0584,-4.0722,-4.0859,-4.0976,-4.1074,-4.1152,-4.1191,-4.1191,-4.1191,-4.1191,-4.1191,-4.1191,-4.1191,-4.1191,-4.1191,-4.1191,-4.1191,-4.1191,-4.1191,-4.1191,-4.1191,-4.1191,-4.1191,-4.1191,-4.1191,-4.1191,-4.1191,-4.1191,-4.1191,-4.1191,-4.1191,-4.1191,-4.1191,-4.1191,-4.1172,-4.1055,-4.0896,-4.0715,-4.049,-4.0081,-3.9718,-3.9399,-3.9112,-3.8906,-3.8574,-3.8203,-3.7969,-3.7715,-3.7363,-3.6797,-3.6145,-3.5964,-5.0953,-5.1098,-5.1089,-5.1141,-5.118,-5.1152,-5.1164,-5.1199,-5.1316,-5.1367,-5.1367,-5.1367,-5.1291,-5.1228,-5.1286,-5.126,-5.117,-5.1136,-5.1105,-5.1069,-5.0933,-5.0886,-5.0349,-4.9106,-4.8298,-4.7554,-4.6661,-4.5618,-4.5612,-4.5594,-4.5594,-4.5594,-4.5594,-4.5594,-4.5594,-4.5594,-4.5594,-4.5537,-4.5402,-4.497,-4.422,-4.3489,-4.2758,-4.1777,-4.1123,-4.0631,-4.0535,-4.0496,-4.0496,-4.0496,-4.0496,-4.0496,-4.0496,-4.0496,-4.0496,-4.0496,-4.0496,-4.0496,-4.0496,-4.0496,-4.0496,-4.0496,-4.0504,-4.0554,-4.0647,-4.0757,-4.0866,-4.1019,-4.1094,-4.1172,-4.1191,-4.1191,-4.1191,-4.1191,-4.1191,-4.1191,-4.1191,-4.1191,-4.1191,-4.1191,-4.1191,-4.1191,-4.1191,-4.1191,-4.1191,-4.1191,-4.1191,-4.1191,-4.1191,-4.1191,-4.1191,-4.1191,-4.1191,-4.1191,-4.1191,-4.1191,-4.1191,-4.1152,-4.1035,-4.0928,-4.077,-4.0709,-4.068,-4.0278,-3.9898,-3.9866,-3.9668,-3.9434,-3.916,-3.8769,-3.8516,-3.8242,-3.7617,-3.6855,-3.6213,-5.0811,-5.0946,-5.1067,-5.1093,-5.1111,-5.1103,-5.1103,-5.1116,-5.116,-5.1175,-5.1156,-5.1175,-5.1148,-5.1137,-5.116,-5.1144,-5.1099,-5.1031,-5.0985,-5.0918,-5.0803,-5.0773,-5.041,-4.8998,-4.8231,-4.7548,-4.6644,-4.5594,-4.5594,-4.5594,-4.5594,-4.5594,-4.5594,-4.5594,-4.5594,-4.5594,-4.5594,-4.5594,-4.5537,-4.521,-4.4489,-4.4028,-4.3412,-4.2335,-4.1489,-4.1066,-4.0835,-4.0516,-4.0516,-4.0496,-4.0496,-4.0496,-4.0496,-4.0496,-4.0496,-4.0496,-4.0496,-4.0496,-4.0496,-4.0496,-4.0496,-4.0496,-4.0496,-4.0519,-4.0568,-4.066,-4.0771,-4.0931,-4.1051,-4.1105,-4.1172,-4.1191,-4.1191,-4.1191,-4.1191,-4.1191,-4.1191,-4.1191,-4.1191,-4.1191,-4.1191,-4.1191,-4.1191,-4.1191,-4.1191,-4.1191,-4.1191,-4.1191,-4.1191,-4.1191,-4.1191,-4.1191,-4.1191,-4.1191,-4.1191,-4.1191,-4.1191,-4.1094,-4.0976,-4.0883,-4.0793,-4.069,-4.0596,-4.0584,-4.0423,-4.033,-4.036,-4.0547,-4.0234,-3.9714,-3.9414,-3.9199,-3.873,-3.8027,-3.7109,-5.0749,-5.0822,-5.0894,-5.0946,-5.0997,-5.094,-5.0966,-5.0997,-5.0959,-5.0925,-5.094,-5.102,-5.1063,-5.1031,-5.1058,-5.1004,-5.0966,-5.0918,-5.0863,-5.0797,-5.0757,-5.0712,-4.9971,-4.8971,-4.8375,-4.7663,-4.6413,-4.5594,-4.5594,-4.5594,-4.5594,-4.5594,-4.5594,-4.5594,-4.5594,-4.5594,-4.5594,-4.5594,-4.5594,-4.5306,-4.4739,-4.4393,-4.4008,-4.2989,-4.22,-4.1662,-4.1181,-4.0777,-4.0516,-4.0496,-4.0496,-4.0496,-4.0496,-4.0496,-4.0496,-4.0496,-4.0496,-4.0496,-4.0496,-4.0496,-4.0496,-4.0496,-4.0496,-4.0512,-4.0512,-4.0604,-4.0679,-4.0828,-4.0966,-4.1055,-4.1152,-4.1191,-4.1191,-4.1191,-4.1191,-4.1191,-4.1191,-4.1191,-4.1191,-4.1191,-4.1191,-4.1191,-4.1191,-4.1191,-4.1191,-4.1191,-4.1191,-4.1191,-4.1191,-4.1191,-4.1191,-4.1191,-4.1191,-4.1191,-4.1191,-4.1191,-4.1172,-4.1055,-4.093,-4.0796,-4.0685,-4.0578,-4.0512,-4.0537,-4.059,-4.0666,-4.076,-4.0899,-4.0978,-4.0542,-4.0332,-4.0195,-3.9668,-3.9121,-3.8359,-5.0693,-5.0683,-5.0702,-5.0775,-5.0851,-5.0757,-5.0784,-5.0844,-5.0757,-5.0712,-5.0758,-5.0952,-5.0972,-5.0966,-5.0966,-5.0859,-5.0799,-5.0822,-5.0773,-5.073,-5.0712,-5.0683,-5.0067,-4.9029,-4.8163,-4.7259,-4.6182,-4.5748,-4.5594,-4.5594,-4.5594,-4.5594,-4.5594,-4.5594,-4.5594,-4.5594,-4.5594,-4.5594,-4.5594,-4.5594,-4.5248,-4.4863,-4.4451,-4.3778,-4.3008,-4.2124,-4.1643,-4.1219,-4.0719,-4.0496,-4.0496,-4.0496,-4.0496,-4.0496,-4.0496,-4.0496,-4.0496,-4.0496,-4.0496,-4.0496,-4.0496,-4.0496,-4.0496,-4.0496,-4.0496,-4.054,-4.0635,-4.0718,-4.087,-4.0996,-4.1113,-4.1191,-4.1191,-4.1191,-4.1191,-4.1191,-4.1191,-4.1191,-4.1191,-4.1191,-4.1191,-4.1191,-4.1191,-4.1191,-4.1191,-4.1191,-4.1191,-4.1191,-4.1191,-4.1191,-4.1191,-4.1191,-4.1191,-4.1191,-4.1191,-4.1172,-4.1152,-4.1048,-4.0908,-4.0713,-4.0577,-4.053,-4.0496,-4.0519,-4.0589,-4.0648,-4.0738,-4.0821,-4.0923,-4.1007,-4.0918,-4.0684,-4.0469,-3.9961,-3.957,-5.0683,-5.0683,-5.0683,-5.0721,-5.073,-5.0702,-5.0721,-5.073,-5.0702,-5.0683,-5.0721,-5.0721,-5.0748,-5.0749,-5.0757,-5.0712,-5.074,-5.0748,-5.074,-5.0693,-5.0683,-5.0683,-5.0087,-4.8702,-4.7375,-4.6471,-4.5864,-4.571,-4.5594,-4.5594,-4.5594,-4.5594,-4.5594,-4.5594,-4.5594,-4.5594,-4.5594,-4.5594,-4.5594,-4.5594,-4.5594,-4.5248,-4.4913,-4.4432,-4.4028,-4.297,-4.2181,-4.17,-4.1143,-4.0739,-4.0496,-4.0496,-4.0496,-4.0496,-4.0496,-4.0496,-4.0496,-4.0496,-4.0496,-4.0496,-4.0496,-4.0496,-4.0496,-4.0496,-4.0496,-4.0496,-4.0571,-4.0587,-4.0745,-4.0899,-4.1016,-4.1133,-4.1172,-4.1191,-4.1191,-4.1191,-4.1191,-4.1191,-4.1191,-4.1191,-4.1191,-4.1191,-4.1191,-4.1191,-4.1191,-4.1191,-4.1191,-4.1191,-4.1191,-4.1191,-4.1191,-4.1191,-4.1191,-4.1191,-4.1191,-4.1172,-4.1127,-4.1,-4.086,-4.0685,-4.0556,-4.0515,-4.0504,-4.0512,-4.0512,-4.054,-4.0647,-4.077,-4.0843,-4.0942,-4.1108,-4.1055,-4.0918,-4.0723,-4.0293]},{"header":{"parameterUnit":"m.s-1","parameterCategory":1,"la1":31.0,"la2":29.5877,"lo1":-88.7671,"lo2":-86.6584,"dy":0.0162,"dx":0.0185,"nx":115,"ny":88,"refTime":"2023-05-03T06:00:00:Z","depth":0,"parameterNumber":3,"parameterNumberName":"V-component_of_WINDS"},"data":[0.0,0.0,0.0,0.0,0.0,0.0,0.0,0.0,0.0,0.0,0.0,0.0,0.0,0.0,0.0,0.0,0.0,0.0,0.0,0.0,0.0,0.0,0.0,0.0,0.0,0.0,0.0,0.0,0.0,0.0,0.0,0.0,0.0,0.0,0.0,0.0,0.0,0.0,0.0,0.0,0.0,0.0,0.0,0.0,0.0,0.0,0.0,0.0,0.0,0.0,0.0,0.0,0.0,0.0,0.0,0.0,0.0,0.0,0.0,0.0,0.0,0.0,0.0,0.0,0.0,0.0,0.0,0.0,0.0,0.0,0.0,0.0,0.0,0.0,0.0,0.0,0.0,0.0,0.0,0.0,0.0,0.0,0.0,0.0,0.0,0.0,0.0,0.0,0.0,0.0,0.0,0.0,0.0,0.0,0.0,0.0,0.0,0.0,0.0,0.0,0.0,0.0,0.0,0.0,0.0,0.0,0.0,0.0,0.0,0.0,0.0,0.0,0.0,0.0,0.0,0.0,0.0,0.0,0.0,0.0,0.0,0.0,0.0,0.0,0.0,0.0,0.0,0.0,0.0,0.0,0.0,0.0,0.0,0.0,0.0,0.0,0.0,0.0,0.0,0.0,0.0,0.0,0.0,0.0,0.0,0.0,0.0,0.0,0.0,0.0,0.0,0.0,0.0,0.0,0.0,0.0,0.0,0.0,0.0,0.0,0.0,0.0,0.0,0.0,0.0,0.0,0.0,0.0,0.0,0.0,0.0,0.0,0.0,0.0,0.0,0.0,0.0,0.0,0.0,0.0,0.0,0.0,0.0,0.0,0.0,0.0,0.0,0.0,0.0,0.0,0.0,0.0,0.0,0.0,0.0,0.0,0.0,0.0,0.0,0.0,0.0,0.0,0.0,0.0,0.0,0.0,0.0,0.0,0.0,0.0,0.0,0.0,0.0,0.0,0.0,0.0,0.0,0.0,0.0,0.0,0.0,0.0,0.0,0.0,0.0,0.0,0.0,0.0,0.0,0.0,0.0,0.0,0.0,0.0,0.0,0.0,0.0,0.0,0.0,0.0,0.0,0.0,0.0,0.0,0.0,0.0,0.0,0.0,0.0,0.0,0.0,0.0,0.0,0.0,0.0,0.0,0.0,0.0,0.0,0.0,0.0,0.0,0.0,0.0,0.0,0.0,0.0,0.0,0.0,0.0,0.0,0.0,0.0,0.0,0.0,0.0,0.0,0.0,0.0,0.0,0.0,0.0,0.0,0.0,0.0,0.0,0.0,0.0,0.0,0.0,0.0,0.0,0.0,0.0,0.0,0.0,0.0,0.0,0.0,0.0,0.0,0.0,0.0,0.0,0.0,0.0,0.0,0.0,0.0,0.0,0.0,0.0,0.0,0.0,0.0,0.0,0.0,0.0,0.0,0.0,0.0,0.0,0.0,0.0,0.0,0.0,0.0,0.0,0.0,0.0,0.0,0.0,0.0,0.0,0.0,0.0,0.0,0.0,0.0,0.0,0.0,0.0,0.0,0.0,0.0,0.0,0.0,0.0,0.0,0.0,0.0,0.0,0.0,0.0,0.0,0.0,0.0,0.0,0.0,0.0,0.0,0.0,0.0,0.0,0.0,0.0,0.0,0.0,0.0,0.0,0.0,0.0,0.0,0.0,0.0,0.0,0.0,0.0,0.0,0.0,0.0,0.0,0.0,0.0,0.0,0.0,0.0,0.0,0.0,0.0,0.0,0.0,0.0,0.0,0.0,0.0,0.0,0.0,0.0,0.0,0.0,0.0,0.0,0.0,0.0,0.0,0.0,0.0,0.0,0.0,0.0,0.0,0.0,0.0,0.0,0.0,0.0,0.0,0.0,0.0,0.0,0.0,0.0,0.0,0.0,0.0,0.0,0.0,0.0,0.0,0.0,0.0,0.0,0.0,0.0,0.0,0.0,0.0,0.0,0.0,0.0,0.0,0.0,0.0,0.0,0.0,0.0,0.0,0.0,0.0,0.0,0.0,0.0,0.0,0.0,0.0,0.0,0.0,0.0,0.0,0.0,0.0,0.0,0.0,0.0,0.0,0.0,0.0,0.0,0.0,0.0,0.0,0.0,0.0,0.0,0.0,0.0,0.0,0.0,0.0,0.0,0.0,0.0,0.0,0.0,0.0,0.0,0.0,0.0,0.0,0.0,0.0,0.0,0.0,0.0,0.0,0.0,0.0,0.0,0.0,0.0,0.0,0.0,0.0,0.0,0.0,0.0,0.0,0.0,0.0,0.0,0.0,0.0,0.0,0.0,0.0,0.0,0.0,0.0,0.0,0.0,0.0,0.0,0.0,0.0,0.0,0.0,0.0,0.0,0.0,0.0,0.0,0.0,0.0,0.0,0.0,0.0,0.0,0.0,0.0,0.0,0.0,0.0,0.0,0.0,0.0,0.0,0.0,0.0,0.0,0.0,0.0,0.0,0.0,0.0,0.0,0.0,0.0,0.0,0.0,0.0,0.0,0.0,0.0,0.0,0.0,0.0,0.0,0.0,0.0,0.0,0.0,0.0,0.0,0.0,0.0,0.0,0.0,0.0,0.0,0.0,0.0,0.0,0.0,0.0,0.0,0.0,0.0,0.0,0.0,0.0,0.0,0.0,0.0,0.0,0.0,0.0,0.0,0.0,0.0,0.0,0.0,0.0,0.0,0.0,0.0,0.0,0.0,0.0,0.0,0.0,0.0,0.0,0.0,0.0,0.0,0.0,0.0,0.0,0.0,0.0,0.0,0.0,0.0,0.0,0.0,0.0,0.0,0.0,0.0,0.0,0.0,0.0,0.0,0.0,0.0,0.0,0.0,0.0,0.0,0.0,0.0,0.0,0.0,0.0,0.0,0.0,0.0,0.0,0.0,0.0,0.0,0.0,0.0,0.0,0.0,0.0,0.0,0.0,0.0,0.0,0.0,0.0,0.0,0.0,0.0,0.0,0.0,0.0,0.0,0.0,0.0,0.0,0.0,0.0,0.0,0.0,0.0,0.0,0.0,0.0,0.0,0.0,0.0,0.0,0.0,0.0,0.0,0.0,0.0,0.0,0.0,0.0,0.0,0.0,0.0,0.0,0.0,0.0,0.0,0.0,0.0,0.0,0.0,0.0,0.0,0.0,0.0,0.0,0.0,0.0,0.0,0.0,0.0,0.0,0.0,0.0,0.0,0.0,0.0,0.0,0.0,0.0,0.0,0.0,0.0,0.0,0.0,0.0,0.0,0.0,0.0,0.0,0.0,0.0,0.0,0.0,0.0,0.0,0.0,0.0,0.0,0.0,0.0,0.0,0.0,0.0,0.0,0.0,0.0,0.0,0.0,0.0,0.0,0.0,0.0,0.0,0.0,0.0,0.0,0.0,0.0,0.0,0.0,0.0,0.0,0.0,0.0,0.0,0.0,0.0,0.0,0.0,0.0,0.0,0.0,0.0,0.0,0.0,0.0,0.0,0.0,0.0,0.0,0.0,0.0,0.0,0.0,0.0,0.0,0.0,0.0,0.0,0.0,0.0,0.0,0.0,0.0,0.0,0.0,0.0,0.0,0.0,0.0,0.0,0.0,0.0,0.0,0.0,0.0,0.0,0.0,0.0,0.0,0.0,0.0,0.0,0.0,0.0,0.0,0.0,0.0,0.0,0.0,0.0,0.0,0.0,0.0,0.0,0.0,0.0,0.0,0.0,0.0,0.0,0.0,0.0,0.0,0.0,0.0,0.0,0.0,0.0,0.0,0.0,0.0,0.0,0.0,0.0,0.0,0.0,0.0,0.0,0.0,0.0,0.0,0.0,0.0,0.0,0.0,0.0,0.0,0.0,0.0,0.0,0.0,0.0,0.0,0.0,0.0,0.0,0.0,0.0,0.0,0.0,0.0,0.0,0.0,0.0,0.0,0.0,0.0,0.0,0.0,0.0,0.0,0.0,0.0,0.0,0.0,0.0,0.0,0.0,0.0,0.0,0.0,0.0,0.0,0.0,0.0,0.0,0.0,0.0,0.0,0.0,0.0,0.0,0.0,0.0,0.0,0.0,0.0,0.0,0.0,0.0,0.0,0.0,0.0,0.0,0.0,0.0,0.0,0.0,0.0,0.0,0.0,0.0,0.0,0.0,0.0,0.0,0.0,0.0,0.0,0.0,0.0,0.0,0.0,0.0,0.0,0.0,0.0,0.0,0.0,0.0,0.0,0.0,0.0,0.0,0.0,0.0,0.0,0.0,0.0,0.0,0.0,0.0,0.0,0.0,0.0,0.0,0.0,0.0,0.0,0.0,0.0,-0.014,0.0,0.0,0.0,0.0,0.0,0.0,0.0,0.0,0.0,0.0,0.0,0.0,0.0,0.0,0.0,0.0,0.0,0.0,0.0,0.0,0.0,0.0,0.0,0.0,0.0,0.0,0.0,0.0,0.0,0.0,0.0,0.0,0.0,0.0,0.0,0.0,0.0,0.0,0.0,0.0,0.0,0.0,0.0,0.0,0.0,0.0,0.0,0.0,0.0,0.0,0.0,0.0,0.0,0.0,0.0,0.0,0.0,0.0,0.0,0.0,0.0,0.0,0.0,0.0,0.0,0.0,0.0,0.0,0.0,0.0,0.0,0.0,0.0,0.0,0.0,0.0,0.0,0.0,0.0,0.0,0.0,0.0,0.0,0.0,0.0,0.0,0.0,0.0,0.0,0.0,0.0,0.0,0.0,0.0,0.0,0.0,0.0,0.0,0.0,0.0,0.0,0.0,0.0,0.0,0.0,0.0,0.0,0.0,0.0,0.0,0.0,0.0,0.0,0.0,0.0,0.0,0.0,0.0,0.0,0.0,0.0,0.0,0.0,0.0,0.0,0.0,0.0,0.0,0.0,0.0,0.0,0.0,0.0,0.0,0.0,0.0,0.0,0.0,0.0,0.0,0.0,0.0,0.0,0.0,0.0,0.0,0.0,0.0,0.0,0.0,0.0,0.0,0.0,0.0,0.0,0.0,0.0,0.0,0.0,0.0,0.0,0.0,0.0,0.0,0.0,0.0,0.0,0.0,0.0,0.0,0.0,0.0,0.0,0.0,0.0,0.0,0.0,0.0,0.0,0.0,0.0,0.0,0.0,0.0,0.0,0.0,0.0,0.0,0.0,0.0,0.0,0.0,0.0,0.0,0.0,0.0,0.0,0.0,0.0,0.0,0.0,0.0,0.0,0.0,0.0,0.0,0.0,0.0,0.0,0.0,0.0,0.0,0.0,0.0,0.0,0.0,0.0,0.0,0.0,0.0,0.0,0.0,0.0,0.0,0.0,0.0,0.0,0.0,0.0,0.0,0.0,0.0,0.0,0.0,0.0,0.0,0.0,0.0,0.0,0.0,0.0,0.0,0.0,0.0,0.0,0.0,0.0,0.0,0.0,0.0,0.0,0.0,0.0,0.0,0.0,0.0,0.0,0.0,0.0,0.0,0.0,0.0,0.0,0.0,0.0,0.0,0.0,0.0,0.0,0.0,0.0,0.0,0.0,0.0,0.0,0.0,0.0,0.0,0.0,0.0,0.0,0.0,0.0,0.0,0.0,0.0,0.0,0.0,0.0,0.0,0.0,0.0,0.0,0.0,0.0,0.0,0.0,0.0,0.0,0.0,0.0,0.0,0.0,0.0,0.0,0.0,0.0,0.0,0.0,0.0,0.0,0.0,0.0,0.0,0.0,0.0,0.0,0.0,0.0,0.0,0.0,0.0,0.0,0.0,0.0,0.0,0.0,0.0,0.0,0.0,0.0,0.0,0.0,0.0,0.0,0.0,0.0,0.0,0.0,0.0,0.0,0.0,0.0,0.0,0.0,0.0,0.0,0.0,0.0,0.0,0.0,0.0,0.0,0.0,0.0,0.0,0.0,0.0,0.0,0.0,0.0,0.0,0.0,0.0,0.0,0.0,0.0,0.0,0.0,0.0,0.0,0.0,0.0,0.0,0.0,0.0,0.0,0.0,0.0,0.0,0.0,0.0,0.0,0.0,0.0,0.0,0.0,0.0,0.0,0.0,0.0,0.0,0.0,0.0,0.0,0.0,0.0,0.0,0.0,0.0,0.0,0.0,0.0,0.0,0.0,0.0,0.0,0.0,0.0,0.0,0.0,0.0,0.0,0.0,0.0,0.0,0.0,0.0,0.0,0.0,0.0,0.0,0.0,0.0,0.0,0.0,0.0,0.0,0.0,0.0,0.0,0.0,0.0,0.0,0.0,0.0,0.0,0.0,0.0,0.0,0.0,0.0,0.0,0.0,0.0,0.0,0.0,0.0,0.0,0.0,0.0,0.0,0.0,0.0,0.0,0.0,0.0,0.0,0.0,0.0,0.0,0.0,0.0,0.0,0.0,0.0,0.0,0.0,0.0,0.0,0.0,0.0,0.0,0.0,0.0,0.0,0.0,0.0,0.0,0.0,0.0,0.0,0.0,0.0,0.0,0.0,0.0,0.0,0.0,0.0,0.0,0.0,0.0,0.0,0.0,0.0,0.0,0.0,0.0,0.0,0.0,0.0,0.0,0.0,0.0,0.0,0.0,0.0,0.0,0.0,0.0,0.0,0.0,0.0,0.0,0.0,0.0,0.0,0.0,0.0,0.0,0.0,0.0,0.0,0.0,0.0,0.0,0.0,0.0,0.0,0.0,0.0,0.0,0.0,0.0,0.0,0.0,0.0,0.0,0.0,0.0,0.0,0.0,0.0,0.0,0.0,0.0,0.0,0.0,0.0,0.0,0.0,0.0,0.0,0.0,0.0,0.0,0.0,0.0,0.0,0.0,0.0,0.0,0.0,0.0,0.0,0.0,0.0,0.0,0.0,0.0,0.0,0.0,0.0,0.0,0.0,0.0,0.0,0.0,0.0,0.0,0.0,0.0,0.0,0.0,0.0,0.0,0.0,0.0,0.0,0.0,0.0,0.0,0.0,0.0,0.0,0.0,0.0,0.0,0.0,0.0,0.0,0.0,0.0,0.0,0.0,0.0,0.0,0.0,0.0,0.0,0.0,0.0,0.0,0.0,0.0,0.0,0.0,0.0,0.0,0.0,0.0,0.0,0.0,0.0,0.0,0.0,0.0,0.0,0.0,0.0,0.0,0.0,0.0,0.0,0.0,0.0,0.0,0.0,0.0,0.0,0.0,0.0,0.0,0.0,0.0,0.0,0.0,0.0,0.0,0.0,0.0,0.0,0.0,0.0,0.0,0.0,0.0,0.0,0.0,0.0,0.0,0.0,0.0,0.0,0.0,0.0,0.0,0.0,0.0,0.0,0.0,0.0,0.0,0.0,0.0,0.0,0.0,0.0,0.0,0.0,0.0,0.0,0.0,0.0,0.0,0.0,0.0,0.0,0.0,0.0,0.0,0.0,0.0,0.0,0.0,0.0,0.0,0.0,0.0,0.0,0.0,0.0,0.0,0.0,0.0,0.0,0.0,0.0,0.0,0.0,0.0,0.0,0.0,0.0,0.0,0.0,0.0,0.0,0.0,0.0,0.0,0.0,0.0,0.0,0.0,0.0,0.0,0.0,0.0,0.0,0.0,0.0,0.0,0.0,0.0,0.0,0.0,0.0,0.0,0.0,0.0,0.0,0.0,0.0,0.0,0.0,0.0,0.0,0.0,0.0,0.0,0.0,0.0,0.0,0.0,0.0,0.0,0.0,0.0,0.0,0.0,0.0,0.0,0.0,0.0,0.0,0.0,0.0,0.0,0.0,0.0,0.0,0.0,0.0,0.0,0.0,0.0,0.0,0.0,0.0,0.0,0.0,0.0,0.0,0.0,0.0,0.0,0.0,0.0,0.0,0.0,0.0,0.0,0.0,0.0,0.0,0.0,0.0,0.0,0.0,0.0,0.0,0.0,0.0,0.0,0.0,0.0,0.0,0.0,0.0,0.0,0.0,0.0,0.0,0.0,0.0,0.0,0.0,0.0,0.0,0.0,0.0,0.0,0.0,0.0,0.0,0.0,0.0,0.0,0.0,0.0,0.0,0.0,0.0,0.0,0.0,0.0,0.0,0.0,0.0,0.0,0.0,0.0,0.0,0.0,0.0,0.0,0.0,0.0,0.0,0.0,0.0,0.0,0.0,0.0,0.0,0.0,0.0,0.0,0.0,0.0,0.0,0.0,0.0,0.0,0.0,0.0,0.0,0.0,0.0,0.0,0.0,0.0,0.0,0.0,0.0,0.0,0.0,0.0,0.0,0.0,0.0,0.0,0.0,0.0,0.0,0.0,0.0,0.0,0.0,0.0,0.0,0.0,0.0,0.0,0.0,0.0,0.0,0.0,0.0,0.0,0.0,0.0,0.0,0.0,0.0,0.0,0.0,0.0,0.0,0.0,0.0,0.0,0.0,0.0,0.0,0.0,0.0,0.0,0.0,0.0,0.0,0.0,0.0,0.0,0.0,0.0,0.0,0.0,0.0,0.0,0.0,0.0,0.0,0.0,0.0,0.0,0.0,0.0,0.0,0.0,0.0,0.0,0.0,0.0,0.0,0.0,0.0,0.0,0.0,0.0,0.0,0.0,0.0,0.0,0.0,0.0,0.0,0.0,0.0,0.0,0.0,0.0,0.0,0.0,0.0,0.0,0.0,0.0,0.0,0.0,0.0,0.0,0.0,0.0,0.0,0.0,0.0,0.0,0.0,0.0,0.0,0.0,0.0,0.0,0.0,0.0,0.0,0.0,0.0,0.0,0.0,0.0,0.0,0.0,0.0,0.0,0.0,0.0,0.0,0.0,0.0,0.0,0.0,0.0,0.0,0.0,0.0,0.0,0.0,0.0,0.0,0.0,0.0,0.0,0.0,0.0,0.0,0.0,0.0,0.0,0.0,0.0,0.0,0.0,0.0,0.0,0.0,0.0,0.0,0.0,0.0,0.0,0.0,0.0,0.0,0.0,0.0,0.0,0.0,0.0,0.0,0.0,0.0,0.0,0.0,0.0,0.0,0.0,0.0,0.0,0.0,0.0,0.0,0.0,0.0,0.0,0.0,0.0,0.0,0.0,0.0,0.0,0.0,0.0,0.0,0.0,0.0,0.0,0.0,0.0,0.0,0.0,0.0,0.0,0.0,0.0,0.0,0.0,0.0,0.0,0.0,0.0,0.0,0.0,0.0,0.0,0.0,0.0,0.0,0.0,0.0,0.0,0.0,0.0,0.0,0.0,0.0,0.0,0.0,0.0,0.0,0.0,0.0,0.0,0.0,0.0,0.0,0.0,0.0,0.0,0.0,0.0,0.0,0.0,0.0,0.0,0.0,0.0,0.0,0.0,0.0,0.0,0.0,0.0,0.0,0.0,0.0,0.0,0.0,0.0,0.0,0.0,0.0,0.0,0.0,0.0,0.0,0.0,0.0,0.0,0.0,0.0,0.0,0.0,0.0,0.0,0.0,0.0,0.0,0.0,0.0,0.0,0.0,0.0,0.0,0.0,0.0,0.0,0.0,0.0,0.0,0.0,0.0,0.0,0.0,0.0,0.0,0.0,0.0,0.0,0.0,0.0,0.0,0.0,0.0,0.0,0.0,0.0,0.0,0.0,0.0,0.0,0.0,0.0,0.0,0.0,0.0,0.0,0.0,0.0,0.0,0.0,0.0,0.0,0.0,0.0,0.0,0.0,0.0,0.0,0.0,0.0,0.0,0.0,0.0,0.0,0.0,0.0,0.0,0.0,0.0,0.0,0.0,0.0,0.0,0.0,0.0,0.0,0.0,0.0,0.0,0.0,0.0,0.0,0.0,0.0,0.0,0.0,0.0,0.0,0.0,0.0,0.0,0.0,0.0,0.0,0.0,0.0,0.0,0.0,0.0,0.0,0.0,0.0,0.0,0.0,0.0,0.0,0.0,0.0,0.0,0.0,0.0,0.0,0.0,0.0,0.0,0.0,0.0,0.0,0.0,0.0,0.0,0.0,0.0,0.0,0.0,0.0,0.0,0.0,0.0,0.0,0.0,0.0,0.0,0.0,0.0,0.0,0.0,0.0,0.0,0.0,0.0,0.0,0.0,0.0,0.0,0.0,0.0,0.0,0.0,0.0,0.0,0.0,0.0,0.0,0.0,0.0,0.0,0.0,0.0,0.0,0.0,0.0,0.0,0.0,0.0,0.0,0.0,0.0,0.0,0.0,0.0,0.0,0.0,0.0,0.0,0.0,0.0,0.0,0.0,0.0,0.0,0.0,0.0,0.0,0.0,0.0,0.0,0.0,0.0,0.0,0.0,0.0,0.0,0.0,0.0,0.0,0.0,0.0,0.0,0.0,0.0,0.0,0.0,0.0,0.0,0.0,0.0,0.0,0.0,0.0,0.0,0.0,0.0,0.0,0.0,0.0,0.0,0.0,0.0,0.0,0.0,0.0,0.0,0.0,0.0,0.0,0.0,0.0,0.0,0.0,0.0,0.0,0.0,0.0,0.0,0.0,0.0,0.0,0.0,0.0,0.0,0.0,0.0,0.0,0.0,0.0,0.0,0.0,0.0,0.0,0.0,0.0,0.0,0.0,0.0,0.0,0.0,0.0,0.0,0.0,0.0,0.0,0.0,0.0,0.0,0.0,0.0,0.0,0.0,0.0,0.0,0.0,0.0,0.0,0.0,0.0,0.0,0.0,0.0,0.0,0.0,0.0,0.0,0.0,0.0,0.0,0.0,0.0,0.0,0.0,0.0,0.0,0.0,0.0,0.0,0.0,0.0,0.0,0.0,0.0,0.0,0.0,0.0,0.0,0.0,0.0,0.0,0.0,0.0,0.0,0.0,0.0,0.0,0.0,0.0,0.0,0.0,0.0,0.0,0.0,0.0,0.0,0.0,0.0,0.0,0.0,0.0,0.0,0.0,0.0,0.0,0.0,0.0,0.0,0.0,0.0,0.0,0.0,0.0,0.0,0.0,0.0,0.0,0.0,0.0,0.0,0.0,0.0,0.0,0.0,0.0,0.0,0.0,0.0,0.0,0.0,0.0,0.0,0.0,0.0,0.0,0.0,0.0,0.0,0.0,0.0,0.0,0.0,0.0,0.0,0.0,0.0,0.0,0.0,0.0,0.0,0.0,0.0,0.0,0.0,0.0,0.0,0.0,0.0,0.0,0.0,0.0,0.0,0.0,0.0,0.0,0.0,0.0,0.0,0.0,0.0,0.0,0.0,0.0,0.0,0.0,0.0,0.0,0.0,0.0,0.0,0.0,0.0,0.0,0.0,0.0,0.0,0.0,0.0,0.0,0.0,0.0,0.0,0.0,0.0,0.0,0.0,0.0,0.0,0.0,0.0,0.0,0.0,0.0,0.0,0.0,0.0,0.0,0.0,0.0,0.0,0.0,0.0,0.0,0.0,0.0,0.0,0.0,0.0,0.0,0.0,0.0,0.0,0.0,0.0,0.0,0.0,0.0,0.0,0.0,0.0,0.0,0.0,0.0,0.0,0.0,0.0,0.0,0.0,0.0,0.0,0.0,0.0,0.0,0.0,0.0,0.0,0.0,0.0,0.0,0.0,0.0,0.0,0.0,0.0,0.0,0.0,0.0,0.0,0.0,0.0,0.0,0.0,0.0,0.0,0.0,0.0,0.0,0.0,0.0,0.0,0.0,0.0,0.0,0.0,0.0,0.0,0.0,0.0,0.0,0.0,0.0,0.0,0.0,0.0,0.0,0.0,0.0,0.0,0.0,0.0,0.0,0.0,0.0,0.0,0.0,0.0,0.0,0.0,0.0,0.0,0.0,0.0,0.0,0.0,0.0,0.0,0.0,0.0,0.0,0.0,0.0,0.0,0.0,0.0,0.0,0.0,0.0,0.0,0.0,0.0,0.0,0.0,0.0,0.0,0.0,0.0,0.0,0.0,0.0,0.0,0.0,0.0,0.0,0.0,0.0,0.0,0.0,0.0,0.0,0.0,0.0,0.0,0.0,0.0,0.0,0.0,0.0,0.0,0.0,0.0,0.0,0.0,0.0,0.0,0.0,0.0,0.0,0.0,0.0,0.0,0.0,0.0,0.0,0.0,0.0,0.0,0.0,0.0,0.0,0.0,0.0,0.0,0.0,0.0,0.0,0.0,0.0,0.0,0.0,0.0,0.0,0.0,0.0,0.0,0.0,0.0,0.0,0.0,0.0,0.0,0.0,0.0,0.0,0.0,0.0,0.0,0.0,0.0,0.0,0.0,0.0,0.0,0.0,0.0,0.0,0.0,0.0,0.0,0.0,0.0,0.0,0.0,0.0,0.0,0.0,0.0,0.0,0.0,0.0,0.0,0.0,0.0,0.0,0.0,0.0,0.0,0.0,0.0,0.0,0.0,0.0,0.0,0.0,0.0,0.0,0.0,0.0,0.0,0.0,0.0,0.0,0.0,0.0,0.0,0.0,0.0,0.0,0.0,0.0,0.0,0.0,0.0,0.0,0.0,0.0,0.0,0.0,0.0,0.0,0.0,0.0,0.0,0.0,0.0,0.0,0.0,0.0,0.0,0.0,0.0,0.0,0.0,0.0,0.0,0.0,0.0,0.0,0.0,0.0,0.0,0.0,0.0,0.0,0.0,0.0,0.0,0.0,0.0,0.0,0.0,0.0,0.0,0.0,0.0,0.0,0.0,0.0,0.0,0.0,0.0,0.0,0.0,0.0,0.0,0.0,0.0,0.0,0.0,0.0,0.0,0.0,0.0,0.0,0.0,0.0,0.0,0.0,0.0,0.0,0.0,0.0,0.0,0.0,0.0,0.0,0.0,0.0,0.0,0.0,0.0,0.0,0.0,0.0,0.0,0.0,0.0,0.0,0.0,0.0,0.0,0.0,0.0,0.0,0.0,0.0,0.0,0.0,0.0,0.0,0.0,0.0,0.0,0.0,0.0,0.0,0.0,0.0,0.0,0.0,0.0,0.0,0.0,0.0,0.0,0.0,0.0,0.0,0.0,0.0,0.0,0.0,0.0,0.0,0.0,0.0,0.0,0.0,0.0,0.0,0.0,0.0,0.0,0.0,0.0,0.0,0.0,0.0,0.0,0.0,0.0,0.0,0.0,0.0,0.0,0.0,0.0,0.0,0.0,0.0,0.0,0.0,0.0,0.0,0.0,0.0,0.0,0.0,0.0,0.0,0.0,0.0,0.0,0.0,0.0,0.0,0.0,0.0,0.0,0.0,0.0,0.0,0.0,0.0,0.0,0.0,0.0,0.0,0.0,0.0,0.0,0.0,0.0,0.0,0.0,0.0,0.0,0.0,0.0,0.0,0.0,0.0,0.0,0.0,0.0,0.0,0.0,0.0,0.0,0.0,0.0,0.0,0.0,0.0,0.0,0.0,0.0,0.0,0.0,0.0,0.0,0.0,0.0,0.0,0.0,0.0,0.0,0.0,0.0,0.0,0.0,0.0,0.0,0.0,0.0,0.0,0.0,0.0,0.0,0.0,0.0,0.0,0.0,0.0,0.0,0.0,0.0,0.0,0.0,0.0,0.0,0.0,0.0,0.0,0.0,0.0,0.0,0.0,0.0,0.0,0.0,0.0,0.0,0.0,0.0,0.0,0.0,0.0,0.0,0.0,0.0,0.0,0.0,0.0,0.0,0.0,0.0,0.0,0.0,0.0,0.0,0.0,0.0,0.0,0.0,0.0,0.0,0.0,0.0,0.0,0.0,0.0,0.0,0.0,0.0,0.0,0.0,0.0,0.0,-0.1211,-0.0575,0.0,0.0,0.0,0.0,0.0,0.0,0.0,0.0,0.0,0.0,0.0,0.0,0.0,0.0,0.0,0.0,0.0,0.0,0.0,0.0,0.0,0.0,0.0,0.0,0.0,0.0,0.0,0.0,0.0,0.0,0.0,0.0,0.0,0.0,0.0,0.0,0.0,0.0,0.0,0.0,0.0,0.0,0.0,0.0,0.0,0.0,0.0,0.0,0.0,0.0,0.0,0.0,0.0,0.0,0.0,0.0,0.0,0.0,0.0,0.0,0.0,0.0,0.0,0.0,0.0,0.0,0.0,0.0,0.0,0.0,0.0,0.0,0.0,0.0,0.0,0.0,0.0,0.0,0.0,0.0,0.0,0.0,0.0,0.0,0.0,0.0,0.0,0.0,0.0,0.0,0.0,0.0,0.0,0.0,0.0,0.0,0.0,0.0,0.0,0.0,0.0,0.0,0.0,0.0,0.0,0.0,0.0,0.0,0.0,0.0,0.0,0.0,0.0,0.0,-0.1,-0.0692,0.0,0.0,0.0,0.0,0.0,0.0,0.0,0.0,0.0,0.0,0.0,0.0,0.0,0.0,0.0,0.0,0.0,0.0,0.0,0.0,0.0,0.0,0.0,0.0,0.0,0.0,0.0,0.0,0.0,0.0,0.0,0.0,0.0,0.0,0.0,0.0,0.0,0.0,0.0,0.0,0.0,0.0,0.0,0.0,0.0,0.0,0.0,0.0,0.0,0.0,0.0,0.0,0.0,0.0,0.0,0.0,0.0,0.0,0.0,0.0,0.0,0.0,0.0,0.0,0.0,0.0,0.0,0.0,0.0,0.0,0.0,0.0,0.0,0.0,0.0,0.0,0.0,0.0,0.0,0.0,0.0,0.0,0.0,0.0,0.0,0.0,0.0,0.0,0.0,0.0,0.0,0.0,0.0,0.0,0.0,0.0,0.0,0.0,0.0,0.0,0.0,0.0,0.0,0.0,0.0,0.0,0.0,0.0,0.0,0.0,0.0,0.0,0.0,-0.0783,-0.041,-0.0061,0.0,0.0,0.0,0.0,0.0,0.0,0.0,0.0,0.0,0.0,0.0,0.0,0.0,0.0,0.0,0.0,0.0,0.0,0.0,0.0,0.0,0.0,0.0,0.0,0.0,0.0,0.0,0.0,0.0,0.0,0.0,0.0,0.0,0.0,0.0,0.0,0.0,0.0,0.0,0.0,0.0,0.0,0.0,0.0,0.0,0.0,0.0,0.0,0.0,0.0,0.0,0.0,0.0,0.0,0.0,0.0,0.0,0.0,0.0,0.0,0.0,0.0,0.0,0.0,0.0,0.0,0.0,0.0,0.0,0.0,0.0,0.0,0.0,0.0,0.0,0.0,0.0,0.0,0.0,0.0,0.0,0.0,0.0,0.0,0.0,0.0,0.0,0.0,0.0,0.0,0.0,0.0,0.0,0.0,0.0,0.0,0.0,0.0,0.0,0.0,0.0,0.0,0.0,0.0,0.0,0.0,0.0,0.0,0.0,0.0,0.0,0.0,0.0,-0.0327,0.0,0.0,0.0,0.0,0.0,0.0,0.0,0.0,0.0,0.0,0.0,0.0,0.0,0.0,0.0,0.0,0.0,0.0,0.0,0.0,0.0,0.0,0.0,0.0,0.0,0.0,0.0,0.0,0.0,0.0,0.0,0.0,0.0,0.0,0.0,0.0,0.0,0.0,0.0,0.0,0.0,0.0,0.0,0.0,0.0,0.0,0.0,0.0,0.0,0.0,0.0,0.0,0.0,0.0,0.0,0.0,0.0,0.0,0.0,0.0,0.0,0.0,0.0,0.0,0.0,0.0,0.0,0.0,0.0,0.0,0.0,0.0,0.0,0.0,0.0,0.0,0.0,0.0,0.0,0.0,0.0,0.0,0.0,0.0,0.0,0.0,0.0,0.0,0.0,0.0,0.0,0.0,0.0,0.0,0.0,0.0,0.0,0.0,0.0,0.0,0.0,0.0,0.0,0.0,0.0,0.0,0.0,0.0,0.0,0.0,0.0,0.0,0.0,0.0,-0.1483,-0.0184,0.0,0.0,0.0,0.0,0.0,0.0,0.0,0.0,0.0,0.0,0.0,0.0,0.0,0.0,0.0,0.0,0.0,0.0,0.0,0.0,0.0,0.0,0.0,0.0,0.0,0.0,0.0,0.0,0.0,0.0,0.0,0.0,0.0,0.0,0.0,0.0,0.0,0.0,0.0,0.0,0.0,0.0,0.0,0.0,0.0,0.0,0.0,0.0,0.0,0.0,0.0,0.0,0.0,0.0,0.0,0.0,0.0,0.0,0.0,0.0,0.0,0.0,0.0,0.0,0.0,0.0,0.0,0.0,0.0,0.0,0.0,0.0,0.0,0.0,0.0,0.0,0.0,0.0,0.0,0.0,0.0,0.0,0.0,0.0,0.0,0.0,0.0,0.0,0.0,0.0,0.0,0.0,0.0,0.0,0.0,0.0,0.0,0.0,0.0,0.0,0.0,0.0,0.0,0.0,0.0,0.0,0.0,0.0,0.0,0.0,0.0,0.0,0.0,0.0,-0.0216,-0.0427,0.0,0.0,0.0,0.0,0.0,0.0,0.0,0.0,0.0,0.0,0.0,0.0,0.0,0.0,0.0,0.0,0.0,0.0,0.0,0.0,0.0,0.0,0.0,0.0,0.0,0.0,0.0,0.0,0.0,0.0,0.0,0.0,0.0,0.0,0.0,0.0,0.0,0.0,0.0,0.0,0.0,0.0,0.0,0.0,0.0,0.0,0.0,0.0,0.0,0.0,0.0,0.0,0.0,0.0,0.0,0.0,0.0,0.0,0.0,0.0,0.0,0.0,0.0,0.0,0.0,0.0,0.0,0.0,0.0,0.0,0.0,0.0,0.0,0.0,0.0,0.0,0.0,0.0,0.0,0.0,0.0,0.0,0.0,0.0,0.0,0.0,0.0,0.0,0.0,0.0,0.0,0.0,0.0,0.0,0.0,0.0,0.0,-0.4539,0.0,0.0,0.0,0.0,0.0,0.0,0.0,0.0,0.0,0.0,0.0,0.0,0.0,0.0,-0.2151,-0.0493,-0.0862,-0.0997,0.0,0.0,0.0,0.0,0.0,0.0,0.0,0.0,0.0,0.0,0.0,0.0,0.0,0.0,0.0,0.0,0.0,0.0,0.0,0.0,0.0,0.0,0.0,0.0,0.0,0.0,0.0,0.0,0.0,0.0,0.0,0.0,0.0,0.0,0.0,0.0,0.0,0.0,0.0,0.0,0.0,0.0,0.0,0.0,0.0,0.0,0.0,0.0,0.0,0.0,0.0,0.0,0.0,0.0,0.0,0.0,0.0,0.0,0.0,0.0,0.0,0.0,0.0,0.0,0.0,0.0,0.0,0.0,0.0,0.0,0.0,0.0,0.0,0.0,0.0,0.0,0.0,0.0,0.0,0.0,0.0,0.0,0.0,0.0,0.0,0.0,0.0,0.0,0.0,0.0,0.0,0.0,0.0,0.0,0.0,0.0,0.0,0.0,0.0,0.0,0.0,0.0,0.0,0.0,0.0,0.0,0.0,0.0,0.0,0.0,0.0,-0.2917,-0.1261,-0.117,-0.0997,0.0,0.0,0.0,0.0,0.0,0.0,0.0,0.0,0.0,0.0,0.0,0.0,0.0,0.0,0.0,0.0,0.0,0.0,0.0,0.0,0.0,0.0,0.0,0.0,0.0,0.0,0.0,0.0,0.0,0.0,0.0,0.0,0.0,0.0,0.0,0.0,0.0,0.0,0.0,0.0,0.0,0.0,0.0,0.0,0.0,0.0,0.0,0.0,0.0,0.0,0.0,0.0,0.0,0.0,0.0,0.0,0.0,0.0,0.0,0.0,0.0,0.0,0.0,0.0,0.0,0.0,0.0,0.0,0.0,0.0,0.0,0.0,0.0,0.0,0.0,0.0,0.0,0.0,0.0,0.0,0.0,0.0,0.0,0.0,0.0,0.0,0.0,0.0,0.0,0.0,0.0,0.0,0.0,0.0,0.0,0.0,0.0,0.0,-0.4799,-0.4776,-0.4694,0.0,0.0,0.0,0.0,0.0,0.0,0.0,0.0,0.0,0.0,-0.362,-0.1546,-0.1738,0.0,0.0,0.0,0.0,0.0,0.0,0.0,0.0,0.0,0.0,0.0,0.0,0.0,0.0,0.0,0.0,0.0,0.0,0.0,0.0,0.0,0.0,0.0,0.0,0.0,0.0,0.0,0.0,0.0,0.0,0.0,0.0,0.0,0.0,0.0,0.0,0.0,0.0,0.0,0.0,0.0,0.0,0.0,0.0,0.0,0.0,0.0,0.0,0.0,0.0,0.0,0.0,0.0,0.0,0.0,0.0,0.0,0.0,0.0,0.0,0.0,0.0,0.0,0.0,0.0,0.0,0.0,0.0,0.0,0.0,0.0,0.0,0.0,0.0,0.0,0.0,0.0,0.0,0.0,0.0,0.0,0.0,0.0,0.0,0.0,0.0,0.0,0.0,0.0,0.0,0.0,0.0,0.0,0.0,0.0,0.0,0.0,0.0,0.0,-0.4823,-0.4792,-0.4704,0.0,0.0,0.0,0.0,0.0,0.0,0.0,0.0,0.0,0.0,-0.4159,-0.1965,-0.225,-0.206,-0.0254,0.0,0.0,0.0,-0.0188,-0.0345,-0.0391,0.0,0.0,0.0,0.0,0.0,0.0,0.0,0.0,0.0,0.0,0.0,0.0,0.0,0.0,0.0,0.0,0.0,0.0,0.0,0.0,0.0,0.0,0.0,0.0,0.0,0.0,0.0,0.0,0.0,0.0,0.0,0.0,0.0,0.0,0.0,0.0,0.0,0.0,0.0,0.0,0.0,0.0,0.0,0.0,0.0,0.0,0.0,0.0,0.0,0.0,0.0,0.0,0.0,0.0,0.0,0.0,0.0,0.0,0.0,0.0,0.0,0.0,0.0,0.0,0.0,0.0,0.0,0.0,0.0,0.0,0.0,0.0,0.0,0.0,0.0,0.0,0.0,0.0,0.0,0.0,0.0,0.0,0.0,0.0,0.0,0.0,0.0,0.0,0.0,0.0,-0.4528,-0.4634,-0.4699,0.0,0.0,0.0,0.0,0.0,0.0,0.0,0.0,0.0,0.0,-0.4911,-0.447,-0.2718,-0.2617,-0.2079,-0.0317,0.0,0.0,0.0,-0.0593,-0.114,0.0,0.0,0.0,0.0,0.0,0.0,0.0,0.0,0.0,0.0,0.0,0.0,0.0,0.0,0.0,0.0,0.0,0.0,0.0,0.0,0.0,0.0,0.0,0.0,0.0,0.0,0.0,0.0,0.0,0.0,0.0,0.0,0.0,0.0,0.0,0.0,0.0,0.0,0.0,0.0,0.6101,0.5396,0.0,0.0,0.0,0.0,0.0,0.0,0.0,0.0,0.0,0.0,0.0,0.0,0.0582,0.0,0.0,0.0,0.0,0.0,0.0,0.0,0.0,0.0,0.0,0.0,0.0,0.0,0.0,0.0,0.0,0.0,0.0,0.0,0.0,0.0,0.0,0.0,0.0,0.0,0.0,0.0,0.0,0.0,0.0,0.0,0.0,0.0,0.0,0.0,-0.467,0.0,0.0,0.0,0.0,0.0,0.0,0.0,0.0,0.0,0.0,0.0,-0.4728,-0.48,-0.484,-0.4459,-0.3374,-0.2828,-0.2353,0.0,0.0,0.0,0.0,0.0,0.0,0.0,0.0,0.0,0.0,0.0,0.0,0.0,0.0,-0.4741,-0.4641,-0.4718,-0.4938,-0.551,0.0,0.0,0.0,0.0,0.0,0.0,0.0,0.0,0.0,0.0,0.0,0.0,0.0,0.0,0.0,0.0,0.6569,0.0,0.0,0.0,0.0,0.0,0.0,0.0,0.0,0.5811,0.5851,0.641,0.5716,0.5491,0.0,0.5529,0.4403,0.0,0.0,0.0,0.0,0.0,0.0,0.0,0.0,0.0873,0.0,0.0,0.0,0.0,0.0,0.0,0.0,0.0,0.0,0.0,0.0,0.0,0.0,0.0,0.0,0.0,0.0,0.0,0.0,0.0,0.0,0.0,0.0,0.0,0.0,0.0,0.0,0.0,0.0,0.0,0.0,0.0,0.0,0.0,0.0,-0.4714,0.0,0.0,0.0,0.0,0.0,0.0,0.0,0.0,0.0,-0.4694,-0.4738,-0.4806,-0.4877,-0.4847,-0.4447,-0.3385,0.0,0.0,0.0,0.0,0.0,0.0,0.0,-0.0937,-0.2486,-0.2359,-0.2335,-0.3255,-0.3845,-0.4315,-0.48,0.0,0.0,-0.4787,-0.4833,-0.5154,-0.604,-0.64,-0.6992,-0.834,-0.8815,-0.9149,0.0,0.0,0.0,0.0,0.0,0.0,0.0,0.0,0.6709,0.6627,0.0,0.6644,0.0,0.0,0.0,0.0,0.0,0.0,0.0,0.0,0.694,0.694,0.6725,0.6664,0.6169,0.5173,0.4914,0.4798,0.4707,0.4384,0.0,0.0,0.0,0.0,0.0,0.0,0.091,0.0,0.0,0.0,0.0,0.0,0.0,0.0,0.0,0.0,0.0,0.0,0.0,0.0,0.0,0.0,0.0,0.0,0.0,0.0,0.0,0.0,0.0,0.0,0.0,0.0,0.0,0.0,0.0,0.0,0.0,0.0,0.0,0.0,0.0,-0.4694,0.0,0.0,0.0,0.0,0.0,0.0,0.0,0.0,0.0,0.0,-0.4704,-0.4819,-0.4911,-0.4918,0.0,0.0,0.0,0.0,-0.238,-0.1452,-0.0564,-0.0593,-0.2116,-0.1651,-0.1729,-0.3559,0.0,0.0,-0.4941,-0.4992,-0.4911,-0.4935,-0.505,-0.5058,-0.4948,-0.4941,-0.5247,-0.6138,-0.6865,-0.7588,-0.8487,-0.929,-0.9724,0.5215,0.0,0.0,0.0,0.0,0.6634,0.6722,0.6865,0.6822,0.6837,0.68,0.6802,0.0,0.0,0.0,0.0,0.0,0.0,0.6759,0.6865,0.6906,0.6953,0.701,0.6866,0.6668,0.6363,0.6226,0.6088,0.5949,0.5123,0.4879,0.5174,0.0,0.0,0.0,0.0,0.1539,0.0,0.0,0.0,0.0,0.0,0.0,0.0,0.0,0.0,0.0,0.0,0.0,0.0,0.0,0.0,0.0,0.0,0.0,0.0,0.0,0.0,0.0,0.0,0.0,0.0,0.0,0.0,0.0,0.0,0.0,0.0,0.0,0.0,-0.4694,-0.4789,-0.4785,0.0,0.0,0.0,0.0,0.0,0.0,0.0,0.0,0.0,-0.4853,-0.4796,-0.4796,0.0,0.0,-0.4555,-0.4258,-0.379,-0.3627,-0.4098,0.0,0.0,0.0,-0.2832,-0.2266,-0.454,-0.4938,-0.5029,-0.5261,-0.5293,-0.5266,-0.5266,-0.5303,-0.5291,-0.5277,-0.5254,-0.5775,-0.7108,-0.7675,-0.8306,-0.9668,-1.0215,-1.0338,0.3818,0.5513,0.5843,0.627,0.679,0.6793,0.6836,0.697,0.697,0.694,0.6889,0.6943,0.6898,0.6702,0.6702,0.0,0.0,0.0,0.6868,0.697,0.697,0.7018,0.7085,0.7007,0.6967,0.7004,0.6861,0.6742,0.6651,0.5919,0.5668,0.5905,0.0,0.0,0.3434,0.3417,0.271,0.1285,0.0813,0.0628,0.0628,0.0235,0.0,0.0,0.0,0.0,0.0,0.0,0.0,0.0,0.0,0.0,0.0,0.0,0.0,0.0,0.0,0.0,0.0,0.0,0.0,0.0,0.0,-0.3167,-0.4477,0.0,0.0,0.0,-0.4803,-0.4779,-0.4779,-0.4809,0.0,0.0,0.0,0.0,0.0,0.0,0.0,-0.466,-0.4817,-0.4942,-0.4961,-0.4891,-0.4921,-0.5074,-0.4969,-0.4793,-0.4624,0.0,-0.4288,-0.4844,-0.3381,-0.2982,-0.5108,-0.3659,-0.2868,-0.4728,-0.5364,-0.5538,-0.5569,-0.5569,-0.5569,-0.5569,-0.5573,-0.5573,-0.5569,-0.5573,-0.606,-0.7638,-0.7994,-0.8576,-1.0263,-1.0586,-1.0586,0.2351,0.3536,0.4342,0.5474,0.6767,0.6774,0.6887,0.7092,0.7095,0.7024,0.6916,0.7041,0.6947,0.6739,0.6736,0.0,0.0,0.6943,0.697,0.7095,0.7095,0.7095,0.7095,0.7095,0.7095,0.7095,0.6964,0.6896,0.6869,0.6644,0.6535,0.6464,0.5263,0.4641,0.4543,0.4519,0.4046,0.3113,0.2133,0.1567,0.145,0.051,0.0,0.0,0.0,0.0,0.0,0.0,0.0,0.0,0.0,0.0,0.0,0.0,0.0,0.0,0.0,0.0,0.0,0.0,0.0,0.0,0.0,0.0,0.0,0.0,0.0,0.0,-0.4925,0.0,-0.4908,-0.4809,0.0,0.0,0.0,-0.4772,-0.4888,-0.4909,-0.4925,-0.4918,0.0,0.0,0.0,0.0,-0.523,-0.5426,-0.5416,-0.5133,-0.4411,-0.4506,-0.4526,-0.4502,-0.3718,-0.3785,-0.5228,-0.4349,-0.3779,-0.4648,-0.5315,-0.5774,-0.5806,-0.5786,-0.58,-0.5783,-0.58,-0.5793,-0.5796,-0.5779,-0.6276,-0.7773,-0.8065,-0.8582,-1.0271,-1.0707,-1.0713,0.1139,0.2216,0.2465,0.3774,0.572,0.5764,0.6266,0.7095,0.7095,0.7078,0.7048,0.7082,0.7055,0.6994,0.6991,0.7011,0.7048,0.7045,0.7061,0.7095,0.7095,0.7095,0.7095,0.7095,0.7095,0.7092,0.7061,0.6991,0.6886,0.6812,0.6702,0.6478,0.6199,0.5632,0.4813,0.4717,0.4183,0.3264,0.2168,0.1215,0.0392,0.0118,0.0,0.0,0.0,0.0,0.0,0.0,0.0,0.0,0.0,0.0,0.0,0.0,0.0,0.0,0.0,0.0,0.0,0.0,0.0,0.0,0.0,-0.2826,-0.4434,0.0,-0.4481,0.0,-0.4938,-0.5049,-0.5046,-0.5015,0.0,0.0,-0.4857,-0.485,-0.4879,-0.4972,-0.5075,-0.504,-0.5195,-0.5347,-0.5464,-0.5481,-0.5576,-0.5823,-0.561,-0.5406,-0.5405,-0.547,-0.5503,-0.5467,-0.486,-0.4769,-0.579,-0.5806,-0.5563,-0.5835,-0.5942,-0.5939,-0.5939,-0.5878,-0.58,-0.58,-0.58,-0.58,-0.581,-0.58,-0.6457,-0.8007,-0.8467,-0.9017,-1.0805,-1.1216,-1.1216,0.0394,0.0977,0.0968,0.2082,0.3855,0.4363,0.525,0.6332,0.632,0.6605,0.7095,0.7095,0.7095,0.7095,0.7095,0.7095,0.7095,0.7095,0.7095,0.7095,0.7095,0.7095,0.7095,0.7095,0.7095,0.7095,0.7095,0.7058,0.6984,0.698,0.6936,0.6773,0.677,0.6476,0.5913,0.5585,0.5154,0.4622,0.3071,0.1761,0.0745,0.0235,0.0,0.0,0.0,0.0,0.0,0.0,0.0,0.0,0.0,0.0,0.0,0.0,0.0,0.0,0.0,0.0,0.0,0.0,0.0,0.0,0.0,0.0,0.0,0.0,-0.402,0.0,-0.4982,0.0,-0.5043,-0.5002,-0.4999,-0.4982,-0.4982,-0.504,-0.5206,-0.5279,-0.5349,-0.5396,-0.5514,-0.5648,-0.5766,-0.5786,-0.5871,-0.6101,-0.5955,-0.5856,-0.6003,-0.6044,-0.6064,-0.6088,-0.572,-0.5589,-0.6257,-0.63,-0.63,-0.6293,-0.6228,-0.6132,-0.6129,-0.6064,-0.6006,-0.6044,-0.6006,-0.6003,-0.6006,-0.6044,-0.6667,-0.8308,-0.8922,-0.9534,-1.1063,-1.143,-1.143,0.0,0.0,0.0,0.0587,0.1633,0.2674,0.3892,0.5172,0.5353,0.6064,0.7125,0.7125,0.7115,0.7095,0.7095,0.7095,0.7095,0.7095,0.7095,0.7095,0.7095,0.7095,0.7095,0.7095,0.7095,0.7095,0.7095,0.7095,0.7095,0.7095,0.7088,0.7068,0.7068,0.7058,0.7021,0.6573,0.6276,0.612,0.4164,0.2627,0.1645,0.0548,0.0,0.0,0.0,0.0,0.0,0.0,0.0,0.0,0.0,0.0,0.0,0.0,0.0,0.0,0.0,0.0,0.0,0.0,0.0,0.0,0.0,0.0,0.0,-0.3195,-0.3385,-0.4822,-0.5029,-0.5059,-0.4986,-0.4975,-0.5002,-0.514,-0.5157,-0.5301,-0.5591,-0.562,-0.5681,-0.5804,-0.5844,-0.5888,-0.603,-0.6023,-0.6115,-0.6262,-0.6269,-0.6248,-0.6289,-0.6279,-0.6279,-0.63,-0.63,-0.6183,-0.6257,-0.63,-0.63,-0.63,-0.6293,-0.63,-0.6289,-0.6286,-0.6289,-0.6289,-0.6276,-0.6282,-0.63,-0.6289,-0.6973,-0.885,-0.9256,-0.9776,-1.1141,-1.1597,-1.1502,0.0,0.0,0.0,0.0154,0.0357,0.0591,0.1919,0.4009,0.5071,0.6227,0.7329,0.7326,0.7261,0.7098,0.7095,0.7095,0.7095,0.7095,0.7095,0.7095,0.7095,0.7095,0.7095,0.7095,0.7095,0.7095,0.7095,0.7095,0.7095,0.7095,0.7038,0.6927,0.6927,0.6862,0.0,0.0,0.0,0.0,0.4017,0.283,0.1764,0.0616,0.0,0.0,0.0,0.0,0.0,0.0,0.0,0.0,0.0,0.0,0.0,0.0,0.0,0.0,0.0,0.0,0.0,0.0,0.0,0.0,-0.0092,-0.101,-0.3376,-0.4116,-0.4624,-0.5018,-0.5083,-0.5169,-0.5303,-0.531,-0.5371,-0.5484,-0.5501,-0.5572,-0.5729,-0.5741,-0.5824,-0.5942,-0.5948,-0.6044,-0.6221,-0.6255,-0.6262,-0.6289,-0.63,-0.63,-0.63,-0.63,-0.63,-0.63,-0.63,-0.63,-0.63,-0.63,-0.63,-0.63,-0.63,-0.63,-0.63,-0.63,-0.63,-0.63,-0.63,-0.63,-0.63,-0.63,-0.6911,-0.8917,-0.9296,-0.9873,-1.1707,-1.2131,-1.2138,0.0,0.0,0.0,0.0,0.0,0.0,0.0658,0.1882,0.3174,0.4761,0.6542,0.7201,0.7441,0.7318,0.7288,0.7255,0.7251,0.7132,0.7095,0.7095,0.7095,0.7095,0.7095,0.7095,0.7095,0.7095,0.7095,0.7095,0.7095,0.7095,0.7058,0.6991,0.6991,0.695,0.6919,0.6919,0.6587,0.5901,0.4799,0.3703,0.255,0.1457,0.0616,0.0,0.0,0.0,0.0,0.0,0.0,0.0,0.0,0.0,0.0,0.0,0.0,0.0,0.0,0.0,0.0,0.0,0.0,0.0,-0.0418,-0.1341,-0.3047,-0.3943,-0.4679,-0.5172,-0.5311,-0.5389,-0.5498,-0.5569,-0.5644,-0.5684,-0.5694,-0.5751,-0.586,-0.5885,-0.5966,-0.6126,-0.6155,-0.6176,-0.6286,-0.63,-0.63,-0.63,-0.63,-0.63,-0.63,-0.63,-0.63,-0.63,-0.63,-0.63,-0.63,-0.63,-0.63,-0.63,-0.63,-0.63,-0.63,-0.63,-0.63,-0.63,-0.63,-0.63,-0.63,-0.63,-0.676,-0.8199,-0.8955,-0.9744,-1.1248,-1.1959,-1.2482,0.0,0.0,0.0,0.0,0.0,0.0,0.0,0.0104,0.0,0.0,0.0,0.7058,0.7624,0.759,0.7468,0.7456,0.745,0.7278,0.7162,0.7139,0.7136,0.7122,0.7095,0.7095,0.7095,0.7095,0.7095,0.7095,0.7095,0.7095,0.7095,0.7095,0.7095,0.7095,0.7095,0.7095,0.6977,0.6745,0.5692,0.4661,0.3666,0.2465,0.1343,0.0341,0.0113,0.0,0.0,0.0,0.0,0.0,0.0,0.0,0.0,0.0,0.0,0.0,0.0,0.0,0.0,0.0,0.0,0.0,-0.0677,-0.1534,-0.2623,-0.3515,-0.4417,-0.5369,-0.5538,-0.5627,-0.563,-0.5728,-0.5813,-0.5837,-0.584,-0.5888,-0.603,-0.6047,-0.6122,-0.6272,-0.6293,-0.6296,-0.6296,-0.63,-0.63,-0.63,-0.63,-0.63,-0.63,-0.63,-0.63,-0.63,-0.63,-0.63,-0.63,-0.63,-0.63,-0.63,-0.63,-0.63,-0.63,-0.63,-0.63,-0.63,-0.63,-0.63,-0.63,-0.63,-0.6718,-0.7863,-0.8689,-0.9674,-1.0826,-1.1731,-1.2519,0.0,0.0,0.0,0.0,0.0,0.0,0.0,0.0,0.2589,0.4493,0.5835,0.7196,0.7712,0.7597,0.7577,0.757,0.7567,0.7543,0.7468,0.0,0.7385,0.7268,0.7098,0.7095,0.7095,0.7095,0.7095,0.7095,0.7095,0.7095,0.7095,0.7095,0.7095,0.7095,0.7095,0.7095,0.7075,0.7031,0.5953,0.5281,0.5079,0.293,0.175,0.1513,0.0519,0.0,0.0,0.0,0.0,0.0,0.0,0.0,0.0,0.0,0.0,0.0,0.0,0.0,0.0,0.0,0.0,0.0,-0.0105,-0.0894,-0.2539,-0.3619,-0.4545,-0.5456,-0.5688,-0.5772,-0.5772,-0.5796,-0.5871,-0.5979,-0.5959,-0.6057,-0.6228,-0.6255,-0.6265,-0.6293,-0.63,-0.63,-0.63,-0.63,-0.63,-0.63,-0.63,-0.63,-0.63,-0.63,-0.63,-0.63,-0.63,-0.63,-0.63,-0.63,-0.63,-0.63,-0.63,-0.63,-0.63,-0.63,-0.63,-0.63,-0.63,-0.63,-0.63,-0.63,-0.7061,-0.8504,-0.9145,-0.9938,-1.1508,-1.2107,-1.2415,0.0,0.0,0.0,0.0,0.0,0.0,0.0,0.0,0.2098,0.3637,0.488,0.6226,0.7208,0.7786,0.775,0.7712,0.7712,0.7634,0.756,0.7492,0.7453,0.7378,0.7261,0.7136,0.7095,0.7095,0.7095,0.7095,0.7095,0.7095,0.7095,0.7095,0.7095,0.7095,0.7095,0.7095,0.7095,0.7095,0.6587,0.5705,0.4435,0.3348,0.216,0.0867,0.0272,0.0,0.0,0.0,0.0,0.0,0.0,0.0,0.0,0.0,0.0,0.0,0.0,0.0,0.0,0.0,0.0,0.0,0.0,-0.0534,-0.1859,-0.2903,-0.4133,-0.5531,-0.5837,-0.5885,-0.5892,-0.6,-0.6119,-0.6146,-0.6152,-0.6183,-0.6282,-0.63,-0.63,-0.63,-0.63,-0.63,-0.63,-0.63,-0.63,-0.63,-0.63,-0.63,-0.63,-0.63,-0.63,-0.63,-0.63,-0.63,-0.6296,-0.63,-0.63,-0.63,-0.63,-0.63,-0.63,-0.63,-0.63,-0.63,-0.63,-0.63,-0.63,-0.6795,-0.7518,-0.8122,-0.9518,-1.049,-1.1354,-1.2241,-1.32,0.0,0.0,0.0,0.0,0.0,0.0,0.0,0.0,0.1079,0.2333,0.3653,0.526,0.6573,0.7519,0.7733,0.7862,0.7848,0.775,0.7682,0.7638,0.7526,0.7501,0.7407,0.7261,0.719,0.7142,0.7115,0.7095,0.7095,0.7095,0.7095,0.7095,0.7095,0.7095,0.7095,0.7095,0.7095,0.7095,0.7095,0.6198,0.445,0.3864,0.2686,0.0952,0.0286,0.0,0.0,0.0,0.0,0.0,0.0,0.0,0.0,0.0,0.0,0.0,0.0,0.0,0.0,0.0,0.0,0.0,0.0,-0.0405,-0.133,-0.2327,-0.3642,-0.5213,-0.5841,-0.6043,-0.6091,-0.6179,-0.63,-0.63,-0.63,-0.6293,-0.63,-0.63,-0.63,-0.63,-0.63,-0.63,-0.63,-0.63,-0.63,-0.63,-0.63,-0.63,-0.63,-0.63,-0.63,-0.63,-0.63,-0.6141,-0.606,-0.6183,-0.6141,-0.6064,-0.6145,-0.6261,-0.63,-0.63,-0.63,-0.63,-0.63,-0.63,-0.6374,-0.6834,-0.7557,-0.8199,-0.9405,-1.049,-1.1236,-1.2528,-1.3954,0.0,0.0,0.0,0.0,0.0,0.0,0.0,0.0,0.0,0.0926,0.2378,0.4866,0.6028,0.6323,0.7475,0.7968,0.7961,0.7955,0.7919,0.7801,0.778,0.7706,0.757,0.7424,0.7395,0.7329,0.7214,0.7105,0.7095,0.7095,0.7095,0.7095,0.7095,0.7095,0.7095,0.7095,0.7095,0.7095,0.7095,0.7,0.6669,0.472,0.3502,0.3272,0.112,0.0,0.0,0.0,0.0,0.0,0.0,0.0,0.0,0.0,0.0,0.0,0.0,0.0,0.0,0.0,0.0,0.0,0.0,-0.0418,-0.1434,-0.2482,-0.3455,-0.4543,-0.5606,-0.622,-0.6276,-0.6289,-0.63,-0.63,-0.63,-0.63,-0.63,-0.63,-0.63,-0.63,-0.63,-0.63,-0.631,-0.6317,-0.6306,-0.63,-0.63,-0.63,-0.63,-0.6317,-0.631,-0.6306,-0.6264,-0.5837,-0.5282,-0.5709,-0.5747,-0.5198,-0.567,-0.6103,-0.6222,-0.63,-0.63,-0.63,-0.63,-0.63,-0.63,-0.649,-0.7176,-0.8618,-0.9523,-1.0083,-1.1694,-1.2952,-1.4027,0.0,0.0,0.0,0.0,0.0,0.0,0.0,0.0,0.0,0.0333,0.0995,0.2805,0.4481,0.6095,0.7534,0.813,0.7992,0.7988,0.7958,0.7887,0.7855,0.778,0.7712,0.7573,0.7465,0.7419,0.7305,0.7183,0.7109,0.7095,0.7095,0.7095,0.7095,0.7095,0.7095,0.7095,0.7095,0.7095,0.7095,0.7095,0.6912,0.5491,0.3946,0.26,0.1577,0.0709,0.0,0.0,0.0,0.0,0.0,0.0,0.0,0.0,0.0,0.0,0.0,0.0,0.0,0.0,0.0,0.0,0.0,0.0,-0.0627,-0.1606,-0.2607,-0.3669,-0.5244,-0.63,-0.63,-0.63,-0.63,-0.63,-0.63,-0.63,-0.63,-0.63,-0.63,-0.63,-0.63,-0.634,-0.6405,-0.6426,-0.6388,-0.6327,-0.63,-0.6313,-0.6306,-0.6371,-0.6424,-0.6305,-0.5918,-0.534,-0.4807,-0.5002,-0.5082,-0.4924,-0.504,-0.5434,-0.6103,-0.6257,-0.63,-0.63,-0.63,-0.63,-0.63,-0.6907,-0.7706,-0.9074,-1.0539,-1.1397,-1.2194,-1.3062,-1.3991,0.0,0.0,0.0,0.0,0.0,0.0,0.0,0.0,0.0,0.0,0.0,0.1436,0.3079,0.4986,0.6852,0.7588,0.7497,0.7809,0.7988,0.7975,0.7919,0.7826,0.7858,0.7726,0.76,0.7495,0.7453,0.7288,0.7112,0.7095,0.7095,0.7095,0.7095,0.7095,0.7095,0.7095,0.7095,0.7095,0.7095,0.7095,0.6962,0.5983,0.4389,0.2493,0.1955,0.1239,0.0,0.0,0.0,0.0,0.0,0.0,0.0,0.0,0.0,0.0,0.0,0.0,0.0,0.0,0.0,0.0,0.0,0.0,0.0,-0.098,-0.2042,-0.3154,-0.4852,-0.5957,-0.6264,-0.63,-0.6313,-0.6344,-0.6358,-0.6368,-0.6419,-0.6422,-0.6433,-0.6422,-0.645,-0.6457,-0.6549,-0.6532,-0.6542,-0.646,-0.6433,-0.6419,-0.6429,-0.6515,-0.6545,-0.6517,-0.5647,-0.481,-0.4428,-0.4267,-0.4211,-0.3986,-0.3953,-0.4611,-0.5604,-0.5786,-0.6141,-0.6103,-0.618,-0.63,-0.63,-0.7022,-0.7931,-0.9258,-1.0801,-1.215,-1.2268,-1.2915,-1.3629,0.0,0.0,0.0,0.0,0.0,0.0,0.0,0.0,0.0,0.0,0.0,0.1453,0.2156,0.2442,0.489,0.6097,0.6277,0.735,0.7945,0.7992,0.7975,0.7975,0.7971,0.7875,0.7794,0.7736,0.7519,0.7319,0.7115,0.7098,0.7095,0.7095,0.7095,0.7095,0.7095,0.7095,0.7095,0.7095,0.7095,0.7095,0.7007,0.6027,0.4863,0.3464,0.2408,0.1214,0.0,0.0,0.0,0.0,0.0,0.0,0.0,0.0,0.0,0.0,0.0,0.0,0.0,0.0,0.0,0.0,0.0,0.0,0.0,-0.0868,-0.1907,-0.3147,-0.4243,-0.5254,-0.6077,-0.6273,-0.6388,-0.6491,-0.6504,-0.6525,-0.6651,-0.6634,-0.6675,-0.6664,-0.6658,-0.6654,-0.6681,-0.6688,-0.6678,-0.6658,-0.6664,-0.6651,-0.6641,-0.6668,-0.6705,-0.6447,-0.5644,-0.4543,-0.3615,-0.3275,-0.2791,-0.261,-0.2986,-0.3609,-0.4263,-0.4882,-0.544,-0.5944,-0.618,-0.63,-0.63,-0.6795,-0.7706,-0.9064,-1.095,-1.204,-1.2268,-1.2305,-1.2915,0.0,0.0,0.0,0.0,0.0,0.0,0.0,0.0,0.0,0.0,0.0,0.0,0.0781,0.0832,0.2596,0.4381,0.5943,0.6514,0.7163,0.7899,0.7988,0.7988,0.7985,0.7931,0.7899,0.7804,0.7699,0.7526,0.7295,0.7193,0.7095,0.7095,0.7095,0.7095,0.7095,0.7095,0.7095,0.7095,0.7095,0.7095,0.7095,0.6694,0.5578,0.3657,0.2442,0.1232,0.0,0.0,0.0,0.0,0.0,0.0,0.0,0.0,0.0,0.0,0.0,0.0,0.0,0.0,0.0,0.0,0.0,0.0,0.0,-0.0366,-0.1028,-0.2149,-0.3309,-0.4321,-0.529,-0.609,-0.6563,-0.6603,-0.662,-0.6641,-0.6685,-0.6702,-0.6702,-0.6715,-0.6776,-0.6814,-0.6756,-0.6783,-0.6807,-0.6722,-0.6702,-0.6712,-0.6722,-0.678,-0.6851,-0.6518,-0.5276,-0.3921,-0.3649,-0.2666,-0.2005,-0.1913,-0.2148,-0.3105,-0.3871,-0.4442,-0.5005,-0.583,-0.6126,-0.631,-0.6352,-0.7365,-0.8122,-0.8993,-1.0913,-1.1922,-1.2305,-1.2305,-1.2739,0.0,0.0,0.0,0.0,0.0,0.0,0.0,0.0,0.0,0.0,0.0,0.0,0.0,0.0,0.0941,0.2545,0.473,0.5559,0.6516,0.7353,0.7812,0.7988,0.7988,0.7988,0.7941,0.7889,0.7831,0.7658,0.7439,0.7268,0.7146,0.7098,0.7095,0.7095,0.7095,0.7095,0.7095,0.7095,0.7095,0.7095,0.7051,0.6738,0.5844,0.4239,0.2637,0.1247,0.0,0.0,0.0,0.0,0.0,0.0,0.0,0.0,0.0,0.0,0.0,0.0,0.0,0.0,0.0,0.0,0.0,0.0,0.0,0.0,0.0,-0.1607,-0.2754,-0.386,-0.4997,-0.6157,-0.6824,-0.6787,-0.6773,-0.6797,-0.6795,-0.6848,-0.6851,-0.6868,-0.6936,-0.6896,-0.6836,-0.69,-0.69,-0.6854,-0.6841,-0.6798,-0.6819,-0.6876,-0.6943,-0.6784,-0.5015,-0.3949,-0.3236,-0.2221,0.0,0.0,0.0,-0.2178,-0.322,-0.3856,-0.4625,-0.5501,-0.6038,-0.622,-0.6856,-0.7902,-0.8613,-0.9221,-1.0383,-1.1545,-1.1929,-1.2305,-1.2666,0.0,0.0,0.0,0.0,0.0,0.0,0.0,0.0,0.0,0.0,0.0,0.0,0.0,0.0,0.0,0.0887,0.2389,0.4532,0.5801,0.6277,0.729,0.7892,0.7988,0.7988,0.7985,0.7958,0.7879,0.7668,0.7424,0.7412,0.7285,0.7173,0.7105,0.7095,0.7095,0.7095,0.7095,0.7095,0.7095,0.7095,0.7007,0.6204,0.5581,0.509,0.3217,0.1477,0.0,0.0,0.0,0.0,0.0,0.0,0.0,0.0,0.0,0.0,0.0,0.0,0.0,0.0,0.0,0.0,0.0,0.0,0.0,0.0,-0.0427,-0.1469,-0.2687,-0.3925,-0.5093,-0.621,-0.692,-0.6913,-0.6886,-0.6933,-0.7031,-0.7082,-0.7088,-0.7068,-0.7071,-0.7088,-0.7088,-0.7068,-0.7048,-0.7045,-0.7041,-0.7034,-0.7024,-0.7045,-0.7082,-0.6678,-0.5206,-0.3701,-0.2726,0.0,0.0,0.0,0.0,-0.0863,-0.1989,-0.2804,-0.3833,-0.4778,-0.5998,-0.625,-0.6468,-0.7442,-0.8199,-0.8917,-1.0115,-1.113,-1.1583,-1.1922,-1.2231,0.0,0.0,0.0,0.0,0.0,0.0,0.0,0.0,0.0,0.0,0.0,0.0,0.0,0.0,0.0,0.0,0.0777,0.2492,0.4181,0.5791,0.6438,0.7135,0.7786,0.7988,0.7988,0.7965,0.7882,0.777,0.7651,0.7518,0.7343,0.7292,0.7142,0.7098,0.7095,0.7095,0.7095,0.7095,0.7095,0.7095,0.7095,0.6738,0.6204,0.5403,0.4643,0.3352,0.1388,0.0446,0.0,0.0,0.0,0.0,0.0,0.0,0.0,0.0,0.0,0.0,0.0,0.0,0.0,0.0,0.0,0.0,0.0,0.0,0.0,0.0,-0.1641,-0.2843,-0.4055,-0.522,-0.618,-0.6947,-0.7031,-0.7038,-0.7082,-0.7095,-0.7095,-0.7095,-0.7095,-0.7095,-0.7095,-0.7095,-0.7095,-0.7095,-0.7095,-0.7095,-0.7095,-0.7095,-0.7095,-0.6915,-0.5085,-0.3481,-0.268,0.0,0.0,0.0,0.0,0.0,-0.1125,-0.2053,-0.307,-0.4353,-0.5599,-0.6303,-0.6482,-0.6949,-0.7706,-0.8571,-0.9664,-1.0453,-1.113,-1.1657,-1.2114,0.0,0.0,0.0,0.0,0.0,0.0,0.0,0.0,0.0,0.0,0.0,0.0,0.0,0.0,0.0,0.0,0.0,0.0881,0.2427,0.4525,0.5695,0.6223,0.6686,0.708,0.7587,0.7925,0.7894,0.7868,0.7797,0.758,0.7428,0.7356,0.7217,0.7095,0.7095,0.7095,0.7095,0.7095,0.7095,0.7095,0.7095,0.7095,0.6782,0.6071,0.5625,0.4643,0.3129,0.1568,0.0449,0.0,0.0,0.0,0.0,0.0,0.0,0.0,0.0,0.0,0.0,0.0,0.0,0.0,0.0,0.0,0.0,0.0,0.0,0.0,-0.112,-0.2102,-0.2948,-0.451,-0.5669,-0.6384,-0.6868,-0.7051,-0.7095,-0.7095,-0.7095,-0.7095,-0.7095,-0.7095,-0.7095,-0.7095,-0.7095,-0.7095,-0.7095,-0.7095,-0.7095,-0.7095,-0.6959,-0.6375,-0.4814,-0.3568,-0.2811,0.0,0.0,0.0,0.0,0.0,-0.0705,-0.1535,-0.2471,-0.4296,-0.5693,-0.6212,-0.6461,-0.6655,-0.7249,-0.8232,-0.9097,-1.0002,-1.0789,-1.1731,-1.2224,0.0,0.0,0.0,0.0,0.0,0.0,0.0,0.0,0.0,0.0,0.0,0.0,0.0,0.0,0.0,0.0,0.0,0.0111,0.0821,0.2427,0.4152,0.5124,0.4981,0.5827,0.6883,0.7836,0.7978,0.7911,0.7845,0.7689,0.7533,0.7397,0.7258,0.7102,0.7098,0.7095,0.7095,0.7095,0.7095,0.7095,0.7095,0.7095,0.7051,0.6962,0.6115,0.5447,0.4823,0.2861,0.1121,0.0,0.0,0.0,0.0,0.0,0.0,0.0,0.0,0.0,0.0,0.0,0.0,0.0,0.0,0.0,0.0,0.0,0.0,0.0,-0.0941,-0.1656,-0.2236,-0.3619,-0.4956,-0.5536,-0.6473,-0.7051,-0.7095,-0.7095,-0.7095,-0.7095,-0.7095,-0.7095,-0.7095,-0.7095,-0.7095,-0.7095,-0.7095,-0.7095,-0.7095,-0.6959,-0.6505,-0.5567,-0.4455,-0.3388,-0.2499,0.0,0.0,0.0,0.0,0.0,0.0,-0.1374,-0.2189,-0.4008,-0.5566,-0.6056,-0.64,-0.6588,-0.6795,-0.7437,-0.8423,-0.9513,-1.0415,-1.1242,-1.207,0.0,0.0,0.0,0.0,0.0,0.0,0.0,0.0,0.0,0.0,0.0,0.0,0.0,0.0,0.0,0.0,0.0,0.0,0.0111,0.0709,0.2189,0.409,0.5203,0.5779,0.6631,0.7736,0.7885,0.7971,0.7921,0.7818,0.7675,0.7536,0.7377,0.7248,0.7119,0.7102,0.7095,0.7095,0.7095,0.7095,0.7095,0.7095,0.7095,0.7095,0.6782,0.6204,0.5314,0.3084,0.1254,0.0,0.0,0.0,0.0,0.0,0.0,0.0,0.0,0.0,0.0,0.0,0.0,0.0,0.0,0.0,0.0,0.0,0.0,0.0,-0.0359,-0.0852,-0.1657,-0.2459,-0.353,-0.5225,-0.6425,-0.7095,-0.7095,-0.7095,-0.7095,-0.7095,-0.7095,-0.7095,-0.7095,-0.7095,-0.7095,-0.7095,-0.7095,-0.7095,-0.7095,-0.6871,-0.6419,-0.5476,-0.4364,-0.3166,-0.2054,-0.0851,0.0,0.0,0.0,0.0,0.0,-0.1631,-0.2465,-0.3613,-0.5249,-0.6062,-0.6211,-0.6377,-0.6641,-0.6911,-0.7706,-0.8761,-0.9588,-1.0415,-1.1434,0.0,0.0,0.0,0.0,0.0,0.0,0.0,0.0,0.0,0.0,0.0,0.0,0.0,0.0,0.0,0.0,0.0,0.0,0.0,0.0,0.0862,0.2604,0.4405,0.4722,0.5275,0.7033,0.7185,0.7484,0.7859,0.7885,0.777,0.7662,0.7521,0.7329,0.7248,0.7122,0.7095,0.7095,0.7095,0.7095,0.7095,0.7095,0.7095,0.7095,0.7095,0.6561,0.5312,0.3573,0.2013,0.0,0.0,0.0,0.0,0.0,0.0,0.0,0.0,0.0,0.0,0.0,0.0,0.0,0.0,0.0,0.0,0.0,0.0,0.0,0.0,0.0,-0.0987,-0.1879,-0.3395,-0.5134,-0.6425,-0.7095,-0.7095,-0.7095,-0.7095,-0.7095,-0.7095,-0.7095,-0.7095,-0.7095,-0.7095,-0.7095,-0.7095,-0.7095,-0.7095,-0.6738,-0.6062,-0.494,-0.3831,-0.2545,0.0,0.0,0.0,0.0,0.0,0.0,0.0,-0.1581,-0.2368,-0.3325,-0.4808,-0.5873,-0.6012,-0.618,-0.6374,-0.6756,-0.7326,-0.7893,-0.8765,-0.9664,-1.064,0.0,0.0,0.0,0.0,0.0,0.0,0.0,0.0,0.0,0.0,0.0,0.0,0.0,0.0,0.0,0.0,0.0,0.0,0.0,0.0,0.0,0.1411,0.3044,0.3221,0.4372,0.6282,0.6279,0.683,0.7462,0.7654,0.7682,0.75,0.734,0.7443,0.7322,0.7217,0.7102,0.7095,0.7095,0.7095,0.7095,0.7095,0.7095,0.7095,0.7095,0.6694,0.5667,0.4419,0.3306,0.2236,0.0942,0.0,0.0,0.0,0.0,0.0,0.0,0.0,0.0,0.0,0.0,0.0,0.0,0.0,0.0,0.0,0.0,0.0,0.0,0.0,-0.0359,-0.2013,-0.3393,-0.4643,-0.5891,-0.6827,-0.6959,-0.7051,-0.7095,-0.7095,-0.7095,-0.7095,-0.7095,-0.7095,-0.7095,-0.7095,-0.7095,-0.7095,-0.7007,-0.6738,-0.5612,-0.4134,-0.2942,-0.1746,0.0,0.0,0.0,0.0,0.0,0.0,0.0,-0.1094,-0.1979,-0.3034,-0.4328,-0.5271,-0.5779,-0.5938,-0.6141,-0.6451,-0.6907,-0.7403,-0.7974,-0.8912,-0.989,0.0,0.0,0.0,0.0,0.0,0.0,0.0,0.0,0.0,0.0,0.0,0.0,0.0,0.0,0.0,0.0,0.0,0.0,0.0,0.0,0.0,0.0,0.139,0.2487,0.4924,0.6731,0.7484,0.7182,0.6866,0.7394,0.7331,0.6483,0.7222,0.7535,0.7415,0.7244,0.7095,0.7095,0.7095,0.7095,0.7095,0.7095,0.7095,0.7095,0.7095,0.7007,0.6605,0.5625,0.4912,0.4198,0.2684,0.121,0.0494,0.0897,0.0852,0.0,0.0,0.0,0.0,0.0,0.0,0.0,0.0,0.0,0.0,0.0,0.0,0.0,0.0,0.0,0.0,-0.13,-0.2325,-0.3172,-0.4554,-0.5753,-0.5877,-0.6552,-0.7051,-0.7095,-0.7095,-0.7095,-0.7095,-0.7095,-0.7095,-0.7095,-0.7095,-0.7095,-0.6918,-0.665,-0.5302,-0.3646,-0.2498,0.0,0.0,0.0,0.0,0.0,0.0,0.0,0.0,-0.0607,-0.1488,-0.2557,-0.3725,-0.4478,-0.5126,-0.5822,-0.606,-0.6293,-0.6528,-0.6949,-0.7518,-0.8347,-0.8983,0.0,0.0,0.0,0.0,0.0,0.0,0.0,0.0,0.0,0.0,0.0,0.0,0.0,0.0,0.0,0.0,0.0,0.0,0.0,0.0,0.0,0.0,0.1049,0.2314,0.4159,0.5937,0.6074,0.5924,0.6329,0.708,0.7294,0.6134,0.7087,0.7577,0.7478,0.7319,0.7217,0.7105,0.7095,0.7095,0.7095,0.7095,0.7095,0.7095,0.7095,0.7095,0.7007,0.5983,0.5494,0.5092,0.4154,0.2638,0.121,0.1388,0.1165,0.0,0.0,0.0,0.0,0.0,0.0,0.0,0.0,0.0,0.0,0.0,0.0,0.0,0.0,0.0,0.0,-0.1076,-0.1656,-0.2102,-0.3439,-0.4461,-0.4809,-0.6015,-0.7095,-0.7095,-0.7095,-0.7095,-0.7095,-0.7095,-0.7095,-0.7095,-0.7095,-0.7051,-0.6467,-0.6065,-0.4903,-0.3474,-0.2323,0.0,0.0,0.0,0.0,0.0,0.0,0.0,0.0,0.0,-0.1006,-0.1988,-0.2865,-0.3762,-0.4453,-0.516,-0.5864,-0.6219,-0.6451,-0.6679,-0.7022,-0.7706,-0.8194,0.0,0.0,0.0,0.0,0.0,0.0,0.0,0.0,0.0,0.0,0.0,0.0,0.0,0.0,0.0,0.0,0.0,0.0,0.0,0.0,0.0,0.0,0.122,0.1667,0.2403,0.3572,0.4216,0.4768,0.5675,0.6681,0.657,0.6203,0.6893,0.7401,0.752,0.7451,0.7309,0.7214,0.7115,0.7095,0.7095,0.7095,0.7095,0.7095,0.7095,0.7095,0.6962,0.6293,0.5714,0.5672,0.5669,0.4465,0.2994,0.2057,0.0,0.0,0.0,0.0,0.0,0.0,0.0,0.0,0.0,0.0,0.0,0.0,0.0,0.0,0.0,0.0,0.0,-0.0718,-0.1299,-0.1657,-0.2547,-0.3213,-0.3703,-0.5262,-0.6157,-0.6741,-0.6605,-0.6561,-0.6918,-0.7095,-0.7095,-0.7095,-0.7095,-0.6871,-0.6245,-0.5528,-0.4457,-0.3299,-0.2101,-0.1165,0.0,0.0,0.0,0.0,0.0,0.0,0.0,0.0,0.0,0.0,-0.1854,-0.2765,-0.3711,-0.4453,-0.5157,-0.5825,-0.6296,-0.649,-0.6756,-0.7099,-0.7518,0.0,0.0,0.0,0.0,0.0,0.0,0.0,0.0,0.0,0.0,0.0,0.0,0.0,0.0,0.0,0.0,0.0,0.0,0.0,0.0,0.0,0.0,0.0,0.0,0.0,0.2325,0.3265,0.4016,0.4218,0.4568,0.5472,0.5904,0.6173,0.6628,0.7461,0.7526,0.7373,0.7292,0.7159,0.7098,0.7095,0.7095,0.7095,0.7095,0.7095,0.7095,0.7095,0.6962,0.6827,0.683,0.6827,0.6024,0.4821,0.3794,0.2726,0.1478,0.0583,0.0,0.0,0.0,0.0,0.0,0.0,0.0,0.0,0.0,0.0,0.0,0.0,0.0,0.0,0.0,0.0,0.0,-0.1299,-0.2056,-0.2367,-0.3258,-0.4552,-0.5225,-0.5536,-0.6024,-0.647,-0.6918,-0.7095,-0.7095,-0.7095,-0.6605,-0.5847,-0.5132,-0.4283,-0.3124,-0.1922,-0.1075,0.0,0.0,0.0,0.0,0.0,0.0,0.0,0.0,0.0,0.0,0.0,-0.1771,-0.2696,-0.363,-0.445,-0.5118,-0.5667,-0.6219,-0.649,-0.6756,-0.7022,0.0,0.0,0.0,0.0,0.0,0.0,0.0,0.0,0.0,0.0,0.0,0.0,0.0,0.0,0.0,0.0,0.0,0.0,0.0,0.0,0.0,0.0,0.0,0.0,0.0,0.1168,0.2264,0.3115,0.3165,0.452,0.492,0.5012,0.5518,0.6562,0.7495,0.7604,0.7458,0.737,0.7231,0.7098,0.7095,0.7095,0.7095,0.7095,0.7095,0.7095,0.7095,0.7095,0.7095,0.7095,0.7095,0.6786,0.6113,0.5132,0.3707,0.2148,0.1254,0.0584,0.0,0.0,0.0,0.0,0.0,0.0,0.0,0.0,0.0,0.0,0.0,0.0,0.0,0.0,0.0,0.0,0.0,0.0,0.0,0.0,-0.2417,-0.3667,-0.4734,-0.5445,-0.6024,-0.647,-0.6962,-0.7095,-0.7095,-0.6337,-0.5403,-0.451,-0.3705,-0.2547,0.0,0.0,0.0,0.0,0.0,0.0,0.0,0.0,0.0,0.0,0.0,0.0,0.0,0.0,-0.1683,-0.2579,-0.3476,-0.4375,-0.5002,-0.555,-0.606,-0.6412,-0.6679,0.0,0.0,0.0,0.0,0.0,0.0,0.0,0.0,0.0,0.0,0.0,0.0,0.0,0.0,0.0,0.0,0.0,0.0,0.0,0.0,0.0,0.0,0.0,0.0266,0.0472,0.046,0.2568,0.2615,0.2964,0.3919,0.467,0.5268,0.5822,0.6437,0.7456,0.7719,0.7567,0.7417,0.7268,0.7139,0.7102,0.7095,0.7095,0.7095,0.7095,0.7095,0.7095,0.7095,0.7095,0.7095,0.7095,0.7095,0.6962,0.6248,0.4732,0.2906,0.2148,0.1254,0.0,0.0,0.0,0.0,0.0,0.0,0.0,0.0,0.0,0.0,0.0,0.0,0.0,0.0,0.0,0.0,0.0,0.0,0.0,0.0,0.0,-0.2151,-0.3799,-0.4912,-0.5445,-0.647,-0.7051,-0.6827,-0.6782,-0.5711,-0.4732,-0.3662,-0.2725,-0.1656,0.0,0.0,0.0,0.0,0.0,0.0,0.0,0.0,0.0,0.0,0.0,0.0,0.0,0.0,0.0,-0.1566,-0.2425,-0.3324,-0.4181,-0.4885,-0.5395,-0.5983,-0.6451,0.0,0.0,0.0,0.0,0.0,0.0,0.0,0.0,0.0,0.0,0.0,0.0,0.0,0.0,0.0,0.0,0.0,0.0,0.0,0.0,0.0,0.0,0.0,0.0,0.0685,0.0618,0.339,0.4574,0.3767,0.3066,0.447,0.6124,0.532,0.5461,0.772,0.7824,0.7719,0.7567,0.7411,0.7265,0.7115,0.7095,0.7095,0.7095,0.7095,0.7095,0.7095,0.7095,0.7095,0.7095,0.7095,0.7095,0.7095,0.7007,0.6248,0.4776,0.3218,0.1746,0.1389,0.0,0.0,0.0,0.0,0.0,0.0,0.0,0.0,0.0,0.0,0.0,0.0,0.0,0.0,0.0,0.0,0.0,0.0,0.0,0.0,-0.0897,-0.2639,-0.3976,-0.4868,-0.6113,-0.7051,-0.6738,-0.6201,-0.5087,-0.3974,-0.2771,-0.1923,-0.0941,0.0,0.0,0.0,0.0,0.0,0.0,0.0,0.0,0.0,0.0,0.0,0.0,0.0,0.0,0.0,-0.098,-0.1568,-0.2426,-0.3439,-0.4142,-0.4766,-0.5434,-0.6257,0.0,0.0,0.0,0.0,0.0,0.0,0.0,0.0,0.0,0.0,0.0,0.0,0.0,0.0,0.0,0.0,0.0,0.0,0.0,0.0,0.0,0.0,0.0,0.0537,0.037,0.0882,0.2188,0.3069,0.3016,0.3919,0.5222,0.532,0.5472,0.6074,0.7723,0.7837,0.774,0.757,0.7377,0.7169,0.7112,0.7095,0.7095,0.7095,0.7095,0.7095,0.7095,0.7095,0.7095,0.7095,0.7095,0.7095,0.7095,0.7095,0.6782,0.6381,0.4821,0.3307,0.1925,0.0718,0.0,0.0,0.0,0.0,0.0,0.0,0.0,0.0,0.0,0.0,0.0,0.0,0.0,0.0,0.0,0.0,0.0,0.0,0.0,0.0,-0.1433,-0.2772,-0.3976,-0.4956,-0.5755,-0.58,-0.5043,-0.3885,-0.2727,-0.1568,-0.0852,-0.0314,0.0,0.0,0.0,0.0,0.0,0.0,0.0,0.0,0.0,0.0,0.0,0.0,0.0,0.0,0.0,-0.0353,-0.0902,-0.1801,-0.2776,-0.3517,-0.4336,-0.555,-0.6296,0.0,0.0,0.0,0.0,0.0,0.0,0.0,0.0,0.0,0.0,0.0,0.0,0.0,0.0,0.0,0.0,0.0,0.0,0.0,0.0,0.0,0.0,0.0,0.0324,0.0476,0.0052,0.2136,0.2318,0.2515,0.3618,0.462,0.4066,0.487,0.6027,0.7155,0.7681,0.7752,0.759,0.7356,0.7169,0.7109,0.7095,0.7095,0.7095,0.7095,0.7095,0.7095,0.7095,0.7095,0.7095,0.7095,0.7095,0.7095,0.7095,0.7095,0.6694,0.5669,0.4512,0.2996,0.1657,0.0539,0.0,0.0,0.0,0.0,0.0,0.0,0.0,0.0,0.0,0.0,0.0,0.0,0.0,0.0,0.0,0.0,0.0,0.0,0.0,-0.1031,-0.1656,-0.2772,-0.3664,-0.4287,-0.4643,-0.3929,-0.2726,0.0,0.0,0.0,0.0,0.0,0.0,0.0,0.0,0.0,0.0,0.0,0.0,0.0,0.0,0.0,0.0,0.0,0.0,0.0,0.0,-0.0235,-0.1019,-0.1879,-0.2971,-0.4025,-0.5315,-0.6257,0.0,0.0,0.0,0.0,0.0,0.0,0.0,0.0,0.0,0.0,0.0,0.0,0.0,0.0,0.0,0.0,0.0,0.0,0.0,0.0,0.0,0.0,0.0,0.0705,0.1063,0.058,0.2049,0.1965,0.146,0.3265,0.4016,0.4116,0.462,0.517,0.6213,0.7372,0.7724,0.7621,0.7407,0.7258,0.7136,0.7095,0.7095,0.7095,0.7095,0.7095,0.7095,0.7095,0.7095,0.7095,0.7095,0.7095,0.7095,0.7095,0.7095,0.6874,0.6251,0.5314,0.4332,0.2594,0.1165,0.0,0.0,0.0,0.0,0.0,0.0,0.0,0.0,0.0,0.0,0.0,0.0,0.0,0.0,0.0,0.0,0.0,0.0,0.0,-0.0673,-0.1165,-0.1388,-0.2237,-0.304,-0.3439,-0.2727,0.0,0.0,0.0,0.0,0.0,0.0,0.0,0.0,0.0,0.0,0.0,0.0,0.0,0.0,0.0,0.0,0.0,0.0,0.0,0.0,0.0,0.0,0.0,-0.1058,-0.2464,-0.375,-0.5002,-0.5825,0.0,0.0,0.0,0.0,0.0,0.0,0.0,0.0,0.0,0.0,0.0,0.0,0.0,0.0,0.0,0.0,0.0,0.0,0.0,0.0,0.0,0.0,0.0,0.0,0.0479,0.0476,0.1848,0.2514,0.1762,0.3015,0.3715,0.4166,0.467,0.5425,0.6368,0.7165,0.7652,0.7634,0.7455,0.7299,0.7177,0.7095,0.7095,0.7095,0.7095,0.7095,0.7095,0.7095,0.7095,0.7095,0.7095,0.7095,0.7095,0.7095,0.7095,0.7095,0.6561,0.6115,0.5179,0.3263,0.1344,0.0,0.0,0.0,0.0,0.0,0.0,0.0,0.0,0.0,0.0,0.0,0.0,0.0,0.0,0.0,0.0,0.0,0.0,0.0,0.0,-0.0494,-0.0583,-0.0718,-0.1523,-0.2148,-0.13,0.0,0.0,0.0,0.0,0.0,0.0,0.0,0.0,0.0,0.0,0.0,0.0,0.0,0.0,0.0,0.0,0.0,0.0,0.0,0.0,0.0,0.0,0.0,0.0,-0.231,-0.3519,-0.4688,-0.5431,0.0,0.0,0.0,0.0,0.0,0.0,0.0,0.0,0.0,0.0,0.0,0.0,0.0,0.0,0.0,0.0,0.0,0.0,0.0,0.0,0.0,0.0,0.0,0.0,0.0,0.0,0.0721,0.126,0.1209,0.2715,0.3165,0.3767,0.5072,0.5779,0.6263,0.7143,0.7759,0.7665,0.7516,0.7363,0.7234,0.7119,0.7095,0.7095,0.7095,0.7095,0.7095,0.7095,0.7095,0.7095,0.7095,0.7095,0.7095,0.7095,0.7095,0.7095,0.7007,0.665,0.5581,0.3796,0.1879,0.0,0.0,0.0,0.0,0.0,0.0,0.0,0.0,0.0,0.0,0.0,0.0,0.0,0.0,0.0,0.0,0.0,0.0,0.0,0.0,0.0,0.0,0.0,0.0,0.0,0.0,0.0,0.0,0.0,0.0,0.0,0.0,0.0,0.0,0.0,0.0,0.0,0.0,0.0,0.0,0.0,0.0,0.0,0.0,0.0,0.0,0.0,0.0,0.0,0.0,-0.2036,-0.3205,-0.4336,-0.5273,0.0,0.0,0.0,0.0,0.0,0.0,0.0,0.0,0.0,0.0,0.0,0.0,0.0,0.0,0.0,0.0,0.0,0.0,0.0,0.0,0.0,0.0,0.0,0.0,0.0,0.0,0.0772,0.1159,0.0857,0.2815,0.3016,0.3518,0.5375,0.6331,0.6179,0.7332,0.7901,0.7804,0.7651,0.7495,0.7343,0.721,0.7105,0.7095,0.7095,0.7095,0.7095,0.7095,0.7095,0.7095,0.7095,0.7095,0.7095,0.7095,0.7095,0.7095,0.7095,0.7051,0.6827,0.4772,0.326,0.1969,0.1611,0.1121,0.0359,0.0,0.0,0.0,0.0,0.0,0.0,0.0,0.0,0.0,0.0,0.0,0.0,0.0,0.0,0.0,0.0,0.0,0.0,0.0,0.0,0.0,0.0,0.0,0.0,0.0,0.0,0.0,0.0,0.0,0.0,0.0,0.0,0.0,0.0,0.0,0.0,0.0,0.0,0.0,0.0,0.0,0.0,0.0,0.0,0.0,0.0,-0.1723,-0.2893,-0.3906,-0.4805,0.0,0.0,0.0,0.0,0.0,0.0,0.0,0.0,0.0,0.0,0.0,0.0,0.0,0.0,0.0,0.0,0.0,0.0,0.0,0.0,0.0,0.0,0.0,0.0,0.0587,0.1422,0.2055,0.2966,0.4223,0.4772,0.5675,0.6429,0.6379,0.7232,0.7385,0.7879,0.7911,0.7814,0.7668,0.7526,0.7422,0.7234,0.7102,0.7102,0.7095,0.7095,0.7095,0.7095,0.7095,0.7095,0.7095,0.7095,0.7095,0.7095,0.7095,0.7095,0.7095,0.7095,0.7051,0.6021,0.4996,0.3616,0.2369,0.1879,0.121,0.0359,0.0,0.0,0.0,0.0,0.0,0.0,0.0,0.0,0.0,0.0,0.0,0.0,0.0,0.0,0.0,0.0,0.0,0.0,0.0,0.0,0.0,0.0,0.0,0.0,0.0,0.0,0.0,0.0,0.0,0.0,0.0,0.0,0.0,0.0,0.0,0.0994,0.0,0.0,0.0,0.0,0.0,0.0,0.0,0.0,0.0,0.0,-0.262,-0.3515,-0.4217,0.0456,0.0,0.0,0.0,0.0,0.0,0.0,0.0,0.0,0.0,0.0,0.0,0.0,0.0,0.0,0.0,0.0,0.0,0.0,0.0,0.0,0.0,0.0,0.1247,0.2132,0.289,0.3491,0.442,0.4822,0.6478,0.7182,0.7484,0.7988,0.7839,0.7939,0.7971,0.7951,0.783,0.7767,0.7617,0.7465,0.7322,0.7156,0.7115,0.7095,0.7095,0.7095,0.7095,0.7095,0.7095,0.7095,0.7095,0.7095,0.7095,0.7095,0.7095,0.7095,0.7095,0.7051,0.7051,0.6021,0.5085,0.3707,0.2681,0.2013,0.1121,0.0449,0.0,0.0,0.0,0.0,0.0,0.0,0.0,0.0,0.0,0.0,0.0,0.0,0.0,0.0,0.0,0.0,0.0,0.0,0.0,0.0,0.0,0.0,0.0,0.0,0.0,0.0,0.0,0.0,0.0,0.0,0.0,0.0754,0.1705,0.1768,0.144,0.1666,0.0,0.0,0.0,0.0,0.0,0.0,0.0,0.0,0.0,0.0,-0.3086,-0.3671,0.1399,0.0168,0.0,0.0,0.0,0.0,0.0,0.0,0.0,0.0,0.0,0.0,0.0,0.0,0.0,0.0,0.0,0.0,0.0,0.0,0.0,0.2013,0.2653,0.3242,0.3675,0.4036,0.4413,0.477,0.4468,0.6077,0.7285,0.7736,0.7988,0.7988,0.7988,0.7985,0.7975,0.7907,0.7845,0.7695,0.755,0.7421,0.7272,0.719,0.7095,0.7095,0.7095,0.7095,0.7095,0.7095,0.7095,0.7095,0.7095,0.7095,0.7095,0.7095,0.7095,0.7095,0.7095,0.7095,0.7051,0.6337,0.5802,0.4198,0.2683,0.1701,0.0942,0.0,0.0,0.0,0.0,0.0,0.0,0.0,0.0,0.0,0.0,0.0,0.0,0.0,0.0,0.0,0.0,0.0,0.0,0.0,0.0,0.0,0.0,0.0,0.0,0.0,0.0,0.0,0.0,0.0,0.0,0.0,0.0,0.1638,0.1705,0.2246,0.2806,0.2856,0.2095,0.0,0.0,0.0,0.0,0.0,0.0,0.0,-0.1886,-0.2464,-0.3125,0.2962,0.1622,0.1566,0.0952,0.0,0.0,0.0,0.0,0.0,0.0,0.0,0.0,0.0,0.0,0.0,0.0,0.0,0.0,0.0,0.2125,0.3073,0.3631,0.3974,0.4324,0.4847,0.5341,0.5649,0.5824,0.6678,0.7335,0.7385,0.7939,0.7988,0.7988,0.7988,0.7988,0.7988,0.7958,0.7896,0.7763,0.7617,0.7514,0.7316,0.7207,0.7102,0.7098,0.7095,0.7095,0.7095,0.7095,0.7095,0.7095,0.7095,0.7095,0.7095,0.7095,0.7095,0.7095,0.7095,0.7095,0.7095,0.7095,0.6694,0.5398,0.3705,0.2325,0.1433,0.0,0.0,0.0,0.0,0.0,0.0,0.0,0.0,0.0,0.0,0.0,0.0,0.0,0.0,0.0,0.0,0.0,0.0,0.0,0.0,0.0,0.0,0.0,0.0,0.0,0.0,0.0,0.0,0.0,0.0,0.0,0.0,0.1965,0.2787,0.3367,0.4021,0.377,0.2723,0.2065,0.0,0.0,0.0,0.0,0.0,0.0,-0.1302,-0.1885,-0.2425,0.4468,0.3185,0.3129,0.2236,0.1119,0.1511,0.1511,0.0896,0.028,0.0,0.0,0.0,0.028,0.0,0.0,0.0,0.0,0.1958,0.2348,0.3465,0.4636,0.5139,0.5355,0.5728,0.6487,0.6908,0.6989,0.7083,0.7889,0.7988,0.7988,0.7988,0.7988,0.7988,0.7988,0.7988,0.7988,0.7961,0.794,0.7821,0.7678,0.7533,0.7387,0.7248,0.7146,0.7105,0.7095,0.7095,0.7095,0.7095,0.7095,0.7095,0.7095,0.7095,0.7095,0.7095,0.7095,0.7095,0.7095,0.7095,0.7095,0.7095,0.7095,0.6065,0.473,0.335,0.2192,0.0,0.0,0.0,0.0,0.0,0.0,0.0,0.0,0.0,0.0,0.0,0.0,0.0,0.0,0.0,0.0,0.0,0.0,0.0,0.0,0.0,0.0,0.0,0.0,0.0,0.0,0.0,0.0,0.0,0.0,0.0,0.0,0.2233,0.3428,0.4345,0.4833,0.4218,0.3231,0.2606,0.0,0.0,0.0,0.0,0.0,0.0,0.0,-0.1381,-0.1924,0.6031,0.4639,0.4526,0.3632,0.2682,0.3745,0.3578,0.2291,0.112,0.0,0.0,0.0,0.1343,0.2069,0.1511,0.2238,0.3186,0.3408,0.3854,0.4749,0.6197,0.6869,0.7188,0.7833,0.7812,0.8118,0.8123,0.7736,0.7889,0.7988,0.7988,0.7988,0.7988,0.7988,0.7988,0.7988,0.7988,0.7978,0.7955,0.7929,0.7797,0.7668,0.7539,0.7366,0.7251,0.7119,0.7102,0.7095,0.7095,0.7095,0.7095,0.7095,0.7095,0.7095,0.7095,0.7095,0.7095,0.7095,0.7095,0.7095,0.7095,0.7095,0.7051,0.6514,0.5487,0.4419,0.3261,0.1701,0.0,0.0,0.0,0.0,0.0,0.0,0.0,0.0,0.0,0.0,0.0,0.0,0.0,0.0,0.0,0.0,0.0,0.0,0.0,0.0,0.0,0.0,0.0,0.0,0.0,0.0,0.0,0.0,0.0,0.0,0.0,0.2369,0.3477,0.4503,0.5536,0.499,0.437,0.3269,0.0,0.0,0.0,0.0,0.0,0.0,0.0,0.0,-0.1106,0.7537,0.6086,0.4973,0.4246,0.4023,0.4359,0.4359,0.3967,0.3634,0.341,0.3409,0.341,0.3521,0.3688,0.3353,0.3857,0.4414,0.5139,0.5753,0.6478,0.7593,0.8042,0.821,0.8364,0.8559,0.8384,0.8225,0.7988,0.7988,0.7988,0.7988,0.7988,0.7988,0.7988,0.7988,0.7988,0.7988,0.7988,0.7978,0.7921,0.7845,0.7763,0.7655,0.7465,0.7316,0.7241,0.72,0.7098,0.7098,0.7095,0.7095,0.7095,0.7095,0.7095,0.7095,0.7095,0.7095,0.7095,0.7095,0.7095,0.7095,0.7095,0.7095,0.6962,0.6425,0.5534,0.4285,0.2638,0.1389,0.0807,0.0,0.0,0.0,0.0,0.0,0.0,0.0,0.0,0.0,0.0,0.0,0.0,0.0,0.0,0.0,0.0,0.0,0.0,0.0,0.0,0.0,0.0,0.0,0.0,0.0,0.0,0.0,0.0,0.0,0.2769,0.3659,0.4996,0.6248,0.6201,0.5681,0.4372,0.3221,0.0,0.0,0.0997,0.0,0.0,0.0,0.0,0.0,0.8436,0.7595,0.6813,0.6086,0.5641,0.6142,0.6089,0.5641,0.6144,0.6422,0.6142,0.525,0.4804,0.5139,0.486,0.5586,0.6089,0.6478,0.7035,0.7762,0.8266,0.8657,0.8811,0.8635,0.853,0.8404,0.8184,0.7988,0.7988,0.7988,0.7988,0.7988,0.7988,0.7988,0.7988,0.7988,0.7988,0.7988,0.7988,0.7938,0.7889,0.7828,0.776,0.758,0.7441,0.7346,0.7261,0.719,0.7098,0.7095,0.7095,0.7095,0.7095,0.7095,0.7095,0.7095,0.7095,0.7095,0.7095,0.7095,0.7095,0.7095,0.7095,0.7007,0.7007,0.6068,0.5085,0.3482,0.2013,0.0,0.0,0.0,0.0,0.0,0.0,0.0,0.0,0.0,0.0,0.0,0.0,0.0,0.0,0.0,0.0,0.0,0.0,0.0,0.0,0.0,0.0,0.0,0.0,0.0,0.0,0.0,0.0,0.0,0.2324,0.3838,0.5041,0.611,0.7007,0.6738,0.6157,0.5038,0.4014,0.3084,0.1744,0.0619,0.0,0.0,0.0,0.0,0.0,0.8881,0.8937,0.8826,0.8156,0.726,0.8266,0.81,0.7315,0.8266,0.8771,0.838,0.62,0.6033,0.6089,0.5919,0.7204,0.7875,0.7595,0.8042,0.8432,0.8771,0.8937,0.8828,0.8645,0.8492,0.8333,0.8143,0.8015,0.7988,0.7988,0.7988,0.7988,0.7988,0.7988,0.7988,0.7988,0.7988,0.7988,0.7988,0.7988,0.7928,0.786,0.7838,0.7719,0.7584,0.7428,0.7343,0.7268,0.718,0.7095,0.7095,0.7095,0.7095,0.7095,0.7095,0.7095,0.7095,0.7095,0.7095,0.7095,0.7095,0.7095,0.7095,0.7095,0.7095,0.6602,0.5575,0.4414,0.2948,0.0,0.0,0.0,0.0,0.0,0.0,0.0,0.0,0.0,0.0,0.0,0.0,0.0,0.0,0.0,0.0,0.0,0.0,0.0,0.0,0.0,0.0,0.0,0.0,0.0,0.0,0.0,0.0,0.1478,0.2681,0.4639,0.6245,0.6782,0.7095,0.6962,0.6293,0.5622,0.4596,0.3571,0.21,0.085,0.0,0.0,0.0,0.0,0.0,0.8937,0.8937,0.8937,0.8716,0.8546,0.8826,0.8716,0.8546,0.8712,0.8937,0.8716,0.8602,0.8322,0.8436,0.8266,0.8657,0.8491,0.8322,0.8491,0.8881,0.8937,0.8937,0.8832,0.8587,0.8353,0.8194,0.8035,0.8008,0.7988,0.7988,0.7988,0.7988,0.7988,0.7988,0.7988,0.7988,0.7988,0.7988,0.7988,0.7988,0.7988,0.7928,0.7919,0.7834,0.7763,0.7577,0.7438,0.7353,0.7255,0.7183,0.7095,0.7095,0.7095,0.7095,0.7095,0.7095,0.7095,0.7095,0.7095,0.7095,0.7095,0.7095,0.7095,0.7095,0.7095,0.7095,0.6154,0.5343,0.3968,0.2815,0.0,0.0,0.0,0.0,0.0,0.0,0.0,0.0,0.0,0.0,0.0,0.0,0.0,0.0,0.0,0.0,0.0,0.0,0.0,0.0,0.0,0.0,0.0,0.0,0.0,0.0,0.0673,0.17,0.3081,0.5041,0.6378,0.6871,0.7051,0.7007,0.7007,0.6602,0.5487,0.4105,0.3304,0.2101,0.0673,0.0,0.0,0.0,0.0]}]]